GFSMA_prec_cloud_003.txt.gz
Cloud_Cover
0 0 0 0 0 0 0 0 0 0 0 0 0 0 64 100 100 100 92 5 26 12 38 98 100 100 100 100 100 70 5 4 0 16 1 2 5 5 5 5 5 90 98
0 3 1 0 0 0 0 0 0 0 0 0 0 0 0 19 100 100 100 92 38 99 76 73 100 100 100 100 100 100 48 0 1 0 0 0 5 4 5 5 8 96 7
3 0 0 0 0 0 0 0 1 0 0 0 0 0 0 0 0 100 100 100 97 12 64 97 100 100 100 100 100 100 100 13 0 0 0 0 5 4 4 5 30 61 76
2 0 2 0 0 0 0 0 0 0 0 0 0 0 0 0 0 0 92 100 100 93 54 98 90 100 100 100 100 100 100 100 2 2 0 0 0 4 0 4 5 8 28
0 0 0 5 0 0 2 0 1 0 0 0 0 0 0 0 0 0 0 4 78 100 60 82 6 64 100 100 100 100 100 100 100 6 0 0 0 0 0 0 1 5 5
0 0 0 0 2 1 0 2 27 22 3 0 0 0 0 0 0 0 0 0 0 4 83 28 83 9 59 100 100 100 100 100 100 100 33 1 0 0 0 0 0 0 4
0 0 0 0 0 0 0 20 16 11 1 5 0 0 0 0 0 0 0 0 0 0 0 6 18 100 56 47 94 100 100 100 100 100 100 4 5 5 0 0 1 0 0
0 0 0 0 0 0 2 5 2 0 0 13 7 0 0 0 2 0 0 0 0 0 0 0 0 21 100 92 24 100 100 100 100 100 100 98 5 5 32 2 0 5 2
0 0 0 0 0 0 0 5 3 2 2 19 25 0 0 0 0 0 0 1 0 0 0 0 0 0 11 98 74 10 76 100 100 100 100 100 86 5 85 81 4 2 5
0 0 0 0 0 0 0 5 5 3 10 5 6 15 10 3 0 0 0 0 0 0 0 0 0 0 0 5 29 31 5 28 100 100 100 100 100 5 9 7 5 0 2
0 0 0 0 0 0 5 5 5 5 5 6 5 4 0 0 2 0 0 0 0 0 0 0 0 0 0 0 5 5 5 5 5 48 100 100 100 84 7 5 5 5 0
0 0 0 0 0 2 0 3 5 52 43 13 5 5 2 5 0 0 0 0 0 0 0 0 0 0 0 0 0 3 5 16 5 5 45 100 100 100 24 62 16 6 2
0 0 0 0 4 0 13 5 4 27 5 6 5 22 0 5 3 3 5 0 0 0 0 0 0 0 0 0 0 0 0 5 5 18 5 10 100 100 41 5 13 32 4
0 0 5 5 5 5 5 30 5 10 55 6 5 5 7 4 3 5 5 46 6 2 18 0 0 0 0 0 0 0 0 0 3 30 8 5 5 95 91 5 4 2 3
0 0 1 5 5 9 5 10 26 46 80 39 44 5 5 35 5 2 7 5 2 14 2 0 0 0 0 0 0 0 0 0 0 0 21 5 5 49 96 34 5 2 0
5 5 5 5 3 3 28 48 82 11 39 88 87 5 68 26 5 3 5 8 5 5 5 1 6 0 0 0 0 0 0 0 0 0 0 5 5 5 93 28 5 5 0
100 94 100 75 5 15 28 5 5 10 27 24 70 20 57 24 12 3 5 2 7 16 16 5 4 10 0 0 0 0 0 0 0 0 0 0 5 4 6 41 5 5 1
100 100 96 73 54 90 30 5 9 16 55 77 100 92 98 6 85 5 2 0 5 5 28 84 5 0 1 0 10 1 0 0 0 0 0 0 0 3 0 5 5 5 4
100 100 100 100 100 100 100 48 28 59 37 38 100 92 80 77 5 1 98 30 91 100 42 53 0 0 0 0 1 2 10 0 0 0 0 0 0 0 0 0 5 5 5
100 100 100 100 100 100 99 99 69 100 100 98 100 100 100 60 47 91 5 93 100 81 4 4 9 0 1 1 7 28 1 2 0 0 0 0 0 0 0 0 0 2 5
100 100 100 100 100 100 100 100 100 100 100 100 100 100 100 72 100 6 100 100 100 31 49 2 6 6 0 7 0 0 18 25 0 0 0 0 0 0 0 0 0 0 0
100 100 100 100 100 100 100 100 100 100 100 100 100 100 98 100 21 5 97 96 45 99 69 99 4 3 0 3 0 49 23 4 0 0 14 0 6 0 0 0 0 0 0
100 100 100 100 100 100 100 100 100 100 100 100 100 99 100 78 11 79 88 91 65 100 100 12 34 29 27 18 53 64 8 31 38 12 41 0 36 0 0 0 0 0 0
93 99 100 100 100 100 100 100 100 100 100 100 100 100 43 95 100 100 100 100 100 100 32 1 17 23 24 12 6 26 70 84 42 59 97 34 32 2 9 70 92 41 0
71 100 100 100 100 100 99 100 100 100 100 100 100 100 97 100 100 100 97 100 35 78 6 0 0 1 0 0 3 79 78 88 28 42 78 78 58 100 100 100 100 72 0
27 99 100 100 99 100 100 100 100 100 100 100 100 100 100 100 100 100 100 100 94 5 5 5 0 0 3 0 0 75 100 100 91 19 100 100 100 100 100 100 31 94 100

GFSMA_prec_cloud_006.txt.gz
Cloud_Cover
29 10 0 4 6 45 66 33 16 8 10 25 8 0 0 0 70 100 100 100 64 5 78 78 100 100 100 100 100 100 63 0 0 0 0 2 4 4 5 5 7 53 22
14 15 43 12 14 53 59 25 14 7 40 54 19 1 0 0 0 14 100 100 100 44 83 100 82 100 100 100 100 100 100 86 0 0 0 0 0 5 3 5 5 22 10
0 0 41 16 21 36 1 24 38 86 39 9 0 0 0 0 0 0 0 5 77 100 94 16 90 100 100 100 100 100 100 100 38 0 0 0 1 0 2 5 5 25 5
2 11 37 20 42 0 36 92 38 34 7 2 0 0 0 0 0 0 0 0 4 13 96 93 29 98 100 100 100 100 100 100 100 92 1 0 0 3 5 5 5 18 5
0 4 18 26 15 1 8 21 67 3 0 0 0 0 0 0 0 0 0 0 1 4 4 7 20 5 76 100 100 100 100 100 100 100 98 4 4 5 4 2 3 5 5
22 16 33 13 3 20 38 44 13 4 0 0 0 0 0 0 0 2 2 0 0 0 0 0 5 5 5 82 100 100 100 100 100 100 100 96 2 5 5 2 0 3 5
14 8 21 16 9 4 10 1 0 0 0 5 0 4 0 0 1 0 0 0 0 0 0 0 8 5 11 5 80 100 100 100 100 100 100 100 96 0 5 3 0 0 5
20 16 15 7 5 0 24 0 2 1 0 4 0 0 0 22 20 1 0 5 3 0 0 0 0 11 22 97 84 67 100 100 100 100 100 100 100 100 5 8 5 4 4
48 21 23 0 8 0 0 8 17 5 0 26 2 0 2 0 9 3 7 0 1 0 0 0 0 0 0 0 7 92 100 100 100 100 100 100 100 100 98 5 5 5 5
4 22 6 16 0 0 0 0 0 4 0 0 0 0 0 0 0 12 4 0 1 5 0 0 0 0 0 0 0 3 76 100 100 100 100 100 100 100 100 36 42 4 5
0 0 0 0 0 0 2 2 0 5 4 5 5 4 7 0 0 5 5 12 4 7 0 0 0 0 0 0 0 0 0 82 100 100 100 100 100 100 100 100 59 21 5
0 0 1 0 0 0 0 5 5 3 1 3 5 54 5 5 2 7 70 8 1 0 0 0 1 0 3 2 0 0 3 4 64 100 100 100 100 100 100 100 92 27 15
0 0 8 0 11 3 2 5 3 1 5 5 7 6 41 4 16 5 66 62 19 31 45 2 22 1 0 1 0 0 0 4 5 56 96 7 73 100 100 100 100 48 7
0 0 1 0 75 73 5 4 0 18 97 22 37 40 31 56 77 98 96 54 86 33 84 100 98 6 1 5 0 0 0 0 0 2 10 100 13 6 96 100 100 100 6
4 5 9 99 37 100 98 19 28 2 51 20 5 22 77 71 55 98 97 71 99 71 28 16 23 41 6 14 1 0 0 0 0 0 0 2 67 6 5 92 100 90 86
35 74 81 70 91 64 100 50 46 96 100 86 65 53 100 100 100 100 99 99 100 87 86 5 58 63 17 5 0 0 0 0 0 0 0 0 0 5 4 5 79 100 64
15 96 92 20 99 70 86 5 84 97 47 73 98 100 100 100 100 100 100 100 100 96 46 49 52 100 13 23 7 32 37 7 0 0 0 0 0 0 2 1 5 68 80
29 91 100 100 100 100 80 100 98 100 100 100 100 100 100 100 100 100 100 100 100 77 18 96 56 29 4 4 79 19 44 22 14 0 0 0 0 0 0 0 0 4 15
53 87 100 100 100 100 100 22 66 100 100 100 100 100 100 100 100 100 100 100 100 85 79 100 87 90 27 66 99 100 82 3 9 12 0 0 0 0 0 0 0 0 4
2 79 100 100 100 100 100 66 100 100 100 100 100 100 100 100 100 100 100 100 99 51 47 94 100 100 98 100 100 100 100 70 14 5 0 0 0 0 0 0 0 0 0
52 77 100 100 100 100 100 100 100 100 100 100 100 100 100 100 100 100 100 67 74 100 100 100 100 100 99 97 100 98 88 93 21 27 6 0 0 0 0 0 0 0 0
5 99 100 100 100 100 100 100 100 100 100 100 100 100 100 100 100 100 90 68 100 100 100 100 100 100 100 100 100 53 31 18 21 0 0 0 0 1 0 0 0 0 0
5 5 86 98 100 100 100 100 100 100 100 100 100 100 100 100 100 100 100 98 100 100 100 100 100 100 100 73 7 69 26 11 0 0 5 2 31 1 1 0 0 0 0
14 17 0 1 10 8 100 29 30 84 100 100 100 100 100 100 100 100 100 100 100 83 99 66 85 15 9 1 1 1 0 0 11 42 81 73 65 4 1 0 0 0 0
95 49 15 20 85 91 68 80 91 28 79 100 98 100 100 100 100 100 100 100 100 100 100 58 0 3 2 4 1 8 0 84 45 30 3 89 17 44 3 2 8 6 0
82 72 39 83 13 12 24 90 59 98 99 100 100 100 100 100 99 100 100 100 94 24 13 1 0 4 0 0 0 17 75 100 100 83 17 98 99 76 83 100 98 92 90

GFSMA_prec_cloud_009.txt.gz
Cloud_Cover
93 21 73 0 70 7 87 100 100 52 91 98 100 12 0 0 0 2 42 95 100 76 5 5 93 100 100 100 100 100 100 100 10 0 0 4 5 4 4 5 25 51 5
93 18 73 100 98 100 86 94 100 14 26 64 76 3 0 0 0 0 0 4 22 83 70 15 98 93 100 100 100 100 100 100 100 9 0 0 4 5 4 4 58 38 5
5 1 22 97 97 100 15 71 100 82 5 7 1 0 2 9 3 0 0 0 1 5 50 48 42 94 100 100 100 100 100 100 100 100 1 4 5 5 5 5 32 100 8
11 34 25 100 100 87 100 81 9 100 66 0 0 0 0 0 0 0 30 0 1 0 4 5 81 60 100 100 100 100 100 100 100 100 100 99 5 5 5 5 5 93 59
100 56 70 76 21 84 76 1 4 87 37 0 0 0 3 27 4 56 2 27 25 34 11 2 5 5 13 100 100 100 100 100 100 100 100 100 73 4 4 5 5 5 88
9 26 41 55 30 95 1 62 89 4 0 2 1 0 4 28 10 39 43 10 3 17 84 39 10 33 6 14 100 100 100 100 100 100 100 100 100 65 0 0 1 5 10
39 1 4 70 16 19 100 71 0 0 0 48 5 81 8 2 19 40 18 5 3 5 3 4 87 68 39 41 5 86 100 100 100 100 100 100 100 100 71 0 0 1 5
100 14 21 1 5 52 0 0 0 0 0 25 9 4 48 57 82 71 1 0 2 8 5 5 2 0 32 13 17 3 84 100 100 100 100 100 100 100 100 44 0 0 1
58 22 12 5 11 0 0 0 7 0 6 39 2 16 21 89 69 55 2 0 0 1 20 0 1 0 0 0 3 5 9 100 100 100 100 100 100 100 100 100 42 0 4
6 33 73 14 0 0 0 0 0 2 1 2 8 0 5 8 5 43 92 31 3 2 0 5 1 5 0 0 0 3 13 81 100 100 100 100 100 100 100 100 100 81 4
1 0 0 0 0 0 0 3 2 2 14 0 1 6 6 5 65 40 8 100 100 71 28 5 0 0 6 0 0 0 4 51 91 100 100 100 100 100 100 100 100 100 97
0 0 0 0 0 0 29 5 8 0 0 0 4 14 22 49 69 100 100 100 100 96 30 7 5 4 3 39 0 0 0 4 96 54 100 100 100 100 100 100 100 100 100
1 0 0 0 1 5 87 42 3 10 4 3 3 4 80 94 42 58 99 100 100 100 96 64 99 18 10 45 0 0 0 0 3 10 8 96 100 100 100 100 100 100 100
3 0 0 3 100 98 32 5 5 99 14 5 4 2 17 17 25 21 100 100 100 100 100 100 100 96 100 5 4 0 0 0 4 0 5 5 20 100 100 100 100 100 100
0 0 2 2 4 50 95 90 8 92 97 35 6 11 43 94 62 100 100 100 100 100 100 100 100 100 100 86 97 0 1 0 0 0 0 2 4 5 34 100 100 100 100
2 4 4 78 90 22 74 52 86 71 84 87 100 100 87 98 100 100 100 49 100 100 100 100 100 100 70 12 39 77 10 0 0 0 5 4 3 0 1 3 72 12 11
0 0 33 29 64 49 100 100 49 30 100 84 56 82 62 100 100 100 100 100 100 100 100 100 100 100 88 83 87 82 98 100 28 78 49 5 5 0 0 0 0 2 1
0 0 5 8 56 70 94 69 54 36 100 70 93 100 99 100 100 100 100 100 100 100 100 100 100 100 100 91 82 99 83 62 38 99 100 77 2 0 0 0 0 0 0
0 5 10 5 62 72 100 100 100 100 100 99 92 100 100 100 100 100 100 100 100 100 100 100 100 100 99 100 100 53 86 100 100 100 28 27 4 0 0 0 0 0 0
4 5 4 5 86 100 100 100 100 100 100 100 100 100 100 100 100 100 100 100 100 100 100 100 100 100 100 80 100 99 100 100 100 84 50 0 32 1 0 0 0 0 0
2 0 5 66 100 100 100 100 99 72 91 100 91 100 100 100 100 86 100 100 100 100 100 99 100 98 100 97 100 100 100 100 5 100 1 0 2 12 3 0 0 0 5
61 5 5 100 100 83 86 99 100 94 100 95 28 79 98 88 100 100 100 100 100 100 100 100 100 100 100 100 100 100 77 2 0 0 0 0 0 0 0 0 0 0 0
55 11 49 5 89 61 21 53 100 82 5 5 39 100 51 83 100 100 97 100 100 100 100 100 100 100 100 100 100 82 1 5 0 0 0 0 0 0 0 1 43 2 0
100 99 100 25 20 2 7 29 90 9 0 35 100 24 33 58 66 86 99 100 100 100 100 100 93 100 100 10 0 1 0 0 0 0 40 10 27 1 1 100 3 0 0
100 96 63 28 13 91 35 8 72 1 36 96 100 5 68 89 90 97 100 100 100 100 100 51 7 0 0 0 0 0 3 0 0 14 0 13 16 67 44 0 0 0 0
100 100 100 91 100 95 41 5 5 92 100 100 36 96 59 89 22 32 6 31 67 73 8 1 24 9 0 0 2 3 8 97 83 21 21 49 1 0 2 100 100 27 19

GFSMA_prec_cloud_012.txt.gz
Cloud_Cover
85 49 3 24 0 65 7 5 10 81 5 0 0 0 0 0 2 0 4 0 1 8 31 2 97 100 96 84 97 100 85 83 100 86 9 1 0 5 5 29 90 87 85
5 36 3 0 87 94 67 100 61 46 3 5 99 51 0 96 14 47 0 0 0 1 76 9 6 38 100 100 96 77 100 100 100 100 62 0 0 0 5 6 20 100 100
1 0 0 2 14 92 100 10 91 0 100 8 100 2 45 6 0 0 0 39 8 0 2 65 77 13 20 100 100 100 89 100 100 100 100 91 5 0 0 5 5 77 100
0 0 1 21 62 9 55 61 15 1 59 54 0 3 5 31 7 8 100 3 29 0 0 2 8 96 100 100 100 100 100 100 100 100 100 100 100 86 0 0 4 5 82
21 2 10 38 65 10 0 15 32 54 0 0 0 15 4 97 39 100 12 95 71 37 88 1 0 3 11 85 100 100 100 100 100 100 100 100 100 100 68 0 0 0 5
0 13 3 5 11 0 38 3 75 44 3 0 0 0 0 18 0 40 99 53 44 93 29 99 1 33 10 18 7 75 100 100 100 100 100 100 100 100 100 9 0 5 0
4 0 0 0 100 1 70 100 0 0 0 2 0 34 3 98 0 79 3 4 7 62 76 9 92 76 33 0 4 5 60 100 100 100 100 100 100 100 100 100 0 0 4
0 73 0 0 25 4 33 0 0 0 2 30 0 0 94 100 100 79 5 5 5 59 59 4 88 0 0 0 0 2 0 71 100 100 100 100 100 100 100 97 100 7 0
0 78 0 0 8 9 0 0 0 0 3 85 30 13 0 45 90 85 99 10 4 99 100 13 8 17 8 0 0 0 2 0 51 100 100 100 100 100 100 100 98 100 7
0 8 1 0 0 0 0 0 2 1 0 45 97 0 0 1 14 99 95 99 61 90 96 32 5 7 39 90 14 0 0 4 14 58 100 100 100 100 100 100 100 100 94
0 10 4 2 0 0 0 0 0 0 0 1 4 96 83 0 1 25 12 95 100 100 54 59 5 52 5 72 95 88 1 0 3 78 30 100 100 100 100 100 100 100 100
0 0 4 0 0 0 0 0 0 0 0 0 4 10 76 32 100 82 26 9 5 100 100 100 23 6 14 100 95 54 36 1 0 1 50 94 100 100 100 100 100 100 100
0 0 0 0 1 5 5 5 7 5 5 2 3 5 53 74 0 3 11 42 81 98 100 100 96 44 45 100 43 5 80 6 0 0 0 67 100 100 100 100 100 100 100
0 0 0 2 5 38 11 76 99 80 10 82 6 5 22 61 16 98 100 81 90 94 100 96 94 100 100 96 96 63 10 79 24 4 0 0 1 6 96 100 100 100 100
0 0 1 5 5 74 99 100 44 7 37 74 91 5 18 68 98 71 100 100 100 98 9 100 100 100 100 100 100 100 100 5 33 35 5 3 0 0 11 8 90 100 100
0 0 2 1 5 6 65 11 48 5 7 84 73 65 56 26 18 88 100 75 76 100 100 100 100 99 100 100 100 100 100 100 18 5 40 5 5 0 0 2 1 34 98
0 0 0 0 2 4 6 25 8 5 5 5 20 7 28 36 58 92 92 100 100 100 100 100 100 100 100 100 100 100 100 100 15 89 100 48 2 1 15 80 45 0 1
0 0 0 0 2 5 5 6 7 5 5 78 99 99 100 100 100 100 100 100 100 100 100 100 100 100 84 92 100 100 100 84 75 50 5 6 4 31 91 0 0 0 0
0 0 0 0 1 4 87 55 100 93 100 96 100 99 25 41 65 94 85 20 76 100 100 100 100 100 100 100 98 100 99 100 97 11 16 40 99 66 95 6 0 0 0
0 0 0 3 5 10 16 68 66 72 100 91 47 99 5 52 74 28 100 60 92 61 28 100 100 100 100 100 100 100 100 100 100 100 100 100 100 94 93 5 1 0 0
0 0 1 5 62 5 13 5 3 38 65 48 55 99 5 5 16 45 6 33 98 86 25 44 98 100 100 100 100 100 100 100 100 100 100 100 99 18 1 0 0 0 0
0 5 8 39 15 41 5 5 5 2 5 84 100 89 5 59 100 100 27 66 95 35 82 66 100 100 100 100 86 100 100 100 100 100 100 97 3 0 0 0 0 0 0
0 15 11 45 71 54 20 5 0 3 99 100 100 97 5 43 100 100 100 100 84 92 86 31 79 100 100 100 100 100 100 87 47 9 0 0 0 8 19 0 0 0 2
11 44 72 100 100 87 100 56 10 58 100 92 27 42 80 68 100 97 92 98 43 94 64 56 5 32 95 98 76 97 43 2 0 0 0 0 0 0 0 0 0 2 0
73 100 100 100 100 100 100 68 90 92 61 90 100 20 90 98 97 100 100 10 74 100 100 78 5 97 100 97 23 0 2 0 0 0 0 0 0 0 9 0 0 0 0
100 100 100 100 100 95 84 69 49 94 74 74 37 8 56 72 84 94 97 100 56 86 89 100 66 41 13 0 6 47 0 0 0 0 0 0 2 0 0 1 0 0 1

GFSMA_prec_cloud_015.txt.gz
Cloud_Cover
2 69 2 2 4 10 12 54 78 93 7 3 99 88 3 23 34 0 0 0 0 1 78 65 10 39 80 71 20 66 100 76 5 54 9 1 0 4 0 1 5 38 5
0 0 0 5 16 78 100 91 62 41 99 4 4 12 12 18 4 0 0 0 0 0 19 50 100 17 86 97 85 21 98 100 59 63 96 0 0 0 1 0 3 5 5
4 0 4 4 0 2 42 2 45 1 0 20 0 5 5 18 5 57 5 0 0 0 0 5 89 100 27 88 100 95 56 49 75 98 5 88 96 0 0 3 2 5 5
0 0 0 0 17 11 32 0 16 0 0 0 0 0 0 32 88 54 22 10 1 0 0 0 0 5 72 100 100 100 100 100 87 100 98 79 82 100 6 0 4 3 5
84 0 0 0 5 97 0 0 36 54 47 0 0 0 0 6 100 100 26 76 39 17 9 11 6 0 2 7 51 100 100 100 100 99 100 55 25 47 100 5 0 0 1
0 0 0 0 0 1 0 19 24 7 0 0 0 0 0 0 10 6 80 16 98 100 28 3 93 24 11 0 5 15 45 100 100 100 99 65 100 83 77 87 2 0 0
0 0 0 0 0 68 2 20 3 0 0 0 0 0 0 91 1 1 0 4 6 95 100 93 44 100 26 1 1 4 5 5 100 100 100 100 100 100 98 52 6 5 0
0 0 0 0 0 0 0 0 0 0 0 0 2 0 1 91 14 68 5 14 3 1 36 80 84 8 2 1 0 0 3 17 88 100 100 100 100 100 100 100 100 71 6
0 0 0 0 0 0 5 0 0 0 0 0 1 1 6 3 100 6 89 27 57 16 4 100 100 42 60 6 1 1 2 0 14 100 100 100 100 99 100 100 99 98 52
0 0 0 0 0 0 2 0 0 0 0 0 2 0 0 0 16 92 37 0 41 29 77 18 34 11 10 79 20 5 5 0 4 5 44 100 100 100 100 100 100 86 100
0 0 0 0 0 0 1 4 5 5 2 0 0 0 0 0 44 5 5 44 71 92 28 100 100 100 18 5 25 34 95 17 5 3 86 67 100 100 100 100 100 100 100
0 0 0 0 1 5 5 5 9 5 5 5 0 0 0 0 0 0 4 4 79 97 50 55 100 100 72 7 5 56 100 100 100 34 0 2 21 74 100 100 100 100 100
0 0 0 0 5 5 9 87 86 9 5 8 5 2 3 0 0 1 3 3 3 37 80 100 100 100 41 100 100 81 9 100 100 100 91 2 0 1 7 100 100 100 100
0 0 0 0 0 11 5 9 5 5 2 5 5 16 26 5 1 4 5 6 5 5 16 100 99 100 100 100 100 99 97 21 100 100 100 100 5 89 45 1 87 100 100
0 0 0 0 0 0 1 1 5 5 2 0 0 2 5 5 5 5 46 93 100 100 100 100 100 98 100 100 100 100 100 100 98 55 100 95 93 95 10 5 0 9 99
0 0 0 0 0 4 5 5 5 5 5 4 4 1 3 50 5 82 96 19 5 42 100 54 6 76 92 98 100 100 100 100 100 96 100 60 9 12 98 100 4 71 0
0 0 0 0 0 0 0 22 5 5 5 5 5 5 5 31 20 14 32 15 5 5 5 7 12 15 21 23 44 99 100 100 100 100 57 35 100 100 65 20 5 2 0
0 0 0 0 0 0 5 6 4 6 87 77 17 25 22 1 38 5 25 97 100 5 5 5 5 36 100 97 99 99 74 89 100 100 100 100 100 100 92 9 3 5 5
0 0 0 0 0 5 5 5 5 2 5 75 96 50 64 45 100 10 22 95 11 21 72 68 5 5 8 5 8 5 28 11 77 76 100 100 100 100 100 75 94 17 3
0 0 0 0 3 5 5 53 62 22 5 3 5 14 92 100 100 42 22 99 66 92 100 100 98 97 15 6 17 15 15 5 60 64 52 100 100 100 51 70 96 100 100
0 0 0 0 0 5 5 5 39 73 57 4 77 88 95 100 100 23 61 66 87 95 97 100 56 17 5 6 40 71 97 100 100 98 75 91 95 55 59 100 100 86 100
0 5 5 3 0 5 5 46 34 97 5 5 0 53 100 100 100 46 51 100 100 100 100 100 100 100 93 8 5 40 5 63 100 94 97 100 100 100 100 100 100 99 83
0 5 5 3 4 11 29 50 87 89 77 31 6 100 99 93 100 96 85 97 100 100 100 100 100 97 37 44 8 48 99 81 57 98 100 85 98 48 28 2 0 0 0
5 5 2 42 35 100 100 100 100 100 11 0 8 83 97 22 100 92 100 100 100 100 100 80 71 100 46 5 5 5 12 1 1 0 1 0 0 0 0 0 0 0 0
5 14 85 99 100 100 100 100 100 100 94 93 90 98 71 62 100 79 48 100 100 100 100 98 95 98 22 5 1 0 0 4 0 0 0 0 0 0 0 0 0 0 0
76 100 100 100 100 100 100 100 97 100 100 100 36 8 26 100 57 60 100 100 99 84 70 82 76 84 70 5 5 0 0 100 1 0 0 0 0 0 0 0 0 0 0

GFSMA_prec_cloud_018.txt.gz
Cloud_Cover
0 0 2 0 0 0 66 1 19 40 48 0 31 0 0 0 2 0 0 0 0 1 83 100 100 95 91 78 44 45 69 93 14 18 7 4 11 3 4 2 5 5 5
26 0 0 0 0 0 16 2 0 59 58 0 43 0 0 1 5 5 4 5 0 0 5 96 100 100 100 61 89 10 96 100 94 66 83 8 2 0 0 1 3 6 5
0 0 0 0 0 8 33 0 0 29 1 43 65 0 0 5 90 5 5 5 4 0 0 0 2 6 71 100 98 92 94 100 99 32 95 5 2 0 0 0 2 5 5
0 4 0 0 0 3 0 0 0 0 0 74 8 0 52 16 69 21 8 5 5 4 0 0 0 0 4 6 100 100 100 99 100 100 100 61 5 5 90 1 0 3 5
0 0 0 0 0 24 68 0 51 36 68 0 0 0 0 3 100 3 5 57 6 22 28 18 2 0 0 0 1 31 100 100 100 100 100 100 98 83 100 23 4 4 0
0 0 0 0 0 0 0 7 12 0 0 0 0 0 0 0 0 0 0 1 2 20 98 38 36 31 11 0 0 0 6 97 100 100 100 100 100 100 100 100 56 16 5
0 0 0 0 0 0 0 0 0 0 0 0 0 0 0 5 0 0 3 8 0 0 0 29 100 84 100 0 1 0 0 5 77 100 100 100 100 100 100 100 100 100 98
8 0 0 0 0 0 0 0 0 0 0 0 0 0 1 71 0 91 11 58 0 0 4 0 4 100 11 2 4 1 0 0 1 22 100 100 100 100 100 100 100 100 100
10 0 0 0 0 0 0 0 0 0 0 0 0 0 0 5 18 8 30 71 5 5 16 7 3 2 94 94 3 4 5 0 4 5 39 100 100 100 100 100 100 100 100
0 0 0 0 0 0 0 0 0 1 0 0 0 0 0 0 0 1 4 4 5 5 32 98 56 36 5 100 99 11 4 9 65 4 6 51 100 100 100 100 100 100 100
0 0 0 0 0 0 0 0 3 0 0 1 0 0 0 0 2 0 0 0 4 5 5 69 100 100 100 8 100 17 90 98 99 100 60 5 5 65 100 100 100 100 100
0 0 0 0 2 1 0 4 2 0 2 4 5 5 0 1 5 5 0 5 0 7 97 32 5 5 40 100 80 100 81 100 100 82 100 100 100 98 100 100 100 100 100
5 0 0 0 0 0 0 0 0 0 0 0 1 5 5 3 4 0 0 0 0 3 5 100 100 81 25 23 67 100 100 98 100 100 88 100 100 100 74 20 94 100 100
0 0 0 0 0 0 0 0 0 0 0 1 0 0 0 0 0 2 5 4 3 11 8 0 27 99 100 88 100 36 42 100 100 100 100 88 100 100 100 58 15 13 99
0 0 0 0 0 0 0 4 4 0 0 0 0 0 0 0 0 5 4 5 5 5 5 5 3 1 66 99 99 15 48 5 99 100 100 94 99 100 42 100 96 100 100
0 0 0 0 0 0 0 2 5 4 3 4 1 3 0 0 0 5 0 5 20 7 24 5 5 5 5 2 6 52 16 3 1 8 89 100 100 100 55 13 38 98 100
0 0 0 0 0 0 1 5 5 4 5 5 4 0 0 0 2 0 17 4 32 55 6 71 50 67 5 5 5 2 6 60 82 27 13 87 55 73 100 100 72 44 92
0 0 0 0 0 5 5 3 0 5 5 5 3 1 3 0 14 17 80 10 5 5 85 52 35 5 5 5 7 7 8 5 5 7 5 5 5 11 38 44 100 29 6
0 0 0 0 1 2 5 5 0 4 5 5 4 4 0 1 100 84 92 75 5 5 98 58 98 11 13 5 7 28 6 29 76 60 5 5 90 5 20 48 95 100 100
0 0 0 0 2 5 5 5 4 5 5 44 5 5 0 1 78 100 100 80 5 5 42 7 98 96 94 22 56 65 82 96 88 26 4 4 15 48 79 69 99 100 100
0 0 0 4 0 3 5 5 5 100 97 88 86 57 5 4 97 100 63 81 19 85 98 85 100 94 99 34 40 100 100 52 92 3 0 0 0 8 31 27 98 100 100
0 0 0 5 5 5 0 60 100 100 100 67 64 3 0 69 90 58 99 96 100 60 92 100 100 100 100 100 100 100 100 96 5 3 0 0 0 5 5 5 1 4 70
0 0 0 0 0 5 96 100 52 91 35 97 100 2 0 73 93 3 100 5 97 66 100 100 100 100 100 87 100 95 5 42 37 5 0 0 0 0 0 0 0 3 5
0 1 0 0 2 98 100 100 100 100 100 100 100 79 26 77 79 64 5 44 60 59 90 100 100 100 86 82 55 5 48 15 90 79 1 0 14 0 0 0 0 0 0
34 2 0 14 60 100 81 100 100 100 100 100 100 99 92 86 47 51 83 92 10 97 100 100 100 97 70 54 65 64 100 96 30 43 98 5 4 3 2 0 0 0 0
0 2 67 40 92 100 100 100 100 100 100 77 85 22 64 100 72 94 29 99 63 100 100 34 50 75 69 90 100 95 92 100 100 15 66 4 5 3 5 5 3 1 0

GFSMA_prec_cloud_021.txt.gz
Cloud_Cover
0 0 0 0 0 0 51 1 11 0 0 0 19 0 0 72 6 5 0 0 0 8 100 100 100 100 100 100 100 100 100 100 81 43 5 4 5 5 2 5 5 14 98
0 0 0 0 0 0 16 1 10 45 88 54 96 3 5 13 5 0 0 5 0 1 2 19 94 100 100 100 88 100 100 100 93 59 7 7 6 7 5 5 6 5 7
0 2 0 0 0 0 0 0 0 2 97 18 25 0 1 23 63 3 2 1 31 11 0 0 0 3 20 98 100 100 100 100 99 100 99 76 100 63 5 5 5 5 5
1 8 4 0 0 0 1 1 0 0 0 88 78 0 7 88 7 0 0 0 2 3 5 1 0 0 0 0 7 55 100 100 100 100 100 100 100 98 100 41 20 35 16
0 0 0 0 0 0 0 21 0 0 0 0 0 0 0 4 100 0 0 0 0 20 14 11 4 0 0 0 1 2 36 100 100 100 100 100 100 100 100 100 96 98 88
0 0 0 0 0 0 0 0 0 0 0 0 0 0 3 2 10 0 0 0 0 0 0 0 1 2 14 2 0 0 4 12 100 100 100 100 100 100 100 100 100 100 100
0 0 0 0 0 0 0 0 0 0 0 0 0 0 0 0 0 0 2 0 0 0 0 0 0 1 100 5 1 0 1 0 5 77 100 100 100 100 100 100 100 100 100
0 0 0 0 0 0 0 0 0 0 0 0 0 0 0 0 0 0 0 31 43 5 3 3 5 2 5 5 6 5 2 2 0 0 35 100 100 100 100 100 100 100 100
0 7 13 0 0 0 0 0 0 0 0 0 0 0 0 0 0 0 0 76 2 5 15 23 46 79 78 9 19 29 7 29 0 1 0 2 86 100 100 100 100 100 100
5 0 0 0 0 7 0 1 0 0 0 0 0 0 0 0 0 0 0 0 0 1 3 0 44 100 98 100 100 100 100 76 5 21 5 5 0 38 100 100 100 100 100
0 0 0 0 0 0 0 0 0 0 0 2 5 5 0 0 0 5 5 0 0 0 0 0 0 18 42 44 100 100 100 100 100 100 100 88 24 5 9 100 100 100 100
7 0 0 0 0 0 0 0 0 0 0 5 0 5 5 5 2 5 5 3 0 0 0 0 0 1 5 43 89 100 100 100 100 100 100 100 100 97 100 79 97 100 100
11 1 0 2 0 0 0 0 0 0 0 3 5 5 5 4 0 0 0 2 0 0 0 0 0 0 0 3 6 74 100 100 100 100 100 100 100 100 100 100 100 98 100
0 0 0 0 0 0 0 0 0 0 0 0 7 5 7 5 5 0 0 5 5 2 0 1 4 4 0 0 0 4 9 84 74 100 100 100 100 100 100 100 100 95 100
0 0 0 0 0 0 0 0 5 5 4 0 0 76 55 4 5 5 0 1 5 5 6 76 82 5 5 5 3 3 0 1 5 5 3 54 100 100 100 100 100 100 100
0 0 0 0 0 0 0 0 1 5 5 2 1 100 54 5 4 5 1 0 4 5 18 5 5 5 56 44 5 5 5 5 5 2 0 2 22 100 100 100 100 100 100
0 0 0 0 0 0 0 0 0 0 2 4 25 92 6 5 11 4 0 0 14 5 5 5 5 5 5 5 5 5 5 5 5 5 5 5 4 1 4 95 100 100 100
0 0 0 0 0 0 0 0 0 0 5 4 8 68 5 10 18 5 9 0 2 31 5 5 5 5 9 8 5 5 5 79 5 5 5 13 5 27 49 5 6 68 5
0 0 0 0 0 0 0 0 0 0 3 71 100 100 77 16 58 49 88 55 99 81 8 13 89 14 5 6 7 5 6 8 16 16 80 99 100 92 81 5 5 5 5
0 0 0 0 0 0 0 0 0 0 31 100 100 100 100 100 100 32 98 87 55 9 98 34 98 30 64 18 28 76 32 15 92 14 9 21 98 100 98 3 0 0 5
0 0 0 0 0 0 0 0 0 0 6 98 100 100 100 100 100 53 75 70 17 92 35 28 63 93 100 100 100 100 100 100 100 96 67 50 27 26 5 1 0 0 0
0 0 0 0 0 0 0 0 0 2 5 78 100 100 100 100 100 22 98 100 63 33 29 68 5 25 99 100 100 100 100 100 100 100 45 9 62 10 99 96 5 0 0
0 3 0 0 0 0 0 5 27 95 80 100 100 100 100 100 52 18 92 86 37 67 24 87 20 18 86 100 100 100 94 70 96 94 5 11 4 1 8 5 4 0 0
13 32 1 0 0 0 0 4 50 100 100 100 100 100 100 100 90 9 33 63 96 63 30 100 30 100 100 100 100 98 100 39 90 47 86 34 2 3 73 100 100 86 2
26 42 33 0 0 0 19 37 94 100 100 100 100 100 100 100 76 40 95 100 100 35 59 61 42 100 100 25 26 57 40 87 93 80 6 0 0 56 100 100 98 6 5
89 67 36 17 12 7 62 84 100 100 100 100 100 100 100 100 100 100 100 100 86 44 90 45 12 87 5 66 14 11 0 0 0 0 0 0 4 6 46 99 57 11 5

GFSMA_prec_cloud_024.txt.gz
Cloud_Cover
0 0 0 0 0 0 8 0 4 6 32 64 43 25 0 70 0 0 1 0 1 6 69 89 100 100 97 47 100 70 99 92 60 98 78 14 13 7 56 5 5 5 15
0 0 0 0 0 0 35 5 45 44 99 84 64 70 0 0 0 0 0 0 4 5 5 1 27 87 100 100 98 100 100 100 90 94 73 96 50 84 90 13 5 5 6
0 0 0 0 0 0 1 53 5 0 0 54 100 5 0 87 51 0 0 0 0 0 0 0 2 1 1 1 10 55 100 100 100 100 100 100 100 100 56 87 19 20 86
0 0 0 0 0 0 0 0 0 0 0 90 63 6 0 54 35 0 0 0 0 0 0 2 5 1 3 7 36 6 71 100 100 100 100 100 100 100 100 100 96 67 65
0 0 0 0 0 0 0 0 0 0 0 11 10 0 0 14 100 0 0 0 0 16 0 0 0 0 5 1 0 7 98 39 100 100 100 100 100 100 100 100 100 100 96
0 0 0 0 0 0 0 0 0 0 0 0 0 0 0 0 0 0 0 0 0 0 0 0 0 0 4 3 2 0 2 2 33 100 100 100 100 100 100 100 100 100 100
0 0 0 0 0 0 0 0 0 0 0 0 0 0 0 0 3 0 0 0 0 0 3 0 0 0 90 5 0 2 0 0 0 0 14 100 100 100 100 100 100 100 100
0 0 0 0 0 0 0 0 0 0 0 0 2 1 0 0 0 0 0 0 0 2 5 3 1 2 5 6 5 5 2 5 5 2 0 6 100 100 100 100 100 100 100
0 0 0 0 0 0 0 0 0 0 0 1 5 1 5 3 0 0 0 0 1 4 3 5 4 0 1 5 9 96 82 77 6 51 48 1 1 78 100 100 100 100 100
0 0 0 0 0 0 0 0 0 0 0 0 2 5 9 15 5 1 3 0 0 0 0 0 0 0 0 0 2 6 98 100 100 72 5 37 92 10 18 99 100 100 100
0 0 0 0 0 0 0 0 0 0 0 0 0 2 5 69 17 5 5 2 0 0 0 0 0 0 0 0 0 5 5 94 100 100 100 57 5 97 100 8 18 100 100
0 0 0 0 0 0 0 0 0 0 0 1 3 5 62 83 12 5 5 7 42 65 0 0 0 0 0 0 0 0 1 5 35 100 100 100 100 98 94 100 100 60 100
13 0 0 0 0 0 0 0 0 0 0 0 0 4 12 85 100 96 86 81 31 35 33 0 0 0 0 0 0 0 0 0 0 85 100 100 100 100 100 100 100 100 100
0 0 0 0 0 0 0 0 0 0 0 0 0 0 16 96 42 22 61 45 14 5 5 5 5 5 0 5 4 0 0 0 0 0 0 99 99 69 100 100 100 100 100
0 0 0 0 0 0 0 0 0 0 0 0 0 0 4 32 41 55 64 96 100 100 62 5 5 5 5 5 5 5 5 4 3 1 0 0 1 5 97 51 100 100 100
0 0 0 0 0 0 0 0 0 0 0 2 4 1 6 90 14 8 57 63 100 69 57 5 5 5 5 5 62 44 5 5 5 5 5 3 0 6 54 15 28 17 94
0 0 0 0 0 0 0 0 0 0 0 0 0 0 3 27 42 28 77 90 88 69 13 5 12 5 5 5 5 5 5 5 5 5 5 5 4 4 93 66 6 6 5
0 0 0 0 0 0 0 0 0 0 0 0 0 5 10 96 97 99 100 17 77 6 5 17 5 5 5 5 5 5 5 17 92 44 5 5 3 5 91 5 5 33 3
0 0 0 0 0 0 0 0 0 0 0 0 2 5 94 100 100 100 99 95 14 31 5 97 14 5 5 5 25 53 25 36 5 66 100 100 99 100 87 5 5 46 100
0 0 0 0 0 0 0 0 0 0 0 0 1 5 68 100 100 100 100 68 37 57 100 54 90 5 15 29 11 13 94 100 60 98 75 100 100 100 100 100 100 100 100
0 0 0 0 0 0 0 0 0 0 1 1 5 71 97 100 100 100 100 99 34 99 100 19 33 53 32 24 6 12 99 100 100 98 87 99 69 84 100 5 4 23 61
0 0 0 0 0 0 0 0 0 2 5 5 5 42 100 100 100 73 100 58 100 100 100 99 11 52 77 29 46 90 100 100 100 100 42 100 99 100 100 8 56 5 5
0 0 0 0 0 0 0 0 0 6 7 5 5 41 85 100 83 100 100 100 100 100 100 100 100 99 99 100 13 87 100 100 100 99 94 16 79 7 1 1 0 3 2
0 0 1 0 0 0 0 0 5 7 5 5 16 60 100 96 100 100 100 100 100 100 100 100 100 58 80 29 5 4 10 31 32 3 12 72 0 0 0 0 0 0 0
0 0 2 18 0 0 6 2 2 5 14 5 49 100 100 95 100 100 100 100 100 96 100 100 100 90 89 27 12 73 98 98 34 0 2 0 0 0 0 0 0 0 0
60 48 54 13 2 5 57 11 7 16 71 72 100 100 100 96 100 100 100 100 8 56 100 100 65 12 3 10 34 5 1 0 0 0 0 0 0 0 0 0 0 0 0

GFSMA_prec_cloud_027.txt.gz
Cloud_Cover
0 0 0 0 0 0 0 0 6 0 78 86 100 1 0 0 0 0 0 0 0 3 54 100 100 100 76 54 35 99 91 100 93 91 55 13 18 22 10 13 5 5 5
0 0 0 0 0 0 0 42 2 19 95 81 98 42 0 0 0 0 0 0 0 0 2 52 22 33 4 6 5 50 100 100 89 61 67 66 80 44 39 66 41 5 5
0 0 0 0 0 0 0 73 88 11 0 72 33 26 0 42 0 0 0 0 0 0 0 0 0 4 5 3 4 79 98 76 100 94 99 70 100 100 100 45 100 61 11
0 0 0 0 0 0 0 0 0 0 0 73 30 91 0 16 68 0 0 0 0 0 0 0 0 0 0 3 13 7 82 100 84 100 100 100 100 100 100 100 100 100 82
0 0 0 0 0 0 0 0 0 0 0 10 49 8 0 6 100 0 0 0 0 0 0 0 0 0 0 0 7 94 6 3 42 100 100 100 100 100 100 100 100 100 100
0 0 0 0 0 0 0 0 0 0 0 0 4 3 0 36 0 1 0 0 0 0 0 0 0 0 3 4 5 5 4 0 3 61 23 100 100 100 100 100 100 100 100
0 0 0 0 0 0 0 0 0 0 0 0 5 5 5 0 0 1 0 0 0 0 0 0 0 0 0 1 5 35 50 5 5 5 1 26 35 100 100 100 100 100 100
0 0 0 0 0 0 0 0 0 0 0 0 0 5 27 7 5 5 5 5 5 4 0 0 0 0 0 0 0 0 4 10 89 19 5 8 1 50 100 100 100 100 100
0 0 0 0 0 0 0 0 0 0 0 0 0 20 59 50 20 5 5 8 5 5 5 5 2 0 0 0 0 0 0 5 83 95 91 100 88 4 18 100 100 100 100
0 0 0 0 0 0 0 0 0 0 0 0 0 4 19 61 82 67 27 87 45 10 92 100 100 44 1 0 0 0 0 3 6 82 100 100 40 12 100 46 94 100 100
0 0 0 0 0 0 0 0 0 0 0 0 0 0 0 0 5 11 13 14 8 27 64 90 98 100 7 0 0 0 0 0 1 5 22 100 100 86 88 100 87 70 100
0 0 0 0 0 0 0 0 0 0 0 0 0 0 0 0 6 55 37 74 76 100 100 86 77 59 17 0 0 0 0 0 0 0 4 6 75 100 100 100 100 100 100
0 0 0 0 0 0 0 0 0 0 0 0 0 0 0 0 0 29 74 40 95 100 100 98 53 5 7 0 0 0 0 0 0 0 3 0 2 16 92 94 100 100 100
0 0 0 0 0 0 0 0 0 0 0 0 0 0 0 0 2 19 71 70 19 27 93 5 4 4 5 2 5 0 0 0 0 0 2 2 3 0 0 57 100 100 100
0 0 0 0 0 0 0 0 0 0 0 0 0 0 0 0 0 3 6 6 50 49 33 6 4 5 5 3 0 0 4 5 3 1 2 5 5 0 0 1 5 14 99
0 0 0 0 0 0 0 0 0 0 0 0 0 0 0 2 5 14 11 10 19 0 44 97 5 5 5 4 4 1 2 4 5 5 5 5 3 0 0 0 0 5 77
0 0 0 0 0 0 0 0 0 0 0 0 0 0 5 5 5 5 5 0 5 9 63 71 5 90 49 5 9 45 5 5 5 5 5 5 5 4 2 2 1 4 3
0 0 0 0 0 0 0 0 0 0 0 0 0 0 1 4 8 71 63 11 11 2 6 5 88 100 100 97 99 95 5 7 54 12 5 5 5 5 7 100 100 100 98
2 0 0 0 0 0 0 0 0 0 0 0 0 0 5 42 63 68 46 100 51 4 100 100 100 100 77 99 82 46 90 9 16 34 25 42 9 5 54 99 100 100 100
23 3 0 0 0 0 0 0 0 0 0 0 0 6 56 74 38 86 100 53 11 94 83 46 99 93 74 63 74 90 100 83 5 7 71 55 51 93 100 100 100 100 90
1 0 0 0 0 0 0 0 0 0 0 0 5 96 83 10 5 5 70 27 20 100 100 100 92 100 98 100 100 100 88 33 10 52 96 99 79 100 100 99 100 100 100
0 0 0 0 0 0 0 0 0 0 0 5 5 14 8 5 5 5 100 21 95 100 100 99 10 100 100 99 100 100 92 92 13 50 80 27 82 60 26 5 40 100 100
0 0 0 0 0 0 0 0 0 0 0 4 5 3 5 86 35 73 98 65 38 8 73 5 16 99 100 100 100 100 71 6 33 30 5 5 4 0 0 0 0 0 0
5 0 0 0 0 0 0 0 0 0 10 44 5 3 16 70 70 81 97 5 51 100 66 26 5 69 100 100 100 100 43 12 10 2 28 2 0 0 0 0 0 0 0
6 0 0 0 0 0 0 0 0 0 60 12 32 5 79 100 99 100 98 30 71 95 91 52 8 100 100 100 100 93 5 6 2 14 2 0 0 0 0 0 0 0 0
14 93 17 4 1 0 30 0 16 93 87 6 42 59 99 100 100 99 100 86 60 51 52 33 78 100 100 100 100 54 5 5 0 0 0 0 0 0 0 0 0 0 0

GFSMA_prec_cloud_030.txt.gz
Cloud_Cover
15 32 21 28 10 26 88 55 19 62 5 100 34 17 60 14 28 50 0 0 0 5 25 5 6 5 4 6 5 33 100 100 97 84 90 95 72 59 6 5 29 5 5
0 36 21 55 84 72 100 18 7 57 0 50 52 7 20 59 3 16 20 1 0 0 0 2 3 5 5 6 32 100 100 100 100 96 100 85 100 100 86 43 14 28 5
0 100 34 50 60 34 0 3 2 35 100 25 2 0 44 54 49 1 53 91 30 0 0 0 0 0 1 5 13 57 47 100 100 100 100 100 98 92 100 100 100 100 100
0 2 0 0 29 23 0 58 6 6 7 46 9 0 9 77 22 4 46 87 70 88 0 0 0 0 0 0 4 68 100 5 5 65 100 100 100 99 100 100 100 100 100
0 0 56 83 6 63 29 8 62 3 5 17 60 8 12 40 6 14 22 23 21 56 97 0 0 0 0 0 0 5 4 35 48 3 45 100 100 100 100 99 95 100 100
0 0 15 1 0 66 95 57 2 0 2 6 26 94 66 79 66 68 10 7 31 41 97 99 33 62 0 0 0 0 0 5 5 3 0 1 6 88 100 100 100 100 100
0 0 5 0 5 22 8 6 15 1 0 19 7 5 5 34 44 42 57 49 27 48 5 7 100 55 52 5 1 0 0 0 0 5 5 5 5 5 95 100 100 100 100
0 0 30 13 4 40 0 10 0 2 0 0 0 3 9 5 5 8 8 17 15 55 49 9 16 96 8 96 15 0 0 0 0 4 62 42 60 26 2 91 100 100 100
0 0 4 0 8 0 52 4 5 0 0 0 0 4 4 19 3 38 20 25 7 93 80 54 100 100 96 66 5 0 0 0 0 0 4 54 100 99 99 12 25 100 100
0 0 0 0 0 0 18 1 22 0 0 0 0 0 0 0 42 68 90 82 53 30 63 50 55 100 100 72 5 4 0 0 0 0 0 2 6 88 100 100 81 18 100
0 0 0 0 0 0 4 2 5 0 0 0 0 0 0 0 0 2 98 25 50 56 6 26 95 100 100 99 8 5 0 0 0 0 0 0 0 9 20 97 97 100 46
0 0 0 0 0 0 0 32 34 0 0 0 0 0 0 0 1 5 5 9 15 31 2 91 100 100 94 69 14 3 0 0 2 0 0 0 0 0 0 38 93 68 100
0 0 0 0 0 0 0 5 41 2 0 0 0 0 0 0 5 5 10 5 3 34 100 100 100 100 100 68 37 2 3 2 2 0 0 0 0 0 0 0 0 1 42
0 0 0 0 0 0 0 1 7 0 0 0 0 0 0 0 5 66 5 5 0 100 100 99 17 24 8 7 6 5 5 5 3 2 3 3 4 5 4 0 0 0 0
0 0 0 0 0 0 0 0 0 0 0 0 0 0 0 4 5 71 6 2 26 100 100 12 5 5 15 5 44 47 12 5 7 5 5 5 5 5 5 5 5 4 1
0 0 0 0 0 0 0 0 0 0 0 0 0 0 0 5 37 34 5 0 82 96 31 9 4 4 4 5 88 17 28 73 12 9 45 57 5 5 5 5 5 4 40
87 0 0 0 0 0 0 0 0 0 0 0 0 0 0 5 5 5 4 0 52 5 68 17 5 5 13 89 100 73 77 100 7 8 12 9 5 5 5 5 5 5 5
99 13 0 4 5 5 5 2 0 0 0 0 0 0 2 5 5 5 5 5 17 48 29 5 1 5 25 100 100 72 100 55 11 99 38 5 5 5 5 5 6 40 66
4 5 5 5 5 5 4 0 0 0 0 0 0 0 0 5 4 2 77 4 7 9 4 0 5 5 45 100 94 96 100 77 9 40 46 54 5 5 5 6 25 69 100
5 4 14 5 4 0 0 0 0 0 0 0 0 0 0 3 0 5 5 5 4 4 2 0 4 2 1 100 48 93 98 65 100 33 98 94 23 5 85 66 86 96 100
0 0 0 0 0 0 0 0 0 0 0 0 2 0 0 0 68 5 5 5 8 5 5 0 3 4 5 22 22 100 86 42 100 98 43 100 5 12 21 4 1 0 0
0 0 0 0 0 0 0 0 0 0 0 0 0 0 0 45 46 6 6 9 33 13 0 28 54 50 22 5 90 100 72 100 98 100 70 37 100 66 34 37 82 11 0
0 0 0 0 0 0 0 0 0 0 0 0 0 0 2 59 76 5 5 6 5 30 49 5 37 4 95 6 100 98 98 96 86 88 36 15 53 38 0 2 0 0 0
0 5 24 5 0 0 0 0 0 0 0 0 0 1 14 14 14 100 100 6 20 33 15 43 70 79 57 87 98 98 100 100 100 100 98 35 49 0 0 0 0 0 0
4 2 6 22 5 1 2 4 3 6 94 100 4 0 18 71 100 100 100 100 100 100 100 97 100 100 99 71 100 100 100 100 100 100 100 56 90 59 0 0 0 0 0
2 1 0 4 98 100 100 100 5 1 0 5 5 5 94 100 75 89 100 100 100 100 100 100 100 100 100 59 39 100 100 100 100 100 100 95 86 23 3 0 0 0 0

GFSMA_prec_cloud_033.txt.gz
Cloud_Cover
15 47 35 100 55 99 45 66 48 32 0 65 22 94 56 49 36 98 0 0 3 5 5 5 4 0 0 2 45 100 100 100 99 100 100 100 96 5 72 14 5 5 5
9 100 69 100 96 83 100 20 3 36 99 27 26 0 59 46 77 86 41 0 0 1 0 2 1 5 4 2 4 6 39 100 100 100 100 100 98 94 20 100 100 47 93
0 10 70 64 95 98 4 34 45 59 46 94 74 87 97 85 48 100 100 98 5 5 4 5 0 1 1 5 5 3 56 100 100 100 100 100 100 100 80 62 100 100 100
0 10 19 43 97 59 23 100 38 8 94 56 64 79 88 98 58 70 81 97 87 100 91 44 8 5 4 4 2 2 2 0 7 78 81 100 100 100 100 100 100 100 100
0 7 34 91 32 29 95 35 97 40 4 8 58 36 57 99 100 100 100 100 88 100 100 100 100 100 53 2 0 0 0 0 0 0 0 3 98 100 100 100 100 100 100
0 0 56 9 0 83 89 51 12 0 19 1 43 2 87 54 96 77 64 100 99 80 96 100 97 91 63 86 2 0 0 0 0 0 1 3 5 3 43 100 100 100 100
0 0 67 40 0 4 1 0 0 8 87 0 12 0 10 5 14 60 62 98 78 100 99 100 100 73 52 60 5 0 0 0 0 0 0 5 5 19 58 5 97 100 100
1 35 1 61 14 90 0 0 0 99 2 0 44 5 27 4 6 96 20 5 18 75 100 100 100 64 91 98 35 56 5 0 0 0 0 2 5 10 5 5 2 97 100
0 100 16 0 28 0 24 9 0 1 97 0 0 43 55 100 12 10 5 74 38 59 100 100 97 43 86 64 34 98 100 62 4 0 0 0 0 0 2 3 95 8 94
0 8 0 1 0 0 55 2 0 0 0 0 0 0 0 5 100 100 68 15 55 64 36 100 100 19 12 19 18 89 86 5 1 1 0 0 0 0 0 0 2 82 5
0 0 27 0 0 0 1 0 4 0 0 0 0 0 0 5 5 84 100 100 25 87 97 99 86 80 22 32 33 100 97 4 5 4 1 0 0 0 0 0 0 0 4
0 0 0 4 0 0 5 6 5 9 0 0 0 0 0 5 20 4 19 18 87 70 54 15 20 21 36 38 78 38 12 5 4 3 5 2 0 0 0 0 0 0 0
0 0 0 0 0 0 0 0 0 2 2 0 0 0 0 5 5 5 0 32 99 39 61 6 5 6 8 16 60 41 32 5 3 5 5 5 4 4 4 2 0 2 0
0 1 0 0 0 0 0 0 0 4 0 0 0 0 0 5 5 0 2 57 61 28 19 5 8 11 6 13 87 4 5 5 15 5 5 5 5 5 3 1 0 0 0
0 0 0 0 0 0 0 0 0 0 0 0 0 0 0 4 5 4 2 1 52 15 55 5 3 0 4 6 27 8 12 91 7 17 16 82 31 98 87 100 14 5 5
0 0 43 0 0 0 0 0 2 3 0 0 0 0 0 2 3 0 5 5 3 5 5 26 4 2 4 21 11 100 27 100 94 98 100 91 100 98 93 79 99 26 5
0 90 100 85 9 0 0 0 4 2 0 0 0 0 0 0 1 0 0 5 41 5 19 5 16 52 5 1 16 100 89 94 85 100 100 100 100 100 100 100 75 41 77
99 100 8 0 2 77 95 38 5 0 0 1 0 0 0 0 0 0 0 0 5 5 8 29 10 36 5 0 5 100 37 79 89 100 100 100 100 100 8 96 51 12 6
0 0 0 0 0 3 16 4 0 0 0 0 0 0 0 0 0 0 0 5 5 5 5 92 5 11 50 3 7 96 5 65 38 93 100 100 100 100 75 98 98 8 2
0 0 0 0 0 0 0 0 0 0 0 0 0 0 0 0 0 0 0 2 1 4 5 30 14 75 92 15 53 100 50 100 84 73 100 100 100 100 25 67 100 70 0
0 0 0 0 0 0 0 0 0 0 0 0 0 0 0 0 0 0 0 3 1 5 5 5 5 95 18 47 100 100 89 100 28 92 87 100 100 100 100 95 100 59 6
0 0 0 0 0 0 0 0 0 0 0 0 0 0 0 0 0 3 5 5 6 20 4 5 44 12 4 45 21 54 100 25 100 100 100 100 100 100 95 77 100 38 5
0 0 0 0 0 0 4 5 2 2 0 30 58 99 23 99 8 0 0 94 100 85 48 20 96 100 24 22 14 11 7 6 99 100 100 100 100 95 45 38 42 4 0
4 0 0 0 0 0 0 0 2 55 91 98 48 14 4 0 0 0 99 99 78 86 42 38 100 100 100 100 95 34 14 17 100 100 100 100 100 99 82 13 5 4 0
5 5 1 0 0 0 0 6 43 22 75 96 82 18 18 57 43 18 81 100 100 100 100 94 97 100 100 100 100 55 96 77 100 100 100 100 100 100 79 5 5 5 3
3 5 2 0 0 0 0 0 48 100 100 97 8 5 5 93 81 100 100 100 100 100 100 100 100 100 100 100 100 88 71 94 100 100 100 100 100 100 46 5 5 7 0

GFSMA_prec_cloud_036.txt.gz
Cloud_Cover
2 98 92 39 10 86 95 97 5 96 18 38 62 67 39 100 90 94 3 0 5 5 5 21 5 9 10 6 4 5 5 79 33 85 100 100 80 34 5 5 5 5 5
81 99 50 66 46 97 37 60 27 18 94 5 25 26 100 52 17 83 16 29 9 5 5 6 5 11 11 6 2 0 1 7 100 95 32 100 100 100 94 86 91 100 100
6 98 14 28 47 5 3 0 35 84 54 5 5 94 8 77 20 100 99 100 100 87 5 5 5 5 5 0 2 5 0 0 1 10 100 100 100 100 100 100 100 100 100
0 0 9 93 49 98 4 92 6 90 53 8 28 99 100 26 29 91 96 97 100 83 13 5 5 4 1 0 0 1 1 0 0 4 14 94 100 100 100 100 100 100 100
10 0 28 92 17 23 19 11 0 100 15 55 100 82 12 75 100 64 5 91 89 89 100 10 31 11 8 1 1 0 0 0 0 0 0 0 23 84 99 100 99 65 100
0 1 31 26 6 9 36 4 0 0 30 63 94 100 38 13 100 71 90 78 85 90 54 65 32 39 7 39 67 4 0 0 0 0 0 0 0 3 64 13 95 98 100
0 0 3 60 0 2 0 0 0 66 76 0 0 0 0 0 0 100 100 98 99 100 100 61 19 95 49 82 99 91 9 5 0 0 0 0 0 0 0 12 5 20 100
4 0 1 0 6 39 4 0 0 71 0 0 14 75 83 11 98 90 73 92 100 100 53 100 61 12 44 98 100 100 83 12 29 4 2 0 0 0 0 0 1 5 77
18 21 0 0 34 6 99 0 0 1 18 0 0 14 100 100 28 77 17 48 62 51 81 100 100 78 56 6 100 100 100 95 99 67 97 100 16 0 0 0 0 0 1
1 0 0 0 0 0 0 0 0 0 0 0 0 0 0 0 9 61 67 34 80 69 91 82 87 55 85 40 99 100 100 100 95 88 100 100 100 100 96 98 98 63 0
0 0 0 0 0 0 0 0 0 0 0 0 0 0 0 0 0 5 98 94 18 31 58 99 99 97 82 39 56 44 97 100 100 100 100 100 100 99 100 100 100 100 5
0 0 0 0 0 0 0 0 0 0 0 0 0 0 5 0 2 0 99 99 35 21 56 100 37 18 40 76 90 99 100 93 76 100 98 82 43 22 100 100 100 96 100
0 0 0 0 0 0 0 0 0 0 0 0 0 0 1 5 4 0 11 82 29 13 33 12 26 8 16 96 33 69 18 18 5 73 97 100 52 41 100 100 70 30 100
0 0 0 0 0 0 0 0 0 0 5 0 0 0 0 0 0 0 0 26 48 8 6 5 69 5 5 37 98 64 5 5 5 8 22 100 100 99 100 100 100 46 94
0 0 0 0 0 0 0 0 0 0 0 0 0 0 0 0 0 0 0 0 2 1 24 13 86 65 62 83 50 13 2 96 26 10 68 100 44 99 98 100 100 100 100
0 0 0 100 80 3 4 1 2 4 5 0 0 0 0 0 0 0 0 0 0 4 5 5 51 98 93 87 100 97 5 5 14 100 92 35 18 50 98 95 100 100 100
0 0 12 98 17 0 0 5 26 4 5 0 0 0 0 0 0 0 0 0 0 0 4 4 19 68 100 100 84 32 7 5 5 77 100 100 66 20 84 100 100 100 100
0 0 17 87 2 0 0 0 0 5 0 0 0 0 0 0 0 0 0 0 0 0 1 5 0 51 89 100 6 12 85 48 40 28 99 100 100 100 100 100 21 100 100
0 4 5 5 1 0 0 0 0 0 0 0 0 0 0 0 0 0 0 0 0 0 0 1 3 18 87 5 17 6 2 5 85 32 97 100 100 99 100 100 100 98 29
0 0 0 0 0 0 0 0 0 0 0 0 0 0 0 0 0 0 0 0 5 0 0 5 7 41 60 24 93 20 5 2 9 60 99 100 100 100 100 100 79 11 55
0 0 0 0 0 0 0 0 0 0 0 0 0 3 2 0 0 0 0 0 0 0 5 15 26 79 19 89 100 40 20 100 23 67 55 100 100 100 100 100 96 100 85
0 0 0 0 0 0 0 0 3 1 2 2 1 2 0 0 0 3 0 1 0 16 10 14 42 100 90 18 65 100 9 100 28 98 90 100 100 100 100 100 100 98 5
0 2 5 0 0 0 0 0 0 0 0 0 0 0 0 0 5 5 5 67 14 100 100 100 100 100 100 100 100 100 100 16 19 100 100 41 100 100 100 100 100 91 6
5 2 1 5 5 0 0 0 0 0 0 0 9 31 5 17 22 5 5 10 100 100 87 100 100 100 91 100 100 100 97 89 85 100 100 98 100 100 100 100 100 100 14
1 1 2 4 5 4 1 0 0 0 0 0 2 4 4 3 12 88 20 36 100 96 100 100 100 100 100 83 100 100 86 45 99 100 100 100 100 100 100 100 100 100 22
3 0 0 1 0 2 5 5 5 5 0 2 5 2 4 5 80 100 63 16 100 100 99 100 100 100 100 100 100 100 100 100 100 100 100 100 100 100 100 100 100 100 78

GFSMA_prec_cloud_039.txt.gz
Cloud_Cover
52 7 92 16 10 48 90 38 5 9 11 5 49 16 7 5 69 6 4 0 5 2 4 3 3 1 5 1 0 0 5 13 100 100 100 100 100 93 52 5 5 5 10
43 3 9 20 89 2 1 1 0 26 5 5 6 100 38 9 10 29 5 2 2 4 5 4 5 5 5 13 8 2 0 1 8 100 91 100 100 100 100 86 60 93 100
5 50 0 9 43 0 0 0 0 32 4 5 96 100 3 6 22 56 100 8 5 5 5 7 5 5 39 100 47 5 0 0 0 0 0 100 100 100 100 92 100 100 100
99 0 7 63 0 0 6 0 95 11 0 42 51 6 4 1 85 94 55 53 6 62 34 6 9 5 5 5 8 9 0 0 0 0 0 1 67 64 6 32 74 94 69
8 0 7 72 0 14 17 6 3 0 77 79 100 28 56 48 2 99 5 65 31 58 12 88 100 4 5 18 4 2 0 0 0 0 0 0 0 0 48 89 83 66 89
0 0 7 42 8 0 2 4 0 37 75 28 35 60 5 98 83 95 62 100 10 98 95 18 99 58 44 78 71 87 5 0 0 0 0 0 0 0 0 1 3 5 26
31 5 8 64 4 4 2 0 0 65 0 0 0 5 14 83 100 80 5 63 26 58 46 6 94 95 70 26 100 66 52 49 14 35 5 5 6 5 5 5 11 6 7
4 4 4 5 5 8 0 0 0 0 0 0 0 98 26 8 5 21 4 14 5 59 36 81 43 86 16 42 39 5 82 100 100 60 63 56 5 62 47 68 56 85 2
21 4 0 3 0 0 0 0 0 0 0 0 0 0 50 9 5 42 28 12 90 93 62 9 62 78 90 5 8 10 79 96 99 51 98 64 98 41 68 99 5 5 10
60 0 0 0 0 0 0 0 0 0 0 0 0 0 7 0 0 5 42 91 77 14 96 96 100 64 5 69 41 99 40 100 100 100 38 89 100 100 75 99 100 100 100
0 0 0 0 0 0 0 0 0 0 0 0 0 0 0 0 1 0 5 6 58 24 87 68 79 96 52 49 94 79 89 66 100 97 100 100 100 100 100 100 100 100 100
0 0 0 0 0 0 0 0 0 0 0 0 0 0 0 0 0 0 0 83 5 6 44 17 89 97 88 100 90 69 95 100 84 97 95 97 100 100 100 100 100 100 100
0 0 0 0 0 0 0 0 0 0 2 0 0 0 0 0 0 0 0 0 0 2 6 8 76 100 99 99 85 92 82 100 100 100 100 70 6 69 100 100 100 100 95
0 0 0 0 0 0 0 0 0 5 5 5 0 0 0 0 0 0 0 0 0 0 0 4 33 18 82 98 21 100 100 100 42 100 100 100 52 78 100 100 100 100 100
0 0 0 0 2 0 0 0 0 0 5 5 0 0 0 0 0 0 0 0 0 0 0 0 19 23 45 97 58 100 100 100 100 100 46 100 98 93 98 100 100 100 100
0 0 0 0 100 99 3 0 0 0 1 0 0 0 0 0 0 0 0 0 0 0 0 0 0 2 4 3 29 31 100 100 100 100 100 75 48 46 42 99 56 95 100
0 0 0 0 88 54 2 0 0 0 0 0 0 0 0 0 0 0 0 0 0 0 0 0 0 0 2 4 9 14 98 100 100 100 100 100 74 85 92 100 96 87 100
0 0 0 0 0 5 0 0 0 0 0 0 0 0 0 0 0 0 0 0 0 0 0 0 0 0 0 59 18 40 78 86 100 100 100 18 8 58 6 49 53 62 100
0 0 0 0 0 0 0 0 0 0 0 0 0 0 0 0 0 0 0 0 0 0 0 0 0 1 1 5 99 46 87 81 93 100 98 88 24 40 97 12 24 100 20
0 0 0 0 0 0 0 0 0 0 0 0 0 0 0 0 0 0 0 0 0 0 0 5 42 49 98 36 79 67 81 100 100 100 100 57 86 100 100 97 91 8 58
0 0 0 0 0 0 0 0 0 0 0 0 0 0 0 0 0 0 0 0 5 5 2 98 100 100 98 100 100 100 100 100 100 100 99 95 100 100 100 100 100 100 100
0 0 0 0 0 0 2 0 0 0 0 0 0 0 0 0 0 0 1 15 91 4 99 100 100 100 59 5 65 81 100 100 100 100 100 100 100 100 100 100 100 100 100
0 0 0 0 0 4 3 0 0 0 0 0 0 0 0 0 2 3 5 3 45 0 100 100 100 100 98 89 74 100 85 100 97 100 100 100 43 71 100 100 100 100 100
0 0 0 2 5 5 1 0 0 0 0 0 0 0 0 5 26 9 5 5 16 65 100 100 100 100 100 100 100 99 90 86 53 82 98 100 100 100 100 100 100 100 100
5 5 5 2 1 4 5 5 4 4 4 4 4 0 0 5 25 72 16 22 40 76 100 100 95 100 100 51 67 85 80 75 100 100 97 100 100 100 100 100 100 100 100
1 5 5 3 0 0 0 0 10 5 5 5 5 5 0 0 0 2 5 1 0 4 9 100 100 100 100 98 16 74 100 100 100 100 100 72 100 100 100 100 100 100 100

GFSMA_prec_cloud_042.txt.gz
Cloud_Cover
5 0 7 2 5 57 13 3 24 16 6 2 4 5 13 4 42 5 11 5 40 5 5 4 6 5 3 0 2 2 8 3 28 100 62 54 86 91 51 5 5 5 93
4 0 0 0 0 0 0 0 18 33 2 12 2 100 4 2 6 5 15 38 5 5 8 52 95 98 8 2 0 4 0 0 0 2 66 10 22 99 100 100 32 28 86
0 0 0 4 0 0 0 0 2 0 0 0 26 69 5 32 14 60 56 91 100 25 100 40 6 5 80 0 0 1 0 1 4 0 0 0 13 28 73 100 98 100 96
0 0 4 1 0 0 0 8 2 0 3 2 9 40 39 5 5 5 25 13 7 52 5 51 38 4 43 1 5 2 0 0 0 0 0 5 20 4 9 100 100 100 100
0 0 4 25 0 2 0 16 78 0 14 92 5 8 44 32 71 5 24 27 88 17 28 47 92 3 5 8 23 14 13 5 6 5 2 2 0 0 1 3 83 100 100
4 0 0 0 0 0 1 3 17 52 80 30 8 8 45 5 100 20 46 97 63 64 90 99 75 5 5 27 8 26 21 8 47 4 24 21 5 8 2 5 4 2 1
5 15 0 12 1 16 20 0 0 0 0 0 36 5 46 63 5 42 10 71 33 65 44 96 100 57 8 11 5 11 32 100 100 100 97 65 15 5 82 86 8 0 3
2 5 5 5 5 0 0 0 0 0 0 0 0 0 8 45 11 32 69 13 85 64 98 95 97 100 43 88 16 69 86 38 33 94 100 100 96 19 98 96 79 100 100
5 0 0 0 0 0 0 0 0 0 0 0 0 0 0 0 2 5 5 74 100 98 100 97 100 75 87 47 85 31 100 100 100 100 47 20 100 100 100 100 100 100 100
5 0 0 0 0 0 0 0 0 0 0 0 0 0 0 0 0 0 0 0 1 97 100 95 69 98 93 100 96 100 100 100 100 100 100 100 100 100 100 100 100 100 100
4 0 0 0 0 0 0 0 0 0 0 0 0 0 0 0 0 0 0 0 0 0 18 98 100 98 100 100 14 71 85 100 100 100 100 100 100 100 44 25 90 100 100
0 0 0 0 0 0 0 0 0 0 0 0 0 0 0 0 0 0 0 0 0 0 0 12 6 92 100 100 100 80 82 100 100 100 100 100 100 100 90 100 83 77 98
0 0 0 0 0 0 0 0 0 0 0 3 5 0 0 0 0 0 0 0 0 0 0 0 2 3 62 91 100 100 100 60 100 100 100 100 93 48 100 53 6 81 100
0 0 0 0 0 0 0 0 0 0 0 0 5 0 0 0 0 0 0 0 0 0 0 0 0 0 0 24 32 77 100 98 100 100 100 100 99 32 98 18 51 89 100
0 0 0 0 0 0 0 0 0 0 0 0 0 0 0 0 0 0 0 0 0 0 0 0 0 0 0 0 0 66 24 96 100 99 100 100 100 100 93 100 99 96 100
0 0 0 0 0 4 22 3 5 0 0 4 0 0 0 0 0 0 0 0 0 0 0 0 0 0 0 0 0 12 39 6 24 82 96 100 100 100 94 100 63 96 83
0 0 0 0 0 0 70 5 0 0 0 0 0 0 0 0 0 0 0 0 0 0 0 0 0 0 0 0 0 47 22 17 100 100 100 100 100 100 100 98 100 99 100
0 0 0 0 0 0 0 1 0 0 0 0 0 0 0 0 0 0 0 0 0 0 0 0 0 0 0 0 0 7 79 61 62 100 100 100 100 100 100 100 100 100 99
0 0 0 0 0 0 0 0 0 0 0 0 0 0 0 0 0 0 0 0 0 0 1 5 14 58 100 92 90 90 74 33 95 100 97 100 99 94 100 100 98 81 91
0 0 0 0 0 0 0 0 0 0 0 0 0 0 0 0 0 0 0 0 0 4 5 5 92 93 50 25 44 19 72 98 100 79 99 100 100 100 100 94 95 81 86
2 0 0 0 0 0 0 0 0 0 2 0 0 0 0 0 0 0 0 0 0 0 1 89 100 100 100 100 52 5 76 5 58 97 86 75 60 100 100 100 99 91 100
4 0 0 0 0 0 0 0 0 4 0 0 0 0 0 0 0 0 0 0 0 0 0 0 100 100 97 100 64 3 12 47 100 78 49 24 78 78 97 100 100 100 100
0 0 0 0 0 0 0 0 3 5 0 0 0 0 1 5 4 10 5 2 4 5 5 48 32 98 98 96 34 5 94 96 97 100 100 100 100 99 94 100 100 100 100
1 0 0 0 0 0 1 7 21 0 0 0 0 0 0 0 2 45 56 69 85 16 43 11 4 14 97 100 68 76 81 46 100 67 97 93 98 100 100 100 100 100 100
0 0 0 4 9 19 34 5 0 0 0 0 5 5 3 5 4 5 4 4 10 1 22 97 31 38 58 100 100 89 30 29 100 100 100 98 100 97 100 100 91 100 100
0 0 5 5 5 5 0 0 16 0 0 0 0 1 2 3 7 8 10 16 8 27 15 5 40 19 9 98 97 49 64 92 20 100 95 72 100 100 100 100 100 100 100

GFSMA_prec_cloud_045.txt.gz
Cloud_Cover
8 82 0 0 0 0 0 3 0 0 2 3 1 4 1 5 5 5 17 5 6 5 3 5 5 0 0 2 6 9 4 0 1 6 100 52 37 84 87 87 100 100 100
0 0 0 0 0 0 0 0 0 0 0 2 0 2 0 5 5 22 7 5 81 42 4 9 0 0 0 0 0 0 3 0 0 0 0 5 5 5 5 14 24 89 84
0 0 0 0 0 0 0 0 0 0 0 1 28 4 2 9 5 5 5 6 5 5 5 7 5 8 9 5 6 8 3 0 0 0 0 0 2 1 4 8 44 58 21
0 0 0 0 0 0 0 1 0 0 1 5 12 2 5 5 7 42 81 12 8 30 94 5 5 11 28 90 12 5 5 3 3 0 4 8 2 0 4 0 2 5 5
0 0 0 1 0 0 3 100 0 1 95 2 9 5 5 6 68 84 100 25 100 30 94 97 70 18 86 85 100 81 28 32 68 41 47 74 43 23 33 5 12 46 60
0 0 0 0 0 0 0 2 67 0 48 44 2 7 7 55 56 53 66 60 100 96 90 99 60 56 32 96 100 100 100 63 100 49 99 100 99 89 98 100 100 99 100
7 18 5 5 0 0 26 0 0 0 5 1 5 6 5 57 29 94 100 100 99 100 90 100 100 100 92 78 100 100 100 100 100 80 54 98 96 100 100 100 100 100 100
6 5 7 22 0 0 0 0 0 0 0 0 9 26 3 3 5 1 53 74 81 98 100 91 100 85 100 100 60 5 97 100 95 100 100 100 93 96 100 100 100 100 100
4 4 0 0 0 0 0 0 0 0 0 0 0 0 0 0 0 0 0 16 34 2 5 62 24 91 98 55 84 16 82 100 100 100 100 100 100 100 100 100 100 100 100
5 0 0 0 0 0 0 0 0 0 0 0 0 0 0 0 0 0 2 0 0 0 0 5 8 11 86 80 98 46 65 100 100 100 100 100 100 100 99 100 100 100 100
5 5 0 0 0 0 0 0 0 0 0 0 0 0 0 0 0 0 0 0 0 0 0 0 0 0 5 19 44 100 23 84 100 100 100 100 100 96 100 92 100 100 100
7 0 0 0 0 0 0 0 0 0 0 0 0 0 0 0 0 0 0 0 0 0 0 0 0 0 0 0 17 80 100 96 92 99 100 100 100 100 97 100 100 100 100
0 0 0 0 0 0 0 0 0 0 0 0 1 0 0 0 0 0 0 0 0 0 0 0 0 0 0 0 0 28 56 100 100 94 100 100 100 100 100 100 100 100 100
0 0 0 0 0 0 0 0 0 0 0 0 0 0 0 0 0 0 0 0 0 0 0 0 0 0 0 0 0 0 1 20 28 64 100 100 100 100 100 100 100 62 96
0 0 0 0 0 0 0 0 0 0 1 0 0 0 0 0 0 0 0 0 0 0 0 0 0 0 0 0 0 0 4 5 14 100 100 100 100 100 100 100 100 100 100
0 0 0 0 0 0 0 5 4 0 0 5 2 0 1 0 0 0 0 0 0 0 0 0 0 5 5 0 0 0 1 5 64 59 100 100 100 100 100 100 100 100 100
0 0 0 0 0 0 0 0 1 4 3 0 0 1 0 0 0 0 0 0 0 0 0 0 0 1 5 24 82 3 1 83 59 74 56 100 100 98 100 100 100 92 100
0 0 0 0 0 0 0 0 0 0 0 2 0 6 0 0 0 0 0 0 0 0 0 3 0 2 24 99 100 100 77 69 100 16 88 100 96 100 100 100 100 100 6
0 0 0 0 0 0 0 0 0 0 0 0 0 0 0 0 0 4 1 0 0 0 0 0 5 53 96 28 56 79 94 100 93 100 100 100 100 100 93 100 100 100 100
0 0 2 0 0 0 0 0 0 0 0 0 0 0 0 0 0 0 0 0 0 0 0 0 0 1 100 92 98 44 97 92 60 100 100 100 100 100 99 100 93 100 100
0 4 5 5 0 0 0 0 0 0 0 0 2 2 0 0 0 0 0 0 0 0 0 0 0 6 100 100 94 24 41 84 100 100 100 100 100 100 100 100 81 94 100
0 0 0 1 0 0 0 0 0 0 0 0 5 0 0 0 0 0 0 0 0 0 0 0 0 0 48 100 100 99 32 14 100 100 94 100 100 100 100 100 100 98 100
0 0 0 4 1 0 0 0 0 0 3 5 0 0 0 0 0 3 4 5 5 5 5 5 1 4 2 45 39 95 100 22 66 99 95 64 100 99 99 37 100 100 100
0 0 0 2 1 0 0 0 0 45 65 0 0 0 0 0 0 0 0 0 4 5 5 5 4 24 7 11 5 6 88 68 100 100 90 99 100 100 96 96 95 100 98
15 0 2 5 0 0 0 55 40 3 0 0 0 0 2 4 4 4 5 0 5 15 100 95 8 0 4 5 5 5 24 65 70 100 94 94 100 100 100 100 100 100 100
4 0 8 1 0 0 9 26 20 3 0 2 4 5 5 2 35 89 32 51 51 33 91 84 30 5 0 3 37 100 100 100 100 100 100 56 83 100 100 100 100 100 100

GFSMA_prec_cloud_048.txt.gz
Cloud_Cover
41 66 0 0 26 0 0 1 0 2 0 1 0 5 0 1 2 5 5 0 4 5 22 1 2 10 4 11 2 3 2 0 0 3 2 5 5 5 6 34 97 100 100
13 5 2 0 0 0 0 0 3 3 5 0 5 4 1 20 4 5 5 39 5 83 78 62 4 7 2 4 0 0 0 0 0 1 0 2 4 4 5 6 6 19 25
0 0 0 0 0 0 0 0 0 2 5 5 5 5 5 90 98 38 100 12 22 68 15 5 100 98 100 44 45 2 0 2 0 0 0 0 3 4 10 32 40 94 93
0 0 29 0 0 0 0 0 4 5 5 13 28 5 5 5 5 15 64 60 33 96 82 100 100 100 100 100 100 100 5 5 9 11 6 5 5 18 32 20 10 16 96
0 0 0 23 0 0 23 14 0 18 4 5 5 7 32 58 69 88 100 94 72 79 5 12 96 92 92 100 100 68 47 100 84 94 98 86 95 72 58 76 89 99 100
0 0 1 0 0 0 4 4 0 55 27 3 6 5 6 6 3 21 45 66 22 39 79 16 19 34 92 95 17 100 28 100 91 79 85 92 95 100 87 100 100 100 100
5 3 4 0 0 0 0 0 3 0 50 9 0 2 40 99 0 0 0 0 1 5 10 5 75 18 51 100 100 100 100 100 100 100 63 100 100 61 100 100 100 100 100
2 3 0 0 0 0 0 0 0 0 46 0 0 0 0 0 0 0 0 0 0 0 2 0 32 74 100 90 100 66 100 100 100 100 98 42 100 100 100 100 100 100 100
4 0 0 0 0 0 0 1 0 0 0 0 0 0 0 0 0 0 0 0 0 0 0 0 0 3 7 80 100 97 100 100 100 100 100 100 100 100 100 100 100 100 100
1 0 0 0 0 10 0 0 0 0 0 0 0 0 0 0 0 0 0 0 0 0 0 0 0 0 0 0 41 98 99 100 100 100 100 100 100 100 100 100 100 100 100
0 5 0 0 0 0 0 0 0 0 0 0 0 0 0 0 0 0 0 0 0 0 0 0 0 0 0 0 0 59 16 100 100 100 100 100 100 100 100 100 100 100 100
0 4 0 0 0 0 0 0 0 0 0 0 0 0 0 0 0 0 0 0 0 0 0 0 0 0 0 0 0 24 86 29 100 100 100 100 100 100 100 100 100 100 100
0 0 0 0 0 0 0 0 0 0 0 0 0 0 0 0 0 0 0 0 0 0 0 0 0 0 0 0 0 0 0 35 100 100 100 100 100 100 100 100 100 100 100
0 0 0 0 0 0 0 0 0 0 0 0 0 0 0 0 0 0 0 0 0 0 0 0 0 1 5 3 0 0 0 0 89 88 100 100 99 100 100 100 100 100 100
0 0 0 0 0 0 0 0 0 0 4 5 0 0 0 0 0 0 0 0 0 0 0 0 0 0 5 5 2 1 0 4 98 100 100 100 100 100 100 100 100 92 100
0 0 0 0 0 0 0 0 0 4 27 12 4 0 0 0 0 0 0 0 0 0 0 0 2 4 22 31 5 95 95 67 100 88 80 100 100 100 100 100 55 100 100
0 0 0 0 0 0 0 0 0 0 3 1 0 0 0 0 0 0 0 0 0 0 0 0 0 0 6 20 8 90 100 100 100 100 70 100 100 100 100 100 100 100 100
0 0 0 0 0 0 0 0 0 0 0 0 0 0 0 0 0 0 0 0 0 0 0 0 0 0 10 100 100 68 90 78 100 78 98 100 100 100 100 100 100 89 100
0 0 0 0 0 0 0 1 0 0 0 0 0 0 0 0 0 0 0 0 0 0 0 0 0 0 3 5 5 5 85 100 100 86 81 93 100 100 100 98 100 100 14
0 0 0 0 0 0 5 5 5 0 0 0 0 0 0 5 0 0 0 0 0 0 0 0 0 0 3 0 5 2 15 75 100 99 74 100 100 99 100 98 97 98 33
0 0 0 0 0 2 5 7 5 5 0 0 0 0 4 0 0 0 0 0 0 0 0 0 0 0 5 5 8 5 5 5 24 99 65 100 100 97 96 99 71 10 72
0 0 0 0 0 0 5 0 5 0 0 0 0 1 3 0 3 1 0 0 0 5 5 5 6 4 26 48 64 5 5 3 4 35 62 42 100 71 91 92 100 100 100
0 0 0 0 0 0 0 1 0 0 0 0 0 5 0 0 1 0 32 12 5 0 0 1 1 4 5 5 0 0 9 100 80 6 98 10 100 98 44 100 98 100 93
0 0 0 0 0 0 0 0 5 0 0 0 2 2 0 0 0 1 0 2 5 5 6 5 1 4 2 3 0 4 90 100 100 100 49 98 69 100 100 100 100 69 100
0 0 0 0 0 0 0 0 6 0 0 5 5 0 0 1 5 5 4 5 7 99 76 71 61 3 2 0 7 94 100 100 100 100 100 100 95 100 100 100 100 100 100
1 0 3 5 1 0 6 5 25 0 0 5 5 0 0 5 5 5 1 0 19 33 28 0 9 19 22 34 72 100 100 100 100 100 48 74 92 47 95 100 100 100 100

GFSMA_prec_cloud_051.txt.gz
Cloud_Cover
0 0 0 0 9 0 0 0 0 0 0 0 5 5 7 16 5 5 62 32 5 5 100 24 63 5 0 4 1 0 5 5 4 1 0 0 0 3 5 7 16 5 5
0 0 0 0 0 0 0 0 0 0 0 0 5 36 66 56 24 6 48 5 43 6 46 100 100 100 5 0 0 0 0 0 0 0 0 0 0 0 5 5 11 5 5
0 0 0 0 0 0 0 0 0 0 5 5 6 15 17 74 19 5 5 22 19 3 20 5 98 57 54 6 5 5 4 2 0 5 4 4 0 4 7 34 47 98 100
0 30 57 0 0 0 0 0 0 0 5 42 5 57 57 7 41 83 30 26 22 35 8 5 9 15 100 100 100 10 16 5 5 5 5 26 11 87 100 100 100 100 100
0 2 7 0 0 0 20 0 0 0 0 0 0 1 1 0 1 0 0 2 40 78 15 98 43 76 77 100 100 100 94 5 14 11 5 17 100 100 100 100 100 100 100
0 0 3 0 0 0 0 0 0 31 0 0 0 1 0 0 0 0 0 0 0 5 88 47 64 78 52 61 100 100 100 79 43 7 72 100 100 100 100 100 100 100 100
0 0 0 0 1 0 2 0 0 1 0 0 0 0 94 49 0 0 0 0 0 0 0 0 0 24 94 81 72 100 100 40 100 63 9 67 70 100 100 100 100 100 100
0 0 0 0 7 0 0 0 0 0 3 22 0 0 0 0 0 0 0 0 0 0 0 0 0 0 0 36 64 85 100 100 100 100 100 97 76 100 100 100 100 100 100
0 0 0 0 9 0 0 0 0 0 3 0 0 0 1 3 0 0 0 0 0 0 0 0 0 0 0 0 4 58 68 100 100 100 100 100 100 100 100 83 100 99 95
0 0 0 0 0 0 2 0 0 0 0 0 0 0 0 0 0 2 0 0 0 0 0 0 0 0 0 0 0 16 80 24 34 100 100 100 100 100 100 100 100 100 95
0 0 0 0 0 0 1 0 1 0 0 0 0 0 0 0 0 0 0 0 0 0 0 0 0 0 0 0 0 0 19 75 90 100 100 100 100 89 100 100 100 100 100
0 0 0 0 0 0 0 0 0 0 0 0 0 0 0 0 0 0 0 0 0 0 0 0 0 0 2 3 0 0 1 78 14 100 100 100 100 100 100 100 63 95 100
0 0 0 0 0 0 0 0 0 0 0 0 0 0 0 0 0 0 0 0 0 0 0 0 0 0 4 5 3 0 0 2 5 95 100 94 100 100 100 100 100 96 72
0 0 0 0 0 0 0 0 0 0 4 5 5 4 0 0 0 0 0 0 0 0 0 0 0 0 2 7 5 4 0 4 5 25 100 75 100 100 58 100 99 57 88
0 0 0 0 0 0 0 0 0 0 16 5 5 5 0 0 0 0 0 0 0 0 0 0 0 0 5 5 57 100 93 97 39 64 82 97 100 100 100 89 99 59 99
0 0 0 0 0 0 0 0 0 0 0 0 1 0 0 0 0 0 0 0 0 0 0 0 0 3 5 77 100 100 100 100 100 100 14 94 100 100 100 99 100 100 100
0 0 0 0 0 0 0 0 0 0 0 0 0 0 0 0 0 0 0 0 0 0 0 0 0 0 0 0 8 81 100 75 48 14 79 100 100 100 100 100 100 50 6
0 0 0 0 0 0 0 0 0 0 0 0 0 0 0 0 0 0 0 0 0 0 0 0 0 0 0 0 0 5 35 93 22 42 12 86 73 100 100 100 56 22 100
0 0 0 0 0 2 2 1 0 0 7 5 0 0 0 0 0 0 0 0 0 0 0 0 0 0 4 0 5 4 2 5 5 16 62 100 100 100 100 97 83 43 100
0 0 0 0 0 5 5 4 4 20 64 5 5 0 0 0 0 0 0 0 0 0 0 0 0 0 5 5 39 12 5 4 5 6 26 25 100 100 100 17 100 86 100
0 0 0 0 0 0 0 4 5 29 14 5 2 0 0 0 2 0 0 0 0 0 0 0 3 1 4 4 5 5 2 4 2 8 14 86 82 99 100 21 100 95 100
0 0 0 0 0 0 5 5 5 5 5 4 5 0 0 0 8 1 0 0 0 0 5 0 0 1 5 5 4 1 5 24 5 23 100 100 96 83 100 98 100 100 100
0 0 0 0 0 0 0 0 5 5 5 0 2 0 0 0 4 0 14 28 32 8 0 1 4 4 0 4 4 54 80 78 53 91 100 97 99 94 66 58 87 100 100
0 0 0 0 0 0 0 0 1 0 0 0 0 0 0 0 3 0 0 0 2 5 6 8 0 3 1 0 16 60 76 99 100 89 100 100 100 100 100 100 100 100 100
0 0 5 5 4 3 5 4 6 0 0 2 5 0 0 0 5 2 0 0 4 5 5 3 3 0 0 5 25 71 99 100 100 65 100 100 97 100 100 100 100 7 55
0 0 0 0 3 2 8 0 39 2 0 5 64 5 0 2 4 5 1 0 0 5 5 16 70 67 65 8 27 99 100 100 100 100 25 78 53 66 100 100 97 100 65

GFSMA_prec_cloud_054.txt.gz
Cloud_Cover
40 27 2 90 42 18 0 1 1 14 5 4 38 47 2 28 29 0 8 7 9 1 6 2 12 5 4 1 0 0 0 0 0 1 0 0 6 27 53 2 24 88 87
3 57 0 34 100 50 0 4 0 1 5 15 5 46 20 22 14 11 64 2 5 2 4 4 4 2 1 0 0 0 1 4 0 4 3 5 7 66 100 100 100 100 100
0 3 53 25 83 7 0 0 0 2 2 26 4 1 6 4 10 7 99 96 6 2 6 4 10 50 5 4 0 0 1 1 5 20 100 100 100 100 100 100 100 100 100
29 0 4 31 7 5 14 41 84 62 72 34 38 71 38 1 0 1 48 94 90 92 18 48 49 100 92 56 5 5 4 5 94 100 100 100 100 100 100 100 100 100 100
20 0 28 3 12 7 49 73 73 85 43 36 23 20 5 0 9 34 0 12 20 45 98 16 62 72 85 55 8 5 5 16 66 79 25 11 20 100 83 100 100 100 100
40 0 49 0 0 93 12 99 7 23 85 65 42 23 50 0 0 13 11 0 0 0 4 39 52 75 5 84 98 49 71 38 28 5 5 5 93 100 99 100 100 100 100
57 0 7 0 0 52 90 0 0 33 10 0 0 13 0 0 0 0 0 0 0 8 0 0 0 1 27 50 100 100 98 87 97 20 5 5 47 100 100 100 100 100 100
0 0 60 9 0 6 0 0 0 50 42 0 99 52 75 2 0 0 0 0 0 16 1 0 0 0 0 20 13 82 100 35 26 98 44 95 100 83 100 98 100 100 100
0 0 9 22 0 43 28 0 0 1 48 0 0 62 23 94 10 0 0 2 0 19 0 0 0 0 0 0 9 7 100 78 93 74 100 100 100 97 100 99 90 100 100
0 0 7 5 5 28 5 7 1 14 8 9 0 0 33 16 100 77 0 0 0 0 0 0 0 0 0 0 0 14 85 67 94 98 100 100 100 100 93 99 69 100 100
0 0 0 0 4 56 1 6 5 0 0 36 11 0 1 0 0 52 66 0 0 0 0 0 0 0 0 0 0 0 4 79 100 58 100 97 100 100 100 100 69 100 100
0 0 0 0 2 0 0 0 6 0 0 0 0 0 21 44 36 5 0 0 0 0 0 0 0 1 2 2 1 0 0 67 36 98 96 100 100 89 100 92 100 100 100
0 0 0 0 0 0 0 0 0 5 0 0 0 0 0 1 0 0 0 0 0 0 0 0 0 3 7 5 26 1 0 1 5 97 97 100 100 99 100 100 100 100 100
0 0 0 0 0 0 0 0 0 0 8 0 0 3 0 0 0 0 0 0 0 0 0 0 4 5 13 28 100 100 99 5 38 100 42 42 100 100 93 95 99 100 100
0 0 0 0 0 0 0 0 0 9 6 0 0 0 0 0 0 0 0 0 0 0 0 0 0 2 5 54 79 100 100 100 10 15 42 100 96 100 100 100 100 100 42
0 0 0 0 0 0 0 0 0 1 11 1 0 0 0 0 0 0 0 0 0 0 0 0 0 0 0 3 20 65 99 56 3 5 76 94 71 100 100 100 100 100 100
0 0 0 0 0 0 0 0 0 0 15 11 2 0 0 0 0 0 0 0 0 0 0 0 0 0 0 0 0 0 3 4 33 32 13 22 38 100 100 100 100 100 88
0 0 0 0 0 0 0 0 0 0 0 0 2 4 0 0 0 0 0 0 0 0 0 0 0 0 0 0 0 0 5 13 4 5 5 42 6 98 100 100 100 97 94
0 0 0 0 0 0 0 0 0 0 0 0 5 5 0 0 0 0 0 0 0 0 0 0 0 0 0 0 2 5 2 19 6 68 6 46 100 92 100 100 100 96 100
0 0 0 0 0 0 0 0 0 0 0 2 5 5 0 0 0 0 4 0 0 0 0 0 0 0 0 1 0 0 1 5 7 20 98 100 100 100 100 100 100 100 97
0 0 0 0 0 0 0 0 0 0 0 5 0 0 0 0 0 0 5 0 0 0 0 0 0 3 0 0 0 0 0 42 100 7 79 100 98 100 100 100 100 100 96
0 0 0 0 0 0 0 0 0 0 0 5 0 0 0 0 0 1 0 2 0 0 0 0 0 0 0 0 0 0 0 0 7 99 75 100 48 78 100 100 100 23 100
0 0 0 0 0 0 0 0 0 0 0 3 0 0 0 0 0 0 12 25 8 1 19 0 0 0 0 0 0 1 0 0 10 84 74 100 100 75 55 58 87 100 56
0 0 0 0 0 0 0 0 0 0 0 0 0 0 0 0 0 0 0 0 0 3 2 0 2 4 7 0 7 50 33 19 36 69 94 82 79 100 84 88 100 100 100
0 0 0 0 0 0 0 0 5 0 0 0 4 5 5 5 5 5 0 0 0 30 7 0 0 0 1 0 31 25 87 58 22 9 86 94 16 83 23 94 100 100 100
0 0 0 0 0 0 0 0 41 0 2 5 0 0 0 4 5 40 5 0 0 0 5 0 0 29 99 91 58 35 80 100 93 100 0 60 2 18 51 6 6 31 58

GFSMA_prec_cloud_057.txt.gz
Cloud_Cover
53 86 30 100 33 100 29 83 37 73 15 54 97 100 3 3 21 40 5 2 0 2 5 20 3 4 5 0 2 6 2 0 0 5 6 12 26 85 100 100 100 100 100
71 76 7 70 2 94 98 32 94 79 100 40 39 83 100 67 48 100 0 2 2 0 5 5 2 4 4 0 0 3 0 0 0 6 68 100 100 100 100 100 100 100 100
3 53 2 84 35 78 0 19 0 7 51 79 96 97 6 100 88 87 100 94 11 2 4 0 5 10 3 0 0 0 2 5 55 100 58 100 100 100 100 100 100 91 100
0 24 67 63 44 14 98 98 42 97 42 76 100 88 99 8 16 17 100 89 61 58 19 5 35 2 0 2 1 5 43 89 84 97 100 89 88 100 94 100 100 100 100
0 81 25 40 66 52 90 59 50 100 36 41 53 88 60 10 100 66 5 77 46 100 91 75 10 82 3 5 6 9 5 54 52 58 90 21 53 29 78 81 98 98 90
2 9 87 0 45 4 27 69 22 51 8 100 98 36 88 68 58 50 13 20 0 0 51 0 74 49 99 5 94 60 34 98 5 70 47 69 32 75 62 84 100 100 100
4 5 88 0 62 100 96 1 0 2 13 98 66 0 0 1 25 20 37 88 0 9 0 0 62 23 4 100 15 86 25 100 24 27 100 81 55 5 8 89 79 100 100
5 100 88 13 20 70 16 0 81 98 61 58 33 62 89 42 27 100 6 0 7 41 17 4 0 0 37 73 96 96 95 82 100 96 99 54 14 37 16 28 87 89 100
1 79 6 85 4 56 20 0 0 10 95 19 5 84 77 100 30 0 0 29 5 86 6 0 0 0 0 2 34 94 100 100 77 100 100 89 15 68 84 99 90 100 100
1 6 66 3 11 100 16 48 49 15 98 48 0 27 20 17 99 97 4 0 0 0 6 10 6 0 0 5 0 4 100 71 100 100 100 100 86 19 97 100 99 100 100
13 15 8 5 38 93 0 91 52 0 2 93 37 30 0 0 34 39 100 5 2 0 0 0 0 0 0 0 0 3 32 5 99 100 100 89 6 100 100 99 100 100 97
1 10 11 17 2 12 0 3 2 0 6 15 33 24 38 49 71 2 8 2 20 0 0 0 0 2 0 0 0 0 0 14 26 86 100 100 92 100 100 100 100 100 100
14 0 0 1 2 0 29 2 0 62 0 0 0 0 27 20 54 8 8 2 1 0 0 0 0 5 4 5 5 5 2 10 24 12 92 100 100 97 100 100 100 100 100
0 43 0 0 0 16 3 4 0 0 0 0 0 0 0 0 0 0 19 12 3 35 6 0 0 4 12 55 70 20 5 5 84 6 72 100 100 100 100 100 100 100 100
0 0 0 0 0 0 0 0 1 0 44 0 0 0 0 0 0 0 0 0 0 6 33 0 0 0 2 5 48 80 30 5 5 2 8 50 91 100 100 100 100 100 100
0 30 0 0 0 0 0 0 7 0 0 0 0 5 0 0 0 0 0 0 0 0 0 0 0 0 0 0 2 5 24 5 2 3 2 80 29 100 100 100 100 100 100
0 0 0 0 0 0 0 0 0 32 0 0 0 11 4 0 0 0 0 0 0 0 0 0 0 0 0 0 0 0 2 5 4 5 88 100 100 99 100 100 100 100 100
0 0 0 0 0 0 0 0 0 0 8 0 0 0 0 0 0 0 0 0 0 0 0 0 0 0 0 0 0 0 0 1 5 25 96 100 100 100 91 99 100 100 100
0 0 0 0 0 0 0 0 0 0 0 0 0 0 0 0 0 0 0 0 0 0 0 0 0 0 0 0 0 0 4 5 100 100 69 50 60 98 100 99 95 84 100
0 0 0 0 0 0 0 0 0 0 0 0 0 0 0 0 0 0 0 0 0 0 0 0 0 0 0 0 0 0 0 1 7 94 100 100 100 47 69 96 100 100 100
0 0 0 0 0 0 0 0 0 0 0 0 0 0 0 0 0 0 0 0 0 3 0 0 0 0 0 0 0 0 0 0 1 99 100 98 98 39 81 98 88 100 100
0 0 0 0 0 0 0 0 0 0 0 0 0 0 0 0 0 0 0 0 0 1 5 0 0 2 0 0 0 0 0 0 2 2 0 0 32 92 100 100 100 100 100
0 0 0 0 0 0 0 0 0 0 0 0 0 0 0 0 0 0 0 1 0 0 1 5 5 0 0 0 0 4 0 0 1 3 13 0 61 17 8 82 100 100 100
0 0 0 0 0 0 0 0 0 0 0 0 0 0 0 0 0 0 2 4 3 4 1 0 3 5 0 0 5 0 5 13 16 40 95 9 1 1 0 0 13 35 28
0 0 0 0 0 0 0 0 0 0 0 0 0 0 0 0 0 0 0 1 5 20 5 3 0 0 0 0 7 59 42 55 26 33 87 75 34 46 0 0 0 0 43
0 0 0 0 0 0 1 0 0 0 0 0 0 0 0 0 0 0 0 1 0 4 52 34 4 2 47 10 23 6 30 73 100 100 75 100 100 78 96 26 0 0 15

GFSMA_prec_cloud_060.txt.gz
Cloud_Cover
100 87 53 91 61 99 45 8 98 1 70 90 2 2 61 53 32 0 0 4 4 5 9 4 5 5 4 5 5 5 5 3 6 5 5 5 91 94 100 39 5 5 19
2 15 83 38 52 34 97 3 52 82 100 20 52 45 54 0 72 0 3 0 0 0 0 5 1 4 4 0 0 6 4 5 5 5 7 97 86 100 15 5 11 17 22
7 3 88 85 1 97 82 38 0 97 22 99 39 94 10 20 74 42 93 57 25 0 0 0 4 3 2 0 0 0 5 5 22 77 100 100 100 100 15 74 85 98 100
1 61 33 100 70 46 94 88 3 90 100 42 16 100 98 2 7 28 0 69 0 25 68 5 0 0 4 5 0 5 5 5 24 98 69 36 100 100 89 83 46 6 87
1 96 100 10 1 31 0 100 4 4 98 78 82 30 17 42 100 11 0 64 0 32 0 5 5 3 5 18 5 23 9 26 24 27 5 30 68 68 5 5 5 29 96
0 13 13 0 47 98 9 82 95 69 100 100 100 100 12 57 76 0 34 0 0 22 0 0 6 8 5 48 8 41 100 99 24 46 24 5 6 5 18 5 11 22 100
0 2 0 0 73 100 11 0 39 1 100 78 100 1 100 0 17 17 97 30 0 0 0 0 3 5 7 27 92 57 99 56 9 7 6 5 82 94 7 99 77 100 100
2 0 7 0 49 61 0 0 100 45 0 84 0 100 71 12 47 79 5 7 15 70 0 0 0 1 29 88 89 100 100 64 30 52 5 5 77 52 98 82 100 100 100
88 7 0 0 0 3 4 0 82 46 0 7 5 91 42 100 100 0 0 3 0 98 31 0 0 0 0 18 86 73 100 97 98 94 46 5 98 83 72 99 96 100 100
8 37 0 8 7 37 5 0 0 17 100 1 2 18 88 46 66 96 61 0 0 2 0 0 0 0 0 0 21 45 97 100 99 99 85 94 100 99 90 100 100 100 50
0 31 3 0 97 5 0 0 0 0 0 100 6 0 10 0 7 100 99 0 0 0 0 0 0 0 0 0 0 8 57 100 100 100 78 100 100 100 100 100 100 100 100
0 26 4 8 2 0 2 2 0 2 0 1 97 0 5 13 28 36 76 8 0 0 0 0 0 0 0 0 0 0 2 69 91 100 100 100 100 100 96 100 100 100 97
4 0 0 0 0 0 0 0 0 0 0 0 8 10 46 100 79 68 100 41 7 0 0 0 0 5 5 5 4 2 0 3 5 7 100 100 94 100 100 100 100 100 100
31 0 2 0 0 0 0 0 0 0 0 0 0 0 0 44 43 0 2 70 0 25 10 1 0 0 3 4 3 5 4 0 5 5 5 99 100 100 100 100 100 100 100
43 31 0 0 0 0 0 0 0 0 0 0 0 0 0 0 2 0 0 0 0 0 74 0 0 0 0 0 0 0 0 0 0 2 5 16 18 100 100 100 100 100 100
1 18 5 0 0 0 0 0 0 0 0 0 0 0 0 0 0 10 0 0 0 0 0 0 0 0 0 0 0 0 0 0 0 0 3 70 67 96 100 100 100 100 100
0 7 2 0 0 0 0 0 0 3 1 0 0 0 0 0 0 0 0 0 0 0 0 0 0 0 0 0 0 0 2 2 0 5 79 5 14 27 84 100 100 100 100
0 0 0 0 0 0 0 0 0 0 0 0 0 0 0 0 0 0 0 0 0 0 0 0 0 0 0 0 0 0 1 10 5 12 94 89 67 100 100 100 67 58 100
0 0 0 0 0 0 0 0 0 0 0 0 0 0 0 0 0 0 0 0 0 0 0 0 0 0 0 0 0 0 0 1 16 75 100 91 100 100 93 32 78 100 100
0 0 0 0 0 0 0 0 0 0 0 0 0 0 0 0 0 0 0 0 0 0 0 0 0 0 0 0 0 0 0 0 1 70 69 99 100 100 100 100 100 100 100
0 0 0 0 0 0 0 0 0 0 0 0 0 0 0 0 0 0 0 0 0 0 0 0 0 20 4 0 0 0 3 4 5 27 5 5 2 20 7 7 6 23 44
0 0 0 0 0 0 0 0 0 0 0 0 0 0 0 0 0 0 0 0 0 4 5 5 4 0 0 11 6 0 0 0 17 7 95 4 5 5 6 0 28 100 99
0 0 0 0 0 0 0 0 0 0 0 0 0 0 0 0 0 0 0 0 0 0 5 5 19 25 4 0 0 4 0 0 0 76 100 5 1 0 5 5 5 3 3
0 0 0 0 0 0 0 0 0 0 0 0 0 0 0 0 0 0 0 0 0 0 2 5 67 54 82 45 5 1 0 0 0 5 83 80 95 94 64 6 5 5 2
0 0 0 0 0 0 0 0 0 0 0 0 0 0 0 0 0 0 0 0 0 0 0 2 14 62 82 89 46 52 2 4 25 2 5 54 100 100 100 71 2 5 5
0 0 0 0 0 0 0 0 0 0 0 0 0 0 0 0 0 0 0 0 0 0 0 4 5 5 41 5 61 41 16 13 46 90 5 86 9 95 100 10 0 0 5

GFSMA_prec_cloud_063.txt.gz
Cloud_Cover
21 20 10 7 10 0 5 0 0 2 0 48 85 92 48 38 11 0 1 0 0 0 0 6 1 4 4 5 4 5 5 5 5 5 5 5 4 5 3 6 5 8 21
4 0 0 67 11 27 20 0 21 75 0 4 31 5 0 0 3 0 0 0 0 2 2 2 0 0 4 5 6 5 5 5 5 5 5 4 1 1 5 5 5 39 74
0 70 12 0 11 0 25 0 8 77 3 42 73 2 0 0 0 54 0 0 0 0 0 0 0 0 2 5 13 5 5 5 5 5 5 5 4 4 22 85 50 70 5
7 5 2 30 7 0 5 9 100 51 1 0 26 100 62 11 2 0 0 0 0 0 0 0 0 0 0 0 2 5 5 5 5 5 5 69 5 22 18 100 94 22 100
98 2 13 4 24 0 6 38 54 100 14 7 7 22 0 49 0 0 0 0 0 1 5 0 5 4 4 0 2 2 4 4 3 5 6 5 5 96 62 100 59 100 97
2 0 0 2 44 13 17 10 0 60 32 98 14 0 0 0 0 0 0 0 0 0 0 4 0 6 21 2 1 5 5 5 5 5 5 5 48 61 27 5 34 77 92
0 0 0 0 73 25 0 57 2 27 99 98 7 54 0 98 74 0 0 0 0 0 0 0 0 0 5 5 5 5 5 5 5 5 5 85 10 88 88 58 92 100 100
0 0 0 0 16 26 0 2 16 38 8 100 0 10 9 19 49 5 0 0 0 0 0 0 0 1 2 10 58 15 44 44 13 38 74 81 84 81 92 95 37 100 100
0 0 0 2 4 3 0 0 88 15 0 0 0 100 74 26 0 7 12 5 0 0 0 0 0 0 0 4 16 96 86 92 77 58 76 8 62 86 90 98 100 100 100
6 0 0 6 32 1 0 0 11 0 0 0 0 10 0 2 84 0 0 46 4 0 0 0 0 0 0 0 3 10 98 100 100 97 17 27 10 66 99 100 100 100 100
2 5 0 11 42 0 0 0 0 96 38 0 0 0 15 3 76 0 0 0 0 0 0 0 0 0 0 0 0 5 5 87 100 100 98 32 7 100 100 100 100 100 100
0 1 1 0 2 0 2 2 0 0 0 0 0 0 0 60 0 2 0 0 0 0 0 0 0 2 1 0 0 1 5 5 40 100 100 54 100 100 100 100 100 100 100
0 0 0 2 2 0 0 0 0 0 0 0 0 0 0 0 0 89 0 0 0 0 0 0 0 0 0 0 2 0 0 5 5 88 100 100 100 100 100 100 100 100 100
0 0 0 0 0 0 0 0 0 0 0 0 0 0 0 69 0 0 4 0 0 0 0 0 0 0 0 0 0 0 0 0 0 4 5 100 100 100 100 100 100 100 100
0 0 0 0 0 0 0 0 0 0 0 0 0 0 0 0 0 0 0 0 0 0 0 0 0 0 0 0 0 1 0 0 0 0 1 5 26 96 100 100 100 100 100
0 0 0 0 0 0 0 0 0 0 0 0 0 0 0 0 0 0 0 0 0 0 0 0 0 0 0 0 0 0 3 4 5 4 2 5 5 78 100 100 100 100 100
0 0 0 0 0 0 0 0 0 0 0 0 0 0 0 0 0 0 0 0 0 0 0 0 0 0 0 0 0 0 0 5 65 64 8 5 94 100 88 100 100 100 100
0 0 0 0 0 0 0 0 0 0 0 0 0 0 0 0 0 0 0 0 0 0 0 0 0 0 0 0 0 0 0 0 9 97 94 98 100 100 91 56 100 100 100
0 0 0 0 0 0 0 0 0 0 0 0 0 0 0 0 0 0 0 0 0 0 0 0 0 0 4 2 0 0 0 0 0 1 5 83 93 58 98 100 100 100 94
0 0 0 0 0 0 0 0 0 0 0 0 0 0 0 0 0 0 0 0 0 0 0 0 0 0 0 0 3 5 0 0 0 0 4 5 5 5 5 8 32 39 58
0 0 0 0 0 0 0 0 0 0 0 0 0 0 0 0 0 0 0 0 0 0 0 1 0 0 3 0 0 0 1 0 0 0 0 13 95 90 35 5 5 19 45
0 0 0 0 0 0 0 0 0 0 0 0 0 0 0 0 0 0 0 0 0 0 0 5 4 5 5 5 5 5 4 0 8 0 1 4 5 33 89 97 14 5 5
0 0 0 0 0 0 0 0 0 0 0 0 0 0 0 0 0 0 0 0 0 0 5 5 5 13 70 94 100 100 58 5 5 88 18 7 0 5 40 45 5 5 2
0 0 0 0 0 0 0 0 0 0 0 0 0 0 0 0 0 0 0 0 0 0 1 0 0 1 0 34 100 85 47 96 12 8 99 48 5 1 5 5 4 0 0
0 0 0 0 0 0 0 0 0 0 0 0 0 0 0 0 0 0 0 0 0 0 0 0 0 0 0 6 60 78 87 100 100 14 3 7 5 5 14 34 2 0 0
0 0 0 0 0 0 0 0 0 0 0 0 0 0 0 0 0 0 0 0 0 0 0 0 0 1 28 3 3 2 5 93 45 68 5 40 46 100 99 5 4 0 0

GFSMA_prec_cloud_066.txt.gz
Cloud_Cover
5 1 9 0 1 0 0 0 0 0 0 10 71 0 37 4 0 1 9 0 0 0 0 9 0 4 5 1 5 5 5 5 5 3 2 0 7 4 5 14 7 50 54
0 0 2 70 0 0 0 3 0 0 0 4 0 0 0 0 0 0 1 0 0 0 0 1 1 1 1 5 5 3 5 5 5 3 3 4 4 5 8 13 17 55 100
0 0 0 0 0 0 0 8 1 0 0 19 2 0 0 0 5 0 0 0 0 0 0 0 0 0 0 0 0 5 4 5 3 4 13 3 8 7 8 99 100 100 100
0 0 0 0 0 0 9 1 45 0 21 0 98 0 0 0 0 0 0 0 0 0 0 0 2 0 0 0 5 5 5 5 5 5 50 8 70 6 96 87 99 68 100
0 2 0 0 0 0 0 83 46 10 0 0 0 0 0 0 0 0 0 0 0 0 0 0 0 1 4 0 3 4 5 5 19 5 18 28 5 7 11 45 34 86 100
0 0 1 0 0 0 0 1 0 2 10 0 0 0 0 0 0 0 0 0 0 0 0 2 3 5 5 5 5 4 5 60 6 24 8 5 6 98 100 29 86 85 100
0 0 0 0 0 0 0 0 0 0 27 0 0 0 18 29 0 0 0 0 0 0 0 0 1 4 0 5 5 5 5 5 5 5 5 5 6 68 54 36 100 66 100
0 0 0 0 0 0 0 0 0 0 4 0 0 1 0 0 0 0 0 0 0 0 0 0 0 0 2 5 5 82 36 5 5 5 5 31 22 89 100 100 41 100 100
0 0 2 3 0 0 0 0 0 0 0 0 0 72 0 0 0 0 0 0 0 0 0 0 0 0 0 1 19 13 79 44 5 5 5 17 69 97 100 80 100 55 44
4 0 1 9 32 0 0 0 4 0 0 0 0 17 0 0 0 0 0 0 0 0 0 0 0 0 0 0 0 39 61 90 16 5 5 51 98 99 100 100 100 100 100
5 5 1 73 1 0 1 0 0 0 0 0 0 0 0 0 0 0 0 0 0 0 0 0 0 0 0 0 1 5 5 99 100 99 100 100 100 53 98 100 100 100 100
0 29 61 5 2 0 0 0 0 0 0 0 0 0 2 22 0 0 0 0 0 0 0 0 0 0 0 0 0 4 4 0 79 100 100 100 100 100 100 100 100 100 100
0 0 1 0 4 0 0 0 0 0 0 0 0 0 5 0 0 0 0 0 0 0 0 0 0 0 0 0 0 1 4 0 1 4 89 100 100 100 100 100 100 100 100
0 0 0 0 0 0 0 0 0 0 0 0 0 0 0 0 0 0 0 0 0 0 0 0 0 0 0 0 0 0 0 0 0 0 2 8 70 100 100 100 100 100 100
0 0 0 0 0 0 0 0 0 0 0 0 0 0 0 0 0 0 0 0 0 0 0 0 0 0 0 0 0 0 0 4 4 2 5 5 5 21 100 100 100 100 99
0 0 0 0 0 0 0 0 0 0 0 0 0 0 0 0 0 0 0 0 0 0 0 0 0 0 0 0 0 0 5 5 94 41 22 5 16 5 38 96 100 99 100
0 0 0 0 0 0 0 0 0 0 0 0 0 0 0 0 0 0 0 0 0 0 0 0 0 0 0 0 0 0 0 3 70 19 55 12 88 36 79 88 87 79 100
0 0 0 0 0 0 0 0 0 0 0 0 0 0 0 0 0 0 0 0 0 0 0 0 0 0 0 0 0 0 0 0 0 0 6 92 65 4 8 7 5 5 5
0 0 0 0 0 0 0 0 0 0 0 0 0 0 0 0 0 0 0 0 0 0 0 0 0 0 0 0 0 0 0 0 0 0 0 0 4 3 2 3 1 5 20
0 0 0 0 0 0 0 0 0 0 0 0 0 0 0 0 0 0 0 0 0 0 0 0 0 4 0 0 0 0 0 0 0 0 0 0 0 1 5 6 5 28 91
0 0 0 0 0 0 0 0 0 0 0 0 0 0 0 0 0 0 0 0 0 0 0 0 4 0 0 0 5 5 7 5 4 0 0 0 0 0 0 10 41 17 6
0 0 0 0 0 0 0 0 0 0 0 0 0 0 0 0 0 0 0 0 0 0 0 0 0 0 0 0 5 56 52 5 9 5 0 0 0 5 5 5 5 5 0
0 0 0 0 0 0 0 0 0 0 0 0 0 0 0 0 0 0 0 0 0 2 0 0 0 0 0 0 0 0 0 9 7 18 36 26 0 0 0 5 5 5 5
0 0 0 0 0 0 0 0 0 0 0 0 0 0 0 0 0 0 0 0 0 0 0 0 0 0 0 0 0 0 1 5 27 43 99 82 8 0 3 4 5 5 5
0 0 0 0 0 0 0 0 0 0 0 0 0 0 0 0 0 0 0 0 0 0 0 0 0 0 0 0 0 0 6 32 30 4 2 49 57 9 5 2 1 5 5
0 0 0 0 0 0 0 0 6 0 0 0 0 0 0 0 0 0 0 0 0 0 0 2 5 14 55 6 14 11 5 29 10 100 5 96 93 5 4 0 5 22 2

GFSMA_prec_cloud_069.txt.gz
Cloud_Cover
5 0 0 0 0 0 12 72 0 1 0 6 0 0 0 0 0 18 16 0 0 0 0 1 0 16 8 5 5 5 5 5 5 5 4 5 5 5 49 99 92 96 100
0 4 3 0 0 0 0 0 0 0 0 0 0 0 0 0 0 0 7 0 0 0 4 5 0 12 5 3 5 7 5 5 20 5 5 6 5 5 5 100 100 100 100
0 0 0 0 0 0 0 0 0 0 0 0 0 0 0 0 0 0 0 0 0 0 0 0 4 0 0 2 0 0 4 5 5 13 5 10 12 61 62 100 95 82 100
1 0 0 0 0 0 0 0 0 0 0 0 0 0 0 0 0 0 0 0 0 0 0 0 0 0 1 0 5 5 14 15 5 5 6 65 83 64 16 8 97 86 100
1 4 1 0 0 0 0 0 0 0 0 0 0 0 0 0 0 0 0 0 0 1 0 0 0 1 5 8 7 5 34 70 5 5 78 100 86 100 86 7 42 96 100
0 0 4 0 0 0 1 0 0 0 0 0 0 0 0 0 0 0 0 0 0 0 0 0 5 5 9 5 6 5 20 88 8 75 11 55 28 80 100 65 77 95 100
1 0 4 2 0 0 0 0 0 0 0 0 0 0 0 0 0 0 0 0 0 0 0 5 1 5 5 22 5 51 34 8 67 67 98 5 47 100 85 100 85 77 100
0 0 2 0 0 0 0 0 0 0 0 0 0 0 0 0 0 0 0 0 0 0 0 0 0 0 0 5 75 100 98 5 6 5 44 30 54 19 36 100 100 100 100
1 0 5 5 19 2 0 0 0 0 0 0 18 10 0 0 0 0 0 0 0 0 0 0 0 0 0 0 5 65 46 9 17 68 98 100 92 14 66 99 100 100 100
0 5 3 27 2 0 0 0 0 0 0 0 0 5 0 0 0 0 0 0 0 0 0 0 0 0 0 2 5 6 35 14 74 51 91 66 100 39 99 100 100 100 100
5 1 0 5 0 0 0 0 0 0 0 0 0 0 0 0 0 0 0 0 0 0 0 0 0 0 0 2 5 5 5 88 89 100 100 91 100 100 100 100 100 100 100
0 5 4 5 5 2 0 0 0 0 0 0 0 0 0 0 0 0 0 0 0 0 0 0 0 0 0 0 1 4 1 0 13 100 100 100 100 100 100 100 100 100 100
0 0 0 3 1 0 0 0 0 0 0 0 0 0 0 0 0 0 0 0 0 0 0 0 0 0 0 0 2 4 0 0 0 0 1 5 100 100 100 100 100 100 100
2 0 0 0 0 0 0 0 0 0 0 0 0 0 0 0 0 0 0 0 0 0 0 0 0 0 0 0 0 1 0 0 0 2 4 23 100 100 100 100 100 100 100
18 0 0 0 0 0 0 0 0 0 0 0 0 0 0 0 0 0 0 0 0 0 0 0 0 0 0 0 0 0 0 5 5 7 80 5 26 5 10 71 81 100 100
0 0 0 0 0 0 0 0 0 0 0 0 0 0 0 0 0 0 0 0 0 0 0 0 0 0 0 0 0 0 0 0 23 58 99 100 92 93 81 100 98 94 73
0 0 0 0 0 0 0 0 0 0 0 0 0 0 0 0 0 0 0 0 0 0 0 0 0 0 0 0 0 0 0 0 0 0 0 8 6 5 4 3 19 26 5
0 0 0 0 0 0 0 0 0 0 0 0 0 0 0 0 0 0 0 0 0 0 0 0 4 5 0 0 0 0 0 0 0 0 0 0 0 5 5 5 5 5 5
0 0 0 0 0 0 0 0 0 0 0 0 0 0 0 0 0 0 0 0 0 0 0 0 0 5 5 0 0 2 5 4 5 0 4 4 5 2 4 0 1 4 5
0 0 0 0 0 0 0 0 0 0 0 0 0 0 0 0 0 0 0 0 0 0 0 2 1 0 1 0 0 0 0 5 5 0 1 0 2 4 0 5 0 4 4
0 0 0 0 0 0 0 0 0 0 0 0 0 0 0 0 0 0 0 0 0 0 0 2 9 5 0 0 0 0 6 1 36 5 3 3 5 5 0 5 3 5 0
0 0 0 0 0 0 0 0 0 0 0 0 0 0 0 0 0 0 0 0 0 0 0 5 0 3 0 5 0 0 0 0 17 4 0 5 3 3 4 0 5 4 0
0 0 0 0 0 0 0 0 0 0 0 0 0 0 0 0 0 0 0 3 0 0 0 0 0 5 3 5 3 0 0 7 11 0 3 29 0 14 15 4 3 0 0
0 0 0 0 0 0 0 0 0 0 0 0 0 0 0 0 0 0 0 0 0 0 0 2 13 5 5 0 3 1 0 1 17 4 64 100 3 68 9 0 0 0 0
0 0 0 0 0 0 0 0 0 0 0 0 0 0 0 0 0 1 0 0 0 0 3 5 5 4 0 4 2 0 12 73 22 1 9 100 37 100 5 6 1 5 3
38 9 0 0 0 0 0 4 15 0 0 0 0 0 0 0 0 0 1 0 0 0 0 4 36 28 47 8 92 70 8 22 34 38 0 94 100 95 31 11 2 0 0

GFSMA_prec_cloud_072.txt.gz
Cloud_Cover
0 0 0 0 0 4 1 0 0 0 1 0 0 0 0 0 0 0 1 0 0 0 0 14 7 15 10 5 5 5 5 5 6 5 5 5 8 13 100 100 100 100 100
4 2 1 0 0 2 51 0 0 0 0 0 0 0 0 0 0 0 0 0 1 0 6 0 1 2 4 5 2 6 6 5 5 8 5 5 5 10 79 100 100 100 100
0 0 0 0 0 1 0 0 0 0 0 0 0 0 0 0 0 0 0 4 5 1 0 8 0 3 3 5 5 5 5 5 35 79 84 5 6 38 32 100 100 100 100
0 0 0 0 0 0 0 0 0 9 0 0 0 0 0 0 0 0 0 1 5 5 2 5 5 2 5 6 5 30 40 5 62 7 52 92 6 94 62 85 100 100 100
0 0 0 0 0 0 0 0 0 0 0 0 0 0 0 0 0 0 0 0 5 5 5 5 5 5 5 25 11 7 16 12 67 46 12 90 72 91 91 97 100 100 100
0 4 1 0 0 0 0 0 0 0 0 0 0 0 0 0 0 0 0 0 0 4 5 5 5 13 98 52 6 53 22 92 100 97 94 45 99 61 62 80 100 100 100
0 0 0 0 0 0 0 0 0 0 0 0 0 0 0 0 0 0 0 0 0 0 3 5 5 5 5 47 94 58 64 99 66 67 92 100 94 67 46 99 100 100 100
2 0 0 0 0 0 0 0 0 0 0 0 0 0 0 0 0 0 0 0 0 0 0 0 0 1 5 5 16 85 92 100 78 97 98 90 97 90 99 100 100 100 100
0 0 0 0 0 0 0 0 0 0 0 0 28 0 11 14 0 0 0 0 0 0 0 0 0 0 0 0 2 19 97 99 63 92 100 98 100 100 100 100 100 100 100
1 5 0 0 0 29 0 0 0 0 0 0 0 0 0 0 0 0 0 0 0 0 0 0 0 0 0 1 5 0 47 63 97 99 100 100 100 100 100 100 100 100 100
0 4 1 0 0 0 0 0 0 0 0 0 0 0 0 0 0 0 0 0 0 0 0 0 0 0 0 5 0 0 1 89 100 100 100 100 100 100 100 100 100 100 100
0 0 0 2 0 0 0 0 0 0 0 0 0 0 0 0 0 0 0 0 0 0 0 0 0 0 0 1 0 0 0 0 1 12 97 100 100 100 100 100 100 100 100
0 0 0 0 6 0 0 0 0 0 0 0 0 0 0 0 0 0 0 0 0 0 0 0 0 0 0 0 2 0 0 0 4 5 98 100 100 100 100 100 100 99 82
0 0 0 0 0 0 0 0 0 0 0 0 0 0 0 0 0 0 0 0 0 0 0 0 0 0 0 0 0 0 4 5 5 87 60 88 87 90 98 89 85 100 100
0 98 0 0 0 2 0 0 0 0 6 0 0 0 0 0 0 0 0 0 0 0 0 0 0 0 0 0 0 0 0 0 5 91 71 29 98 92 100 99 95 64 6
0 0 0 0 0 0 0 0 0 0 0 0 0 0 0 0 0 0 0 0 0 0 0 0 0 0 0 1 0 0 0 0 0 1 0 4 5 5 5 5 5 6 5
0 0 0 0 0 0 0 0 0 0 0 0 0 0 0 0 0 0 0 0 0 0 0 0 0 0 0 3 5 6 7 4 2 5 0 1 5 5 5 24 61 55 10
0 0 0 0 0 0 0 0 0 0 0 0 0 0 0 0 0 0 0 0 0 0 0 0 0 1 0 5 1 5 24 70 41 5 4 5 5 5 2 3 4 5 5
0 0 0 0 0 0 0 0 0 0 0 0 0 0 0 0 0 0 0 0 0 0 0 0 0 0 0 0 0 0 1 0 6 88 61 5 3 2 5 5 4 5 5
0 0 0 0 0 0 0 0 0 0 0 0 0 0 0 0 0 0 0 0 0 0 0 2 0 5 4 3 0 0 0 0 0 0 3 5 18 12 1 0 5 5 3
0 0 0 0 0 0 0 0 0 0 0 0 0 0 0 0 0 0 0 0 0 0 0 0 5 5 4 5 4 3 6 5 20 5 0 3 5 8 19 0 0 0 4
0 0 0 0 0 0 0 0 0 0 0 0 0 0 0 0 4 1 0 0 0 0 0 0 1 1 1 0 0 5 5 7 49 21 5 5 5 5 13 3 0 0 0
0 0 0 0 0 0 0 0 0 0 0 0 0 0 0 0 4 0 5 16 16 0 8 0 1 1 0 5 0 1 4 7 18 12 53 39 18 5 4 1 4 4 0
0 0 0 0 0 0 0 0 0 0 0 0 0 0 0 0 0 0 0 0 0 0 0 0 5 5 0 0 5 5 5 11 33 5 13 87 2 0 5 13 3 0 0
0 0 0 0 0 0 0 0 0 0 0 0 0 0 0 0 0 11 0 0 0 0 0 7 5 5 3 0 10 11 8 52 30 5 4 26 25 7 98 11 9 0 0
0 0 0 0 0 0 0 0 2 0 0 0 0 0 0 0 0 19 0 0 0 1 2 5 5 35 53 6 27 5 5 28 38 51 13 9 26 81 42 50 0 0 0

GFSMA_prec_cloud_075.txt.gz
Cloud_Cover
0 0 0 1 5 0 0 0 0 0 0 0 0 0 0 4 0 0 0 1 1 2 0 2 2 5 5 16 42 82 98 100 93 90 73 46 87 98 100 100 73 100 100
1 0 0 0 4 0 0 0 0 0 0 0 0 0 0 1 4 0 0 0 0 3 3 5 5 5 5 5 45 84 99 96 68 96 30 47 54 100 98 100 100 100 100
0 0 0 0 0 0 0 0 0 2 0 0 0 0 0 0 5 5 3 0 5 5 6 5 18 5 5 5 5 8 9 12 9 31 99 100 98 93 88 80 100 99 95
0 0 0 0 0 0 0 0 0 15 0 0 0 0 0 0 0 2 5 5 5 5 5 5 5 6 8 6 5 9 17 5 29 86 68 87 74 44 80 98 100 100 100
0 0 0 0 0 0 0 0 20 11 0 0 0 0 0 0 0 0 4 6 8 5 5 5 10 6 5 72 100 42 16 9 57 96 62 92 100 100 100 100 93 100 100
0 0 0 0 0 0 0 0 0 0 0 0 0 0 0 0 0 0 0 0 1 8 13 44 11 59 73 56 100 93 90 68 100 100 100 100 100 99 99 100 100 100 100
0 5 0 9 30 0 0 0 0 0 0 0 0 0 0 0 0 0 0 0 0 0 0 5 5 5 26 78 100 100 90 100 100 100 100 100 100 14 39 100 100 100 100
0 0 0 0 0 0 0 0 0 0 0 0 0 0 0 0 0 0 0 0 0 0 0 0 2 1 17 25 98 100 100 100 100 100 100 100 100 66 100 100 100 100 100
0 0 0 0 0 0 0 0 0 0 0 0 11 0 0 2 0 0 0 0 0 0 0 0 0 0 0 48 49 43 87 80 100 100 100 100 100 100 100 100 100 100 100
0 0 2 0 0 5 0 0 0 0 0 0 0 0 0 0 0 0 0 0 0 0 0 0 0 0 2 2 1 21 80 100 99 100 100 100 100 100 100 100 100 100 100
0 0 0 0 0 0 0 0 0 0 0 0 0 0 0 0 0 0 0 0 0 0 0 0 0 0 5 3 0 0 1 16 97 100 100 100 100 100 100 100 100 100 100
0 0 0 0 1 0 0 0 0 0 0 0 0 0 0 0 0 0 0 0 0 0 0 0 0 0 0 0 0 0 1 4 100 98 100 100 100 100 100 100 100 100 100
0 0 0 3 5 0 0 0 0 0 0 0 0 0 0 0 0 0 0 0 0 0 0 0 0 0 2 5 4 3 5 5 64 100 100 100 100 100 100 100 100 100 94
0 0 0 0 0 2 0 0 0 0 0 0 0 3 0 0 0 0 0 0 0 0 0 0 0 0 0 0 0 0 1 5 7 85 92 55 5 10 8 23 67 65 70
0 0 0 0 0 0 0 0 0 0 0 0 0 0 0 0 0 0 0 0 0 0 0 0 0 0 0 0 0 0 0 0 0 0 5 1 2 0 4 5 5 6 99
0 0 0 0 0 0 0 0 0 0 0 0 0 0 0 0 0 0 0 0 0 0 0 0 0 0 2 4 5 4 3 4 4 5 5 5 5 6 5 5 5 7 5
0 0 0 0 0 0 0 0 0 0 0 0 0 0 0 0 0 0 0 0 0 0 0 0 0 0 0 0 0 1 5 34 86 55 77 5 5 5 40 86 8 3 0
0 0 0 0 0 0 0 0 0 0 1 0 0 0 0 0 0 0 0 0 0 0 0 0 0 0 0 0 0 0 1 4 4 6 7 0 5 6 4 2 0 0 4
0 0 0 0 0 0 0 0 0 0 0 0 0 0 0 0 0 0 0 0 0 0 0 5 4 3 3 0 4 2 0 0 0 0 5 0 0 1 0 0 0 4 5
0 0 0 0 0 0 0 0 0 0 0 0 0 0 0 0 0 0 0 0 0 0 5 3 0 0 2 4 5 4 4 3 0 5 2 2 18 14 0 0 0 0 0
0 0 0 0 0 0 0 0 0 0 0 0 0 0 0 0 0 0 0 0 0 0 2 0 0 0 0 0 5 5 0 0 0 1 0 0 0 16 53 3 1 0 0
0 0 0 0 0 0 0 0 0 0 0 0 0 0 0 0 10 1 0 0 0 0 0 0 0 0 0 0 5 5 4 0 5 5 1 0 0 17 26 0 25 0 0
0 0 0 0 0 0 0 0 0 0 0 0 0 0 0 0 0 0 40 25 34 2 5 0 0 0 0 0 5 5 2 5 5 5 5 10 1 32 6 3 0 0 0
0 0 0 0 0 0 0 0 0 0 0 0 0 0 0 0 0 0 0 0 0 0 2 1 0 0 0 0 5 5 7 9 8 8 23 14 13 37 9 0 4 1 0
4 0 0 0 0 0 0 0 6 0 0 0 0 0 0 0 0 0 0 0 0 0 0 0 0 0 0 0 32 5 4 5 5 5 11 6 7 47 39 44 7 79 6
26 4 0 0 0 0 0 0 6 0 0 0 0 0 0 0 0 0 3 2 2 1 0 0 0 35 55 3 41 84 4 5 4 0 2 5 49 12 30 31 39 97 50

GFSMA_prec_cloud_078.txt.gz
Cloud_Cover
2 36 12 47 55 44 6 12 30 20 6 18 32 28 0 1 0 5 3 4 5 5 0 0 2 5 5 14 34 5 32 97 76 74 6 5 10 48 10 37 100 100 94
6 5 32 44 42 33 7 11 1 81 61 77 0 17 11 0 0 8 17 4 0 1 5 28 27 5 5 5 5 5 37 5 22 66 5 5 5 5 5 77 67 100 100
1 3 11 40 41 0 0 0 4 22 60 25 1 0 13 0 0 0 4 29 28 41 92 64 21 5 5 5 5 5 5 5 5 5 5 5 5 5 20 42 100 100 100
0 0 22 32 2 16 51 52 99 84 92 83 25 25 0 0 0 0 0 2 5 5 5 5 5 68 86 5 8 10 5 6 5 5 6 22 5 54 65 99 100 100 100
0 2 13 12 0 29 25 70 86 100 60 92 85 39 1 0 0 0 0 2 5 5 5 21 63 82 100 29 5 5 5 5 5 7 33 27 37 100 50 100 100 100 100
0 0 1 0 16 98 46 46 19 8 47 20 100 24 11 0 0 0 0 0 0 1 4 5 29 57 100 99 5 5 5 5 19 68 39 15 91 75 100 100 100 100 100
0 0 0 0 0 35 27 0 0 0 35 0 44 21 0 0 0 0 0 0 0 0 5 5 19 52 52 100 100 16 33 56 6 93 81 100 52 78 100 100 100 81 100
4 0 0 4 1 43 0 0 1 62 0 0 40 34 21 4 0 0 0 0 0 0 0 0 3 10 52 100 100 60 100 79 100 100 100 100 100 100 100 100 100 100 100
0 4 0 20 0 18 46 0 0 2 68 0 1 61 95 41 22 0 0 0 0 0 0 0 0 2 33 76 100 100 95 96 100 100 100 100 100 100 100 100 100 100 100
90 3 0 0 0 10 0 0 0 11 25 34 0 0 4 0 20 26 0 0 0 0 0 0 0 0 4 5 5 5 48 100 100 100 100 100 100 100 100 100 100 100 100
0 30 5 0 1 0 0 0 0 0 0 53 65 22 0 0 0 1 2 0 0 0 0 0 0 0 0 0 0 0 0 89 100 100 100 100 100 100 100 100 100 100 99
2 0 5 98 2 0 0 0 0 0 3 0 1 1 24 24 31 23 5 0 0 0 0 0 0 0 0 0 0 0 25 100 99 93 99 100 100 100 97 45 68 5 5
33 1 0 71 0 0 0 0 4 0 0 0 0 28 4 21 7 52 4 1 6 0 0 0 0 0 0 0 0 3 5 78 99 100 100 100 58 7 5 5 5 5 5
74 4 0 0 1 2 0 0 2 0 13 0 2 0 25 0 0 1 53 9 1 0 5 2 0 0 0 0 0 0 1 1 2 0 0 2 5 5 5 5 3 5 5
46 0 0 0 3 0 0 0 2 0 1 0 0 0 0 0 0 0 0 0 5 15 14 0 0 0 0 0 0 0 0 0 0 2 5 5 5 5 5 5 5 0 0
0 13 0 1 0 0 0 1 0 0 0 0 0 1 0 14 0 0 0 0 0 0 2 0 0 0 0 0 0 0 5 22 46 39 56 33 4 37 5 2 0 0 4
0 0 0 1 98 54 1 0 0 9 9 2 0 0 0 0 0 0 0 0 0 0 1 0 0 0 0 0 0 1 5 5 5 4 3 4 6 2 0 0 0 0 0
0 0 0 4 2 3 4 5 0 0 2 0 0 0 0 0 0 0 0 0 0 1 5 5 1 0 0 0 0 0 0 0 0 0 0 0 2 0 0 0 0 0 0
0 0 0 0 0 0 5 0 0 0 0 0 3 1 0 0 0 0 0 0 0 5 5 2 2 1 0 0 0 0 0 0 0 0 0 0 0 0 0 0 0 0 0
0 0 0 0 0 3 0 2 0 2 4 0 0 2 0 0 0 0 0 0 0 4 0 2 5 5 5 0 0 0 0 0 0 0 0 0 20 11 0 0 0 0 0
0 0 0 0 0 0 2 1 0 0 2 0 0 0 0 0 0 0 0 0 0 0 0 0 4 4 5 1 4 1 0 0 0 0 0 0 0 0 0 11 2 16 84
0 0 0 0 0 0 0 0 0 1 0 0 0 0 0 0 0 1 0 0 0 0 0 0 0 4 5 2 2 5 1 3 5 0 0 0 2 1 0 13 23 90 100
0 0 0 0 0 0 0 0 0 0 0 0 0 0 0 0 0 0 45 23 18 1 13 0 0 1 5 1 3 0 0 0 0 0 3 0 0 5 5 60 90 74 100
22 1 0 0 0 0 0 0 0 0 0 0 0 0 0 0 0 0 0 0 0 0 2 1 0 2 12 5 5 0 0 1 4 0 0 0 0 0 0 87 11 2 26
100 74 14 8 9 0 0 0 3 0 0 0 0 0 0 0 0 0 0 0 0 0 0 0 0 1 7 39 64 7 43 7 5 32 8 4 0 0 2 6 4 1 1
69 95 96 45 16 7 0 0 11 0 0 0 0 0 0 0 0 0 0 0 0 0 0 0 0 6 44 5 36 21 5 32 31 97 67 38 28 5 4 2 83 82 48

GFSMA_prec_cloud_081.txt.gz
Cloud_Cover
100 100 100 100 66 57 47 32 44 75 79 62 89 22 0 1 6 19 0 0 0 0 0 0 0 0 5 5 5 5 92 15 92 90 11 51 5 10 14 40 55 87 100
85 96 92 60 100 43 85 4 73 34 99 49 56 30 26 0 3 93 6 4 0 0 0 4 5 5 5 5 5 57 93 95 70 11 9 84 22 48 72 42 100 100 100
90 92 18 100 48 1 4 0 94 100 92 73 36 37 36 84 18 5 75 10 0 2 1 5 4 2 6 6 15 5 41 50 75 5 5 72 8 10 49 97 100 100 100
0 74 96 95 29 55 46 89 15 100 44 36 56 96 23 19 0 1 4 7 5 6 5 5 5 2 5 12 97 24 69 92 5 5 37 66 97 33 5 92 100 97 100
0 95 100 37 2 56 82 93 74 18 28 100 61 1 10 29 47 19 0 0 0 0 4 5 5 5 4 4 28 76 57 18 9 17 51 88 65 25 96 100 100 100 98
25 48 38 1 92 45 27 100 52 93 73 91 100 56 37 30 2 6 20 1 0 4 6 5 28 20 5 5 4 5 5 5 6 28 5 52 71 92 100 100 100 100 100
31 0 84 0 98 56 96 0 0 57 55 1 68 27 0 0 0 0 1 3 1 4 5 30 55 82 95 5 3 3 5 30 91 94 100 100 100 100 100 100 100 95 98
8 31 55 43 5 80 0 0 100 11 1 87 7 96 98 20 0 8 0 0 0 0 0 4 35 97 70 100 100 31 42 95 100 100 100 100 100 99 100 100 100 100 100
89 36 0 77 8 55 50 0 0 98 82 0 98 1 100 70 99 0 0 0 0 0 0 0 1 43 85 100 100 100 100 100 100 100 100 100 98 100 100 100 100 100 70
50 100 6 5 0 55 95 0 0 71 14 78 16 100 1 31 100 66 0 0 0 0 0 0 0 2 52 96 100 100 98 72 100 100 100 100 100 99 83 100 10 5 3
5 87 77 41 0 9 2 49 0 0 100 14 98 61 0 0 2 100 23 0 0 0 0 0 0 0 5 5 2 0 8 63 100 100 100 100 100 100 99 5 5 5 4
0 4 88 43 0 27 20 5 0 0 0 2 11 3 68 100 29 96 29 23 12 0 0 0 0 0 0 0 0 9 99 100 100 66 100 100 52 12 3 5 1 0 5
77 3 2 19 1 0 1 5 0 0 0 0 0 1 38 14 13 12 100 6 88 0 2 0 0 0 0 0 4 96 35 58 25 100 45 1 4 3 5 6 1 5 4
89 17 0 0 1 0 1 4 1 0 26 0 0 4 4 73 62 38 72 25 30 3 0 13 0 0 0 0 0 0 4 12 1 0 0 0 4 5 5 5 0 5 0
96 95 0 10 6 5 6 79 15 39 0 0 0 0 0 39 61 76 30 0 96 89 91 0 0 0 0 0 0 4 5 57 6 14 75 2 5 3 0 0 0 0 0
3 100 20 64 40 45 36 1 78 26 3 14 3 29 0 0 56 22 41 54 0 15 20 48 2 0 0 0 0 0 0 18 1 0 4 5 0 0 0 0 0 0 0
0 0 22 72 100 100 69 97 7 85 48 39 2 61 10 0 0 46 33 0 5 0 0 0 0 0 0 0 0 0 0 0 0 0 0 0 0 0 0 0 0 0 0
0 0 0 2 8 18 93 14 1 1 1 15 0 0 0 0 0 0 0 0 0 0 0 0 0 0 0 0 0 0 0 0 0 4 0 0 0 0 0 0 0 4 0
0 0 0 2 5 5 36 98 59 26 29 11 13 26 1 0 0 0 0 0 0 7 1 0 0 0 0 0 0 0 0 0 0 0 0 1 0 0 0 2 5 4 5
0 0 0 0 0 0 1 16 32 42 98 25 1 0 0 0 0 0 0 0 0 0 0 0 0 0 0 0 0 0 0 0 0 0 0 0 0 8 5 5 60 100 98
0 0 0 0 0 0 0 0 0 5 2 0 46 17 0 0 0 0 0 2 1 0 0 0 5 0 1 0 0 0 0 0 0 0 0 0 7 34 55 39 80 18 100
0 0 0 0 0 0 0 0 0 0 0 0 0 0 0 3 0 0 0 0 0 0 3 0 4 0 0 0 0 0 0 4 2 2 5 5 4 8 5 100 36 5 22
22 1 0 0 0 0 0 0 0 0 0 0 0 0 0 0 0 0 0 0 0 0 3 5 0 2 5 0 4 5 2 8 5 5 52 100 6 5 43 93 78 5 41
20 3 27 8 0 0 0 0 0 0 0 0 0 0 0 0 0 0 0 0 0 0 0 0 0 0 5 16 81 99 99 26 30 58 97 95 6 3 48 5 15 14 37
100 75 39 35 1 0 0 0 1 0 0 0 0 0 0 0 0 0 0 0 0 0 0 0 0 4 17 98 15 5 8 49 68 96 91 34 100 100 44 36 11 21 93
63 8 16 72 96 0 0 0 10 0 0 0 0 0 0 0 0 0 0 0 0 0 0 0 0 5 38 7 26 64 34 5 5 5 5 28 5 18 8 5 12 100 58

GFSMA_prec_cloud_084.txt.gz
Cloud_Cover
71 100 88 68 34 99 95 57 78 41 76 100 25 0 0 8 44 100 74 19 56 5 2 0 0 5 5 5 22 17 99 100 100 100 100 100 25 6 17 51 46 11 5
28 100 41 72 54 50 65 57 0 32 44 39 32 51 49 0 77 18 43 3 1 0 0 4 5 5 18 69 42 49 90 96 91 100 100 100 61 51 8 62 100 12 5
19 72 27 46 16 1 40 14 1 2 92 7 29 62 1 36 1 36 54 0 0 1 5 5 25 31 58 91 100 96 9 90 100 93 94 91 100 51 96 100 94 30 67
16 89 7 30 77 79 68 15 6 0 42 19 14 0 0 2 0 0 0 45 0 1 5 5 5 5 12 48 100 84 74 100 99 76 79 87 94 100 100 75 100 75 84
3 6 8 30 9 54 54 2 1 0 59 84 89 18 78 24 67 3 4 4 1 4 4 5 5 5 5 5 85 99 99 66 36 86 96 100 100 98 98 30 100 100 100
0 31 40 8 53 23 36 88 36 38 1 100 5 26 6 71 20 0 0 1 4 3 5 5 5 4 5 5 72 62 13 74 77 100 100 100 100 100 100 33 80 35 73
14 0 7 0 100 3 73 6 0 0 91 0 0 41 0 0 1 0 62 29 5 5 7 8 48 54 9 4 5 5 5 88 100 100 100 100 100 100 100 96 100 100 7
3 0 84 34 50 41 0 11 66 20 83 0 27 24 58 20 87 21 0 0 0 0 2 5 14 88 100 100 83 18 100 100 100 100 100 100 100 99 100 95 16 99 0
4 75 1 85 24 2 0 0 50 1 33 14 0 100 40 60 0 0 0 0 0 0 0 0 5 75 93 100 100 100 100 100 100 100 100 100 97 76 100 65 5 5 0
28 5 0 0 84 45 53 0 88 35 0 0 0 100 39 100 0 79 0 0 0 0 0 0 0 31 80 100 100 100 100 60 8 11 13 100 100 100 39 5 0 0 0
79 22 19 0 4 100 38 74 0 3 61 87 0 0 2 41 100 19 5 0 0 0 0 0 0 9 5 5 1 1 80 91 14 86 100 100 90 5 6 5 4 3 0
0 0 63 0 4 45 7 2 0 2 51 1 0 0 0 0 2 33 23 64 0 0 0 0 0 0 0 0 4 6 66 82 100 100 85 2 5 5 36 4 5 1 0
4 10 2 0 1 0 29 5 0 0 0 0 0 0 45 92 54 0 0 61 75 49 2 0 0 0 0 5 54 78 16 29 14 4 5 1 5 5 5 3 0 0 0
97 80 32 0 0 0 0 27 0 0 0 0 0 0 0 8 0 31 53 0 54 26 0 0 0 0 0 0 4 6 10 5 6 62 3 5 0 0 0 0 0 0 0
78 47 49 90 4 0 5 5 1 34 4 4 0 0 10 0 0 3 59 0 82 1 0 81 7 0 0 0 0 4 74 87 0 0 0 2 0 0 0 0 4 0 0
84 100 100 100 100 5 5 82 16 74 100 11 0 0 0 4 22 74 3 0 0 0 34 83 97 10 0 0 0 0 0 0 0 0 0 0 0 0 0 0 0 0 0
11 72 100 100 100 9 34 97 26 61 84 3 0 3 71 0 0 33 0 0 0 0 0 6 1 0 0 0 0 0 0 0 0 0 0 0 0 0 0 0 0 0 5
0 0 1 31 0 10 5 100 84 5 5 10 0 0 0 0 0 0 20 84 65 0 0 0 0 0 0 0 0 0 0 0 0 0 0 0 0 0 0 5 5 36 93
0 0 0 0 0 0 0 24 98 5 6 45 13 1 0 0 0 0 0 0 0 0 0 10 1 0 0 0 0 0 0 0 0 0 0 0 0 0 1 10 15 18 99
3 5 2 0 0 0 0 0 0 48 73 3 4 4 0 0 0 0 0 0 0 0 0 0 0 0 0 0 0 2 0 0 0 0 0 4 23 96 87 100 99 100 91
0 0 1 1 0 0 0 0 0 0 0 0 0 6 15 2 0 0 0 0 0 0 0 0 0 0 0 3 0 0 0 0 0 5 10 3 5 7 6 5 96 100 51
0 0 0 0 0 0 0 0 0 0 0 0 0 0 0 28 99 76 0 0 0 0 0 0 0 0 0 3 0 1 3 8 6 5 29 100 51 6 12 6 43 13 69
59 2 1 0 0 0 0 0 0 0 0 0 0 0 0 0 0 0 0 0 0 0 0 0 0 0 5 9 5 3 11 53 81 87 8 83 92 63 40 28 82 79 12
49 93 4 0 0 0 0 0 0 0 0 0 0 0 0 0 0 0 0 0 0 0 0 0 0 1 22 5 97 35 6 30 100 100 100 84 100 90 99 7 9 96 96
89 74 7 5 0 0 0 0 0 0 0 0 0 0 0 0 0 0 0 0 0 0 0 0 0 3 5 30 18 37 55 28 86 98 96 6 94 23 52 69 96 97 99
94 21 37 49 4 0 0 0 4 0 0 0 0 0 0 0 0 0 0 0 0 0 0 0 0 1 9 95 32 94 100 99 68 51 34 95 65 13 50 89 6 82 92

GFSMA_prec_cloud_087.txt.gz
Cloud_Cover
4 33 46 8 96 23 6 3 0 3 63 3 5 83 45 90 75 83 100 90 97 18 4 0 2 5 5 5 46 100 100 100 96 92 19 5 9 25 88 82 90 84 5
51 2 0 12 88 64 2 0 1 0 3 10 4 2 4 5 39 5 11 4 5 3 0 0 5 5 11 99 100 100 94 7 17 53 98 99 92 100 100 81 50 41 35
0 0 0 0 23 44 0 0 0 41 24 0 0 0 13 0 0 16 6 0 0 0 3 5 5 5 5 6 5 79 66 73 87 100 100 100 100 100 96 25 100 100 74
0 0 0 28 2 2 1 0 3 46 0 0 0 0 0 0 0 0 0 0 0 0 5 5 5 5 5 5 5 17 76 99 100 99 99 100 98 63 100 6 100 15 5
0 0 21 3 4 1 0 0 0 77 94 0 0 0 0 0 0 0 1 0 3 4 0 5 5 5 5 5 24 56 78 99 63 91 100 92 14 73 100 77 79 19 0
0 0 0 1 28 17 36 2 28 40 96 9 0 0 0 3 5 2 2 0 2 4 2 3 5 5 5 5 5 7 17 36 99 100 100 100 55 100 40 96 15 6 11
0 0 1 2 0 0 0 0 0 0 37 4 0 0 66 23 0 0 0 0 2 5 5 5 5 4 5 5 5 31 99 100 100 100 100 100 97 5 52 70 1 0 5
4 1 6 0 83 0 0 0 0 0 0 0 0 0 5 4 0 0 0 0 0 1 5 20 7 92 10 96 61 100 100 100 100 100 100 100 45 27 11 0 3 0 38
0 0 3 3 1 0 0 0 0 8 0 0 0 0 0 0 0 0 0 0 0 0 0 5 35 74 5 74 97 100 100 100 98 9 87 100 84 5 5 0 1 0 15
10 0 5 9 53 2 0 0 0 0 0 0 0 0 0 7 0 0 0 0 0 0 0 0 5 26 98 100 100 100 73 15 6 98 100 100 14 5 5 0 0 0 0
86 5 40 5 17 28 94 0 0 0 0 0 34 0 18 4 17 0 1 1 0 0 0 0 0 17 70 13 1 0 4 5 45 59 2 5 10 3 0 0 0 0 0
3 3 72 2 0 1 0 0 0 0 0 0 0 0 0 85 77 6 0 0 0 0 0 0 0 0 0 2 2 5 5 89 86 2 4 0 3 0 0 0 0 0 0
0 43 16 5 5 1 0 0 0 0 0 0 0 0 2 0 1 27 0 1 14 0 6 0 0 0 2 3 4 3 28 5 5 3 2 0 3 2 0 2 0 0 0
6 94 10 6 87 27 3 4 3 0 0 0 0 0 0 0 0 0 0 0 34 0 0 0 10 0 0 5 5 5 99 14 2 2 0 0 0 0 0 0 0 0 0
2 9 71 100 100 27 5 5 5 8 6 3 0 0 0 0 0 0 0 0 2 72 0 0 62 1 0 0 0 0 0 0 0 0 0 0 0 0 0 0 0 0 0
48 44 100 100 100 11 58 20 10 16 3 2 1 0 0 0 0 0 3 0 0 0 0 0 74 0 0 0 0 0 0 0 0 0 0 0 0 0 0 2 0 1 3
5 5 16 78 81 88 38 5 1 0 29 5 2 0 0 0 0 0 0 0 0 0 0 0 41 0 0 0 0 0 0 0 0 0 0 0 0 2 1 5 4 5 4
10 5 2 3 7 0 0 5 3 0 2 1 5 4 0 0 0 0 0 0 0 0 0 0 0 0 0 0 0 0 0 0 0 0 5 9 5 32 61 68 24 76 98
1 5 5 5 3 1 0 0 0 1 2 5 5 3 2 0 0 0 0 0 0 0 0 0 0 0 0 0 0 0 0 0 0 0 0 0 4 5 21 44 68 98 7
0 0 0 0 0 0 0 0 0 0 0 4 3 0 1 0 0 0 0 0 0 0 0 0 0 0 0 0 0 0 0 0 0 4 5 5 5 5 7 5 26 43 5
81 73 2 1 0 0 0 0 0 0 0 0 0 0 0 0 0 30 1 0 0 0 0 0 0 0 0 0 0 0 0 0 0 5 5 5 5 5 5 38 7 18 17
72 10 5 9 23 1 0 0 0 0 0 0 0 0 0 0 0 3 63 0 0 0 0 0 0 0 0 0 0 0 0 5 5 5 5 62 67 10 32 100 76 83 61
97 16 8 71 7 97 64 1 0 0 0 0 0 0 0 0 0 0 0 0 0 0 0 0 0 3 1 0 0 5 16 5 5 68 100 100 55 17 22 99 96 100 100
100 100 13 5 38 5 5 5 30 2 5 3 0 0 0 0 0 0 0 0 0 0 0 0 0 5 5 4 5 5 5 14 94 22 5 91 75 75 5 90 71 46 80
100 100 24 6 10 5 3 1 17 83 46 5 5 0 0 0 0 0 0 0 0 0 0 0 2 5 5 2 93 52 78 97 95 93 15 5 30 13 94 83 96 7 95
91 97 100 100 100 60 22 36 44 69 98 6 0 1 0 0 0 0 0 0 0 0 0 0 0 4 34 19 28 80 100 45 8 98 100 5 16 7 7 7 83 100 70

GFSMA_prec_cloud_090.txt.gz
Cloud_Cover
5 21 5 5 1 0 0 0 2 1 1 12 100 97 14 90 98 100 100 100 100 99 3 4 4 5 34 89 100 100 100 100 97 100 58 100 100 53 6 97 100 100 100
0 0 74 2 0 0 0 0 0 3 0 0 75 99 6 17 22 100 87 54 22 4 4 0 5 9 95 96 100 99 100 100 94 96 100 100 100 38 5 77 98 100 100
0 0 6 12 0 0 0 0 0 0 0 55 31 5 2 5 5 3 5 0 1 1 1 4 5 5 6 45 94 71 100 100 100 100 100 100 69 21 50 7 39 75 77
0 0 0 0 3 0 0 0 0 0 0 0 0 0 0 0 0 2 0 0 1 5 5 5 5 5 5 9 73 98 99 100 100 100 100 100 99 100 11 5 4 89 98
0 0 0 1 0 0 0 0 66 0 0 17 0 0 0 0 0 2 0 4 2 5 5 5 5 5 5 6 72 98 100 100 100 100 100 100 100 84 6 5 73 100 100
0 0 0 0 0 0 0 0 4 0 0 0 0 0 0 0 4 5 5 5 5 5 5 5 12 75 100 100 100 100 98 44 80 100 100 100 98 88 6 0 67 86 100
0 0 0 1 0 0 0 0 0 33 0 0 0 0 0 0 0 0 0 1 4 5 28 5 5 5 15 48 43 100 100 100 88 100 100 100 31 9 4 2 9 31 100
18 0 0 0 0 0 0 0 0 0 12 0 1 0 0 0 0 0 0 0 0 0 27 36 33 44 7 96 33 100 100 100 100 51 100 100 64 5 2 3 0 0 72
8 5 0 4 0 0 0 0 0 0 0 0 0 0 0 0 0 0 0 0 0 0 2 5 5 69 8 23 61 100 100 90 62 76 93 48 22 0 0 0 0 0 11
0 5 5 4 0 0 0 4 0 0 0 0 0 0 0 0 0 0 0 0 0 0 0 0 60 100 100 100 100 100 26 7 96 9 5 1 0 0 0 0 0 0 0
86 4 29 81 54 26 5 6 16 0 0 0 0 0 0 0 0 0 0 0 0 0 0 1 58 54 14 8 0 2 86 5 3 2 0 1 0 0 0 0 0 0 0
5 3 3 25 51 64 8 97 92 8 5 0 0 1 2 2 0 0 0 0 0 0 0 1 3 0 0 4 4 14 1 0 4 2 4 0 0 0 0 0 0 0 0
4 5 2 44 81 51 18 80 29 42 27 4 0 0 3 44 2 0 0 0 0 0 0 0 5 9 0 0 1 7 4 5 0 1 0 0 0 0 0 0 0 0 0
4 67 54 38 69 97 5 96 25 4 33 96 66 0 0 8 6 0 0 0 0 0 0 0 21 1 0 5 5 11 18 0 0 0 0 0 0 0 0 0 0 0 0
58 2 17 9 98 100 21 69 7 5 14 26 94 10 0 0 0 1 0 0 0 0 0 0 0 5 0 0 0 0 0 0 0 0 0 0 0 0 0 0 4 6 0
11 5 25 71 91 99 100 7 27 1 3 5 10 5 0 0 0 0 0 0 0 0 0 0 0 0 1 0 0 0 0 0 0 2 5 0 2 3 5 24 85 53 17
61 99 48 77 4 68 98 0 5 0 1 5 5 11 4 0 0 0 0 0 0 0 0 0 0 0 3 0 0 0 0 0 11 5 58 25 37 90 94 96 97 100 100
100 18 5 9 6 8 5 0 1 5 4 4 5 5 0 0 0 0 0 0 0 0 0 0 0 0 0 0 0 0 1 7 7 53 13 32 3 0 0 5 78 69 82
100 78 89 41 2 0 0 0 0 4 1 1 4 0 0 0 0 0 0 0 0 0 0 0 0 0 0 0 0 1 5 5 2 2 4 5 1 1 4 2 4 5 5
100 100 100 66 41 90 90 7 0 0 0 0 0 0 0 0 0 0 0 0 0 0 0 0 0 0 0 0 0 0 0 1 0 0 0 3 5 5 5 6 33 17 95
100 100 100 100 27 39 93 18 67 5 0 0 0 0 0 0 0 0 0 0 0 0 0 0 0 0 0 0 0 3 0 0 0 0 0 4 5 6 87 78 100 99 81
100 100 100 95 97 8 5 43 71 70 5 7 3 0 0 0 0 0 0 0 0 0 0 0 0 0 0 0 0 0 0 3 5 4 5 3 5 29 95 11 58 20 80
100 100 100 100 39 95 5 5 4 100 100 82 35 52 13 0 0 0 0 0 0 0 0 0 0 0 4 0 0 2 5 10 9 27 50 5 5 5 47 92 19 100 100
100 100 100 100 100 90 12 5 7 23 77 92 93 38 5 31 1 0 0 0 0 0 0 0 0 0 4 0 5 9 20 99 93 78 14 19 5 5 27 87 9 85 100
100 100 100 100 100 99 98 89 39 12 84 27 1 53 32 5 41 0 0 0 0 0 0 0 0 3 0 5 14 5 3 7 11 5 24 5 5 5 5 17 5 5 7
100 100 100 100 84 100 100 100 92 34 37 23 6 2 24 32 8 16 1 0 0 0 0 0 0 1 20 0 6 49 27 5 99 98 57 35 5 5 10 5 12 74 42

GFSMA_prec_cloud_093.txt.gz
Cloud_Cover
14 1 0 0 0 0 0 4 4 91 100 75 5 49 100 84 100 100 100 100 100 99 55 15 6 5 17 29 13 89 100 100 98 22 92 100 9 72 100 100 100 100 95
8 0 0 0 0 0 0 0 0 2 6 93 54 5 5 39 100 100 62 79 100 100 54 5 5 5 5 5 44 100 100 100 100 82 100 95 40 6 28 51 9 68 100
4 0 0 0 0 0 0 0 0 0 0 0 26 5 2 0 50 78 8 7 5 4 2 0 5 9 19 5 63 93 100 67 80 100 100 99 100 39 3 2 18 77 100
0 0 0 0 0 0 0 0 0 0 0 0 0 0 0 0 0 0 4 5 5 5 5 5 5 38 96 100 100 100 100 99 100 100 100 100 96 10 5 0 82 100 100
0 0 0 0 0 0 0 0 0 0 0 0 0 0 0 0 0 4 5 5 5 5 5 5 5 18 51 91 100 100 100 90 100 46 93 100 83 8 0 4 91 100 100
0 0 0 0 0 0 0 0 0 0 0 0 0 0 0 0 0 3 5 5 22 5 5 5 5 14 93 100 100 100 100 100 94 76 70 92 58 2 0 0 100 45 100
10 5 19 5 5 5 0 0 0 0 0 0 0 0 0 0 0 0 0 5 5 87 10 5 5 54 75 100 61 100 96 100 92 66 46 5 4 0 0 0 48 62 95
93 58 41 76 19 12 5 5 0 0 0 0 0 0 4 0 0 0 0 0 5 6 99 38 94 66 13 78 63 100 100 100 73 14 1 0 0 0 0 0 13 13 91
29 76 19 57 60 79 26 5 5 0 0 0 0 0 0 0 0 0 0 2 3 2 5 70 36 25 6 73 100 100 100 7 5 5 0 0 0 0 0 0 0 0 1
2 33 43 34 72 50 52 32 6 5 5 0 0 0 0 0 0 0 0 0 0 0 0 53 100 100 100 75 80 13 5 28 4 0 5 4 0 0 0 0 0 0 0
0 5 87 62 68 82 68 5 5 7 22 10 0 0 0 0 0 0 0 0 0 0 4 21 5 4 0 0 4 6 5 0 3 5 1 0 0 0 0 0 0 0 0
0 5 5 8 63 88 78 5 5 5 17 54 5 1 2 0 0 0 0 0 0 0 47 5 4 3 0 0 2 1 1 0 3 0 0 0 0 0 0 0 0 0 0
1 5 9 5 18 94 97 56 6 5 12 94 23 61 75 0 0 0 0 0 0 0 18 98 91 20 32 0 0 3 2 0 0 0 0 0 0 0 0 0 0 0 0
1 5 5 50 27 77 81 5 5 1 5 81 70 5 83 8 23 0 0 0 0 0 0 0 0 1 0 4 0 0 0 0 0 0 0 0 0 0 0 1 5 5 5
4 5 1 38 8 16 82 0 5 0 3 5 28 5 3 0 0 0 0 0 0 0 0 0 0 1 87 0 0 0 0 0 0 0 2 5 5 5 9 84 97 49 6
100 11 4 1 14 3 96 0 2 5 0 2 5 4 1 0 0 0 0 0 0 0 0 0 0 0 0 0 0 0 0 0 10 12 53 34 5 30 49 78 34 65 5
100 84 45 20 27 99 98 24 25 5 3 0 1 4 0 1 0 0 0 0 0 0 0 0 0 0 0 0 5 10 20 23 15 98 48 79 38 63 78 75 74 100 100
100 100 100 81 32 73 100 82 75 5 4 3 0 0 0 0 0 0 0 0 0 0 0 0 0 0 0 0 1 5 5 1 5 0 1 4 5 5 7 81 100 100 100
100 100 100 100 100 99 71 92 86 77 100 71 6 0 0 3 1 0 0 0 0 0 0 0 0 0 0 0 5 5 5 1 0 0 0 0 2 5 5 5 5 5 19
100 99 100 100 100 100 96 70 58 63 71 65 68 44 3 2 0 16 1 0 0 0 0 0 0 0 0 0 0 0 0 4 0 1 2 5 4 3 0 4 5 5 12
100 100 100 100 100 100 100 99 21 33 74 91 14 100 93 8 0 0 0 0 0 0 0 0 0 0 0 0 0 0 0 0 0 0 4 5 5 5 44 5 5 17 12
100 100 100 100 100 100 100 100 96 5 5 71 92 100 95 28 5 4 0 0 1 0 0 0 0 0 1 0 0 0 0 0 3 0 4 69 100 42 66 38 8 7 8
100 100 100 100 100 100 100 100 100 42 21 22 55 85 69 93 47 6 4 2 0 1 2 0 0 0 4 0 0 0 0 0 2 4 2 4 6 56 28 7 9 54 27
100 100 100 100 100 100 100 100 100 100 78 19 4 9 25 8 48 95 5 2 0 0 0 0 0 0 0 0 1 1 0 5 5 8 5 35 0 1 4 5 10 5 8
100 100 100 100 100 100 100 100 100 100 100 94 32 95 5 4 10 51 24 0 4 0 0 3 0 0 0 0 4 5 9 73 82 25 19 5 0 0 5 5 5 4 5
100 100 100 100 100 100 100 100 92 98 95 8 5 93 99 100 100 100 100 100 42 0 0 0 0 0 38 2 7 78 35 79 10 19 8 4 1 0 2 5 5 14 5

GFSMA_prec_cloud_096.txt.gz
Cloud_Cover
0 0 0 0 0 0 16 86 5 5 39 89 100 100 100 100 100 100 100 100 99 72 25 12 5 5 4 5 6 27 51 82 98 99 100 100 98 97 98 71 62 99 69
0 0 0 0 0 0 0 0 36 5 5 36 98 100 100 100 100 100 100 100 100 100 100 16 5 5 5 5 5 25 100 100 99 100 100 79 100 76 6 10 93 100 100
0 0 0 0 0 0 0 0 0 0 4 0 0 1 24 10 26 18 5 6 13 6 4 5 5 5 5 5 14 39 100 100 100 100 77 75 37 6 5 4 100 100 94
4 0 0 0 0 0 0 0 0 0 0 0 0 0 0 0 0 0 2 5 5 5 5 5 35 41 71 45 18 84 100 97 100 77 37 5 5 14 9 10 90 100 100
5 34 1 2 0 0 0 0 0 0 0 0 0 0 0 0 0 5 5 5 5 5 5 5 31 99 98 86 83 98 100 94 30 19 5 4 0 0 2 96 79 98 100
5 5 17 4 0 0 0 0 0 0 0 0 0 0 0 0 0 4 5 19 36 5 5 5 62 77 83 98 100 100 69 64 37 5 1 0 0 0 0 20 100 14 37
5 62 5 12 5 2 0 0 0 0 0 0 0 0 0 0 0 5 5 5 100 85 5 5 11 96 100 100 100 99 83 54 5 5 0 0 0 0 0 0 20 28 99
9 5 47 50 10 5 5 2 0 0 0 0 0 0 0 0 0 5 5 5 6 100 95 100 100 100 98 100 100 100 95 5 2 0 0 0 0 0 0 0 0 0 23
51 61 10 96 12 17 5 5 3 0 0 0 0 0 0 0 0 4 1 5 5 7 63 12 45 85 94 100 66 14 5 4 0 0 0 0 0 0 0 0 0 0 0
9 12 71 19 5 6 5 5 5 4 0 0 0 0 0 0 0 0 4 0 5 5 16 88 62 40 16 4 3 5 5 1 2 0 0 0 0 0 0 0 0 0 0
3 4 34 6 59 5 5 5 5 5 4 0 0 0 0 0 0 0 0 2 2 3 0 1 4 0 4 0 2 5 5 5 0 0 0 0 0 0 0 0 0 0 0
0 5 5 46 97 24 4 5 4 5 5 3 0 0 0 0 0 0 0 1 5 6 5 5 4 4 0 2 2 2 1 0 0 0 0 0 0 0 0 0 0 0 1
0 0 42 98 100 100 5 5 0 3 5 5 37 0 4 0 0 0 0 0 0 0 1 15 46 15 30 0 0 0 0 0 0 0 0 4 5 22 5 5 5 5 3
0 0 10 91 69 59 16 13 5 2 5 3 4 13 45 0 0 0 0 0 0 5 0 0 53 70 1 0 0 0 0 4 0 2 5 5 9 44 9 81 18 14 5
7 5 45 70 100 8 43 19 46 11 7 3 0 0 3 0 49 0 0 0 0 0 0 0 0 0 0 0 0 5 6 5 5 5 76 6 72 45 100 100 100 100 100
100 98 12 81 42 9 72 91 84 90 52 98 13 5 1 0 0 0 0 0 0 0 0 0 0 0 0 0 3 5 5 14 75 5 16 100 73 74 100 13 67 100 100
100 100 100 100 77 100 49 13 84 100 93 82 95 80 4 4 14 0 0 0 0 0 0 0 0 0 0 0 0 3 8 29 5 5 32 54 96 100 100 100 99 100 100
100 100 100 100 100 100 96 6 49 98 78 76 100 46 34 5 65 3 0 0 0 0 0 0 0 0 0 0 0 0 0 1 0 2 4 6 9 12 10 10 23 32 100
85 100 100 100 100 100 100 96 44 84 67 72 98 100 97 57 21 3 3 0 0 5 0 0 2 1 0 0 0 0 0 0 0 0 2 5 2 5 5 4 5 22 59
43 100 95 57 100 100 100 100 100 33 48 94 58 66 100 69 17 59 3 5 5 3 1 5 5 3 0 0 0 0 0 0 0 0 0 0 12 5 5 75 95 18 66
98 100 100 86 99 100 100 100 100 90 5 46 8 73 71 70 26 31 7 5 5 5 0 1 2 0 0 0 0 0 0 0 0 1 5 5 5 5 5 91 86 85 5
98 91 96 100 100 100 100 100 100 100 100 100 32 4 5 9 21 29 16 6 11 5 5 5 5 1 0 0 0 0 0 0 0 2 5 42 8 5 5 5 5 75 15
72 6 98 97 100 100 100 100 100 94 100 100 100 57 2 5 6 5 4 29 30 7 20 6 5 4 0 0 0 0 0 0 0 0 3 4 5 9 7 32 7 5 6
58 38 65 100 100 98 100 100 100 100 100 94 100 98 30 90 78 63 26 5 3 59 4 7 1 0 4 0 0 0 0 0 0 0 0 23 0 1 5 5 35 7 24
100 85 85 98 96 85 100 100 100 100 100 100 100 100 100 100 100 100 61 56 49 14 5 1 11 16 2 0 10 0 1 23 0 0 0 0 0 0 3 5 5 5 5
100 100 100 100 100 100 100 100 100 95 100 100 98 8 98 89 100 100 99 100 93 59 38 5 1 1 5 4 9 6 5 5 6 23 2 6 2 4 2 0 1 5 5

GFSMA_prec_cloud_099.txt.gz
Cloud_Cover
0 0 0 0 0 3 5 30 72 93 62 15 52 87 44 50 97 99 100 100 78 89 68 85 5 5 5 11 5 6 64 88 100 91 51 43 5 19 5 100 15 61 51
0 0 0 0 0 0 5 5 5 21 29 14 27 41 8 22 48 58 93 100 100 100 75 5 5 5 5 7 5 7 75 84 99 61 8 5 5 5 86 80 36 100 30
0 0 0 0 0 0 0 0 0 0 0 5 5 5 0 1 5 3 2 9 9 5 5 5 5 5 5 21 65 95 99 100 97 7 5 11 6 18 100 100 59 46 97
0 0 0 0 0 0 0 0 0 0 0 1 0 0 0 0 0 0 0 0 0 3 5 5 5 5 70 52 89 100 100 94 5 4 5 4 1 70 100 94 26 100 100
0 0 0 0 0 0 0 0 0 0 0 0 0 0 0 0 3 2 5 1 1 1 5 5 5 11 42 20 100 100 41 50 4 4 0 0 5 0 99 100 26 33 58
5 5 2 0 0 0 0 0 0 0 0 0 0 0 0 0 0 27 73 64 5 5 25 13 48 56 63 100 100 64 88 5 5 5 0 5 5 0 0 1 9 2 0
1 5 5 2 0 0 0 0 0 0 0 0 0 0 0 0 4 5 6 97 93 5 5 5 8 79 100 55 57 100 7 5 1 5 0 0 0 0 0 0 0 3 0
5 2 4 5 5 0 0 0 0 0 0 0 0 0 0 0 5 5 5 5 100 71 57 83 72 64 100 100 85 40 5 5 5 0 0 0 0 0 0 0 0 0 0
44 26 0 0 5 5 2 0 0 0 0 0 0 0 0 0 1 5 5 5 10 18 17 56 88 72 59 6 4 5 86 5 0 0 0 0 0 0 0 0 0 0 0
10 20 4 0 0 4 5 0 0 0 0 3 0 0 0 0 0 2 5 5 69 99 13 9 2 0 3 39 43 33 6 3 0 0 0 0 0 0 0 0 0 3 0
23 23 96 44 0 0 5 5 2 0 0 4 0 0 0 0 0 2 5 5 5 5 26 5 0 4 5 9 5 5 0 0 0 0 0 0 0 0 5 23 5 0 0
5 5 14 96 16 8 5 4 1 0 0 0 0 0 0 0 0 0 1 2 2 4 42 6 5 2 0 0 0 0 0 2 5 5 5 3 4 4 5 13 5 3 0
5 5 16 9 35 49 13 8 66 34 1 0 0 0 0 0 0 0 0 0 0 0 45 70 30 2 0 0 0 1 5 5 11 5 6 10 5 5 5 5 5 5 42
5 5 6 5 5 59 31 22 12 99 87 29 2 3 0 0 0 0 0 0 0 0 0 0 2 0 0 0 0 5 5 5 5 64 100 100 97 8 5 5 5 5 5
12 9 20 26 19 5 83 94 50 93 100 100 100 94 4 0 0 0 0 0 0 0 0 0 0 0 0 0 0 4 5 5 5 35 88 100 100 100 100 100 56 8 39
100 99 94 89 100 74 41 49 82 100 100 100 100 100 100 25 0 1 0 0 0 0 0 0 0 0 0 0 1 3 3 5 5 5 16 5 21 100 100 100 100 100 100
64 6 15 86 100 100 83 14 32 100 100 100 100 100 100 100 51 0 0 0 0 0 0 0 0 0 4 0 0 0 5 34 29 93 31 5 8 42 65 100 100 100 100
100 100 78 14 8 100 100 78 53 74 100 88 100 100 100 100 99 98 5 5 5 5 5 4 0 0 2 2 1 1 5 27 8 5 5 5 9 5 75 100 100 100 100
100 100 89 7 54 93 100 100 7 5 99 97 90 62 100 99 92 98 86 6 5 5 5 5 3 0 0 0 0 0 0 0 1 5 5 19 5 42 47 7 73 100 100
41 62 55 66 5 54 100 100 100 38 33 15 99 84 97 27 63 11 98 49 5 7 7 26 8 5 4 0 0 0 0 0 0 5 5 78 38 83 100 100 68 50 100
39 90 77 13 100 91 100 100 90 77 91 94 77 77 46 32 9 1 4 99 14 5 14 58 73 34 4 0 0 0 0 0 0 2 5 5 8 78 48 100 100 35 4
100 57 58 28 75 100 99 100 100 75 98 76 100 100 5 5 38 39 14 15 42 5 5 10 11 41 7 3 0 0 0 0 0 0 0 1 4 33 100 14 84 100 97
100 89 92 66 86 91 90 100 100 97 88 75 20 53 7 9 28 20 15 0 62 22 60 4 48 59 19 11 10 7 7 11 0 0 0 0 4 0 5 22 12 7 85
88 99 93 69 18 51 100 99 100 100 99 100 100 100 100 100 100 76 55 47 33 18 42 67 38 35 47 61 84 58 64 36 11 0 8 7 0 0 3 4 5 22 97
84 92 80 73 53 72 57 95 91 100 100 100 100 86 50 41 49 48 48 21 7 47 37 3 20 18 2 3 54 66 36 96 11 2 12 53 0 0 0 0 5 5 6
100 99 98 91 32 99 88 80 40 96 97 100 100 82 100 82 11 19 5 5 5 3 0 0 0 0 37 10 30 29 32 93 81 98 5 56 25 24 6 3 5 5 11

GFSMA_prec_cloud_102.txt.gz
Cloud_Cover
10 19 0 16 5 12 16 13 16 13 99 100 92 96 100 84 54 77 65 76 65 72 25 10 5 5 5 5 5 38 98 100 100 7 1 5 50 100 89 99 100 50 62
9 0 0 0 0 3 6 5 5 51 98 99 97 14 98 18 5 5 43 60 100 99 5 5 5 5 5 25 92 98 100 78 11 0 5 16 50 100 100 88 99 67 98
0 2 1 10 5 0 0 1 4 6 5 5 19 5 10 20 5 5 6 43 30 5 5 5 5 5 25 14 50 100 100 30 4 4 3 0 100 100 100 12 89 100 96
0 9 22 15 0 0 31 3 8 0 0 0 0 0 0 0 0 0 0 0 1 1 5 5 7 32 17 63 100 92 24 5 5 2 0 0 22 100 57 4 6 59 99
0 8 40 2 0 3 23 14 0 0 0 0 0 0 0 0 3 2 0 4 5 5 5 6 5 75 97 100 100 89 5 2 4 0 0 0 0 0 0 1 26 4 68
0 0 8 0 0 15 1 0 0 0 0 0 0 0 0 0 16 51 12 1 3 2 0 5 30 99 100 100 100 40 5 1 0 0 0 0 0 0 0 0 2 1 3
0 0 15 0 0 4 3 0 0 0 0 0 0 0 0 0 0 43 99 39 2 1 1 5 59 100 100 100 30 5 5 0 0 0 0 0 0 0 0 0 0 0 0
0 0 2 10 13 18 0 0 0 0 0 0 0 0 0 0 0 5 9 66 35 27 100 100 68 100 100 13 5 5 5 0 0 0 0 0 0 0 0 0 0 0 0
0 0 0 9 0 28 33 0 0 0 0 0 0 8 4 6 0 5 34 100 84 86 100 83 45 51 1 4 5 4 0 0 0 0 0 0 0 4 0 5 0 0 0
4 5 5 8 4 1 0 6 0 0 1 0 0 0 0 0 0 4 5 97 59 10 5 5 5 3 5 4 1 0 0 0 0 0 0 4 5 5 5 5 0 0 0
5 14 5 6 25 5 5 5 2 1 0 0 0 0 0 0 0 0 2 5 5 5 5 0 0 0 0 0 2 0 0 0 0 0 4 5 5 14 5 4 0 0 0
99 100 5 5 16 86 98 38 37 42 7 0 0 0 0 18 20 1 0 1 6 8 2 2 2 0 0 0 1 4 4 5 5 0 4 3 5 5 6 42 5 0 0
27 33 5 5 7 57 24 85 100 100 100 79 5 15 0 0 1 4 0 35 1 5 4 4 0 0 0 4 5 5 4 4 5 3 0 4 5 10 27 90 5 5 0
13 26 68 5 41 86 81 10 37 86 97 100 87 5 4 0 0 0 5 4 21 35 0 1 1 1 2 5 5 5 82 96 6 5 5 6 7 5 5 6 1 3 1
69 9 17 72 100 6 12 68 100 99 91 46 100 100 97 5 3 0 0 0 0 0 38 90 1 19 10 7 5 45 40 99 7 60 100 100 100 98 10 85 68 42 1
98 32 6 98 100 98 4 5 27 100 100 100 100 100 100 70 5 0 0 0 0 0 0 0 27 7 0 0 0 5 5 5 5 66 100 100 100 100 100 100 100 100 100
100 97 100 89 85 100 37 9 5 30 100 100 100 100 100 100 100 17 0 0 0 0 0 0 0 1 0 0 4 5 32 5 28 65 32 100 100 100 100 100 100 100 100
100 100 100 98 95 52 100 68 5 8 32 100 100 100 100 100 100 98 5 5 5 5 0 0 0 0 0 0 5 5 5 5 33 98 10 81 55 100 82 100 100 98 32
66 15 94 100 46 49 100 100 87 22 17 43 50 98 100 80 87 100 100 53 5 40 27 22 2 2 2 0 0 0 5 12 69 42 11 24 5 50 33 100 99 100 100
86 84 4 38 64 45 28 100 100 80 46 12 9 23 49 69 15 5 92 100 12 5 13 35 17 24 28 12 5 5 5 84 72 38 100 100 100 100 100 100 46 15 65
5 100 100 23 5 45 70 30 72 80 100 74 83 63 20 28 9 11 23 81 45 94 56 22 72 25 38 11 54 20 94 23 100 99 28 86 91 100 65 37 94 39 5
40 100 100 84 6 7 52 97 88 54 76 100 49 75 86 1 25 23 2 12 46 10 36 7 5 8 5 5 3 5 33 84 6 7 48 29 81 90 83 100 8 12 5
86 84 100 98 44 30 96 99 99 8 19 44 98 86 79 29 42 0 0 0 62 12 77 8 5 12 11 12 8 27 24 21 10 67 57 20 81 100 87 100 91 6 5
100 100 80 79 5 7 86 96 29 25 72 86 96 100 100 20 11 10 0 0 15 49 93 75 69 37 34 21 5 11 13 21 60 24 50 58 35 61 69 41 96 11 8
100 100 90 33 73 79 87 41 46 45 82 71 84 100 100 100 48 8 5 0 0 3 30 0 8 1 0 4 32 2 6 56 35 87 80 53 51 90 94 24 71 50 93
100 100 92 64 46 30 98 80 19 5 8 68 94 100 73 99 100 100 87 5 5 5 2 2 0 0 0 0 5 7 57 42 100 62 46 79 100 41 6 6 34 28 92

GFSMA_prec_cloud_105.txt.gz
Cloud_Cover
59 72 45 95 66 100 60 87 96 100 100 100 100 100 100 100 98 58 45 12 79 52 29 5 5 5 25 36 6 100 100 71 3 0 0 5 100 100 30 93 100 94 96
80 21 89 19 46 100 65 56 80 100 100 62 56 76 100 62 60 22 20 26 12 79 31 25 82 99 26 6 98 100 48 4 0 0 0 1 92 47 4 7 100 100 99
12 84 17 100 61 0 14 3 14 82 100 91 74 100 99 98 51 41 41 94 79 86 5 5 6 74 38 65 100 88 8 0 0 0 0 0 20 4 2 5 30 44 78
7 62 98 68 3 45 62 86 87 64 6 16 6 28 0 7 3 28 5 5 5 5 5 5 5 48 98 100 99 94 34 0 0 0 0 0 0 0 0 20 19 13 98
0 99 100 11 81 97 61 85 19 100 22 23 34 0 6 2 2 0 0 0 1 1 4 5 6 96 100 100 79 97 4 0 0 0 0 0 0 0 0 0 15 7 35
0 78 47 0 0 89 80 23 9 1 11 4 100 0 3 68 44 5 0 0 0 0 4 5 100 100 100 100 97 5 0 0 0 0 0 0 0 0 0 0 0 5 5
3 0 85 0 77 82 0 2 58 1 28 0 24 2 0 3 100 79 6 0 0 4 5 83 74 100 100 75 2 3 0 0 0 0 0 0 0 0 0 0 0 0 0
2 5 62 33 99 7 2 0 0 17 0 0 90 35 21 4 11 92 80 5 28 100 100 100 100 100 40 29 3 0 0 0 0 0 0 0 1 2 0 0 0 0 0
18 54 4 93 2 97 61 26 0 45 79 0 0 100 8 100 1 27 74 54 99 81 36 6 10 4 1 43 0 0 0 0 0 0 2 5 5 5 0 0 0 0 0
50 35 18 23 19 83 90 15 1 1 18 25 0 1 2 18 98 65 62 3 5 4 5 5 1 10 0 27 36 0 0 0 1 5 5 53 5 5 2 0 0 0 0
5 93 36 38 5 49 61 98 12 5 12 27 99 17 0 2 0 0 100 30 1 0 7 0 0 15 44 27 33 5 1 2 4 5 8 11 7 50 2 0 0 0 0
10 42 13 27 5 46 7 58 100 100 55 6 19 0 83 89 47 87 21 27 66 8 1 50 0 4 14 50 71 5 5 4 0 5 31 82 100 77 9 4 0 0 0
7 5 4 6 7 5 23 13 56 100 100 100 65 87 4 3 21 2 1 65 9 76 4 66 100 2 23 4 38 6 27 5 5 5 5 2 8 5 15 5 2 0 0
87 55 2 0 5 33 26 50 8 74 100 100 100 94 44 30 25 24 29 1 5 58 100 87 93 29 51 54 5 6 5 4 3 4 0 51 59 2 31 2 0 0 0
19 42 69 42 29 10 30 28 49 18 99 100 100 100 35 48 27 55 64 52 13 0 35 65 16 92 87 64 5 88 100 96 11 7 6 5 95 100 100 96 100 100 46
100 99 100 97 100 74 58 21 22 27 87 100 98 67 100 77 51 29 12 11 41 2 7 18 9 54 21 72 38 16 73 100 100 100 92 43 65 100 95 100 99 5 49
70 75 100 100 100 76 90 89 5 65 34 95 95 94 7 89 100 5 28 18 12 9 2 8 5 64 77 7 85 100 99 100 37 100 100 100 100 98 100 100 87 7 79
92 100 100 97 22 66 84 100 100 81 12 38 24 100 91 5 50 100 23 22 3 0 0 0 3 20 32 92 100 100 100 73 100 100 100 100 96 100 93 100 100 100 22
85 40 75 92 100 77 100 99 100 100 85 73 18 21 76 56 7 13 65 72 27 71 82 86 43 15 7 44 16 88 100 100 100 83 100 100 100 100 64 96 79 85 99
5 27 36 94 94 70 81 61 46 95 100 92 37 100 94 50 22 32 19 94 99 52 92 68 86 96 13 100 76 18 37 100 95 92 97 100 100 100 99 61 10 53 77
12 5 31 99 100 95 64 13 31 80 100 99 44 99 59 90 25 64 5 5 51 46 40 92 65 7 10 13 5 5 5 5 17 11 61 63 76 100 100 100 8 22 5
6 5 42 55 17 92 73 81 54 24 47 77 100 100 48 31 26 1 1 5 44 5 39 5 62 67 20 3 3 0 5 20 5 7 5 7 73 47 100 100 96 95 1
99 50 78 100 96 98 100 97 94 16 5 18 27 74 100 52 5 34 24 8 39 2 37 4 7 5 16 21 8 29 6 9 16 4 3 88 60 74 89 100 93 93 95
100 100 100 100 94 46 97 84 45 11 54 42 61 100 83 14 54 11 4 27 34 35 43 47 77 48 9 7 5 5 5 30 45 99 95 56 45 52 8 37 99 42 55
100 100 100 100 98 73 25 57 29 53 94 70 34 87 100 100 100 67 76 24 2 0 4 2 1 0 0 0 1 0 8 4 5 5 39 27 8 5 3 4 75 99 90
100 100 100 100 93 98 100 97 100 100 100 99 45 5 5 65 95 100 100 98 91 6 12 3 5 5 8 7 50 24 50 2 0 2 69 70 23 8 12 83 56 71 93

GFSMA_prec_cloud_108.txt.gz
Cloud_Cover
79 100 92 48 41 84 83 100 100 100 100 100 100 92 99 96 100 91 100 90 100 84 91 10 6 5 5 5 56 100 48 5 0 0 0 0 62 5 5 61 97 100 98
5 8 18 100 61 52 31 99 100 100 96 94 100 100 100 100 100 100 96 66 58 89 97 14 5 5 5 10 100 86 5 5 0 0 0 0 0 1 0 4 55 58 100
6 100 66 9 0 70 0 31 94 45 8 6 15 100 100 100 99 99 77 11 5 5 11 5 5 5 29 100 96 7 5 3 0 0 0 0 0 0 14 19 1 4 100
0 1 69 4 0 0 5 0 98 98 74 2 5 1 4 5 6 46 10 2 5 4 4 3 5 14 99 56 5 5 0 0 0 0 0 0 0 0 0 15 4 3 100
0 78 0 0 4 86 26 40 0 5 54 39 70 0 0 2 0 0 0 0 0 0 0 2 88 75 23 91 100 3 0 0 0 0 0 0 0 0 0 0 5 35 100
0 22 60 100 29 63 89 0 100 0 47 51 95 14 5 0 0 0 0 0 0 0 0 44 72 86 100 98 0 0 0 0 0 0 0 0 0 0 0 0 1 88 100
0 0 21 100 82 7 0 0 0 0 0 47 2 0 4 5 3 0 0 0 1 5 8 79 28 96 45 1 0 0 0 0 0 0 0 4 0 0 0 0 0 2 100
5 17 7 4 93 32 0 0 0 6 0 0 0 23 16 1 18 6 0 34 5 5 8 10 2 0 0 7 19 2 2 5 5 5 5 0 0 0 0 0 0 0 5
5 62 17 27 4 28 0 0 0 46 0 0 0 3 100 100 72 0 5 4 0 0 0 0 10 4 4 12 58 0 5 11 5 5 5 1 2 0 0 0 0 0 0
87 0 3 5 39 92 19 3 0 98 8 0 51 57 100 100 100 100 15 31 7 2 61 100 100 100 72 13 0 0 0 5 33 6 10 5 4 0 0 0 0 0 0
79 100 1 7 5 18 43 52 45 0 81 2 12 100 100 100 100 100 100 100 100 91 97 100 100 100 100 100 98 0 0 1 5 5 94 30 5 0 0 0 0 0 0
1 75 85 40 5 6 76 98 96 75 0 7 68 100 100 98 98 100 100 100 100 100 100 100 100 100 32 18 19 3 5 4 5 0 0 2 0 0 0 0 0 0 0
99 17 5 0 0 0 5 8 89 100 65 1 0 0 43 14 26 92 100 100 100 100 100 100 100 100 100 100 28 3 4 73 61 3 0 5 1 0 0 0 0 0 0
100 100 72 39 4 25 5 5 10 100 100 10 4 0 0 0 0 3 98 97 100 100 100 100 100 100 100 99 30 5 5 8 100 100 36 5 6 78 21 4 0 0 0
100 100 100 92 51 5 33 13 20 23 44 76 6 5 2 0 54 2 5 93 33 100 100 100 100 100 86 2 96 76 18 98 46 8 98 73 5 5 5 5 5 5 1
100 100 100 60 69 76 73 100 64 13 4 4 28 22 3 4 1 88 7 48 16 44 7 38 5 5 3 5 5 92 100 100 100 100 48 75 93 36 27 84 99 99 98
90 100 100 88 40 47 64 87 100 99 98 1 3 15 16 14 3 17 4 3 56 51 81 31 12 5 5 36 8 39 73 100 100 100 100 83 100 98 100 23 26 76 100
93 22 96 100 45 26 6 79 93 100 83 44 5 4 4 5 34 4 4 6 5 65 0 87 4 6 5 19 50 97 90 67 52 96 100 100 100 100 100 100 64 16 5
35 5 16 87 8 10 100 71 60 50 65 98 19 6 6 3 4 5 5 5 3 14 5 3 0 8 5 12 70 92 5 23 24 42 55 100 80 100 100 82 51 100 100
1 37 27 41 5 70 87 68 18 23 62 46 68 90 63 70 45 5 3 5 4 5 3 5 5 2 32 86 90 64 5 5 3 4 4 13 13 18 19 93 79 90 49
5 3 4 4 74 84 100 100 24 36 6 94 72 75 95 16 50 6 4 24 1 0 1 0 4 5 3 2 5 4 3 5 5 5 5 3 1 11 79 45 17 6 79
6 5 46 5 34 52 21 98 96 26 5 32 26 70 100 100 96 4 4 2 43 48 0 0 0 2 5 71 5 5 5 29 5 5 5 5 5 5 35 90 70 12 5
96 100 100 100 64 26 50 29 66 90 56 5 5 5 22 19 96 8 5 5 1 1 24 4 3 0 10 3 0 2 5 5 4 14 46 7 5 5 2 1 91 29 88
99 100 100 100 100 70 11 16 20 56 69 28 16 59 25 12 96 18 5 5 5 4 2 3 11 15 0 0 0 0 0 16 3 19 86 99 64 5 5 5 4 5 58
70 100 100 100 100 95 100 99 77 57 90 90 100 38 5 5 15 8 28 43 41 5 5 5 5 5 5 6 30 0 0 0 0 9 1 91 9 20 6 51 16 4 3
100 100 100 100 100 100 100 96 100 74 32 83 15 68 5 5 5 8 10 67 33 68 44 96 30 14 44 100 65 40 5 10 3 0 3 0 0 2 5 4 5 5 76

GFSMA_prec_cloud_111.txt.gz
Cloud_Cover
1 4 100 100 100 8 3 7 99 100 75 93 51 100 100 100 100 100 100 100 100 83 26 5 5 5 5 5 5 3 5 0 0 0 0 0 0 0 0 0 5 100 91
12 12 76 98 30 2 24 91 94 39 39 42 100 100 83 100 100 100 68 38 5 5 5 5 5 5 5 5 1 5 4 0 0 0 0 0 0 1 2 1 11 14 19
89 26 0 0 0 78 100 98 60 84 27 67 95 60 17 31 59 83 6 0 0 0 0 5 5 5 18 5 19 3 0 0 0 0 0 0 0 0 0 5 6 4 5
36 12 0 0 0 3 38 26 4 0 2 4 4 3 2 4 0 0 0 0 0 4 4 5 5 6 29 100 8 0 0 0 0 0 0 0 0 0 0 7 100 4 60
38 56 1 2 0 0 0 5 90 0 0 0 0 0 0 5 0 0 0 0 4 0 0 2 5 5 13 0 3 0 0 0 0 0 0 0 0 0 0 5 100 5 5
100 4 0 0 71 0 0 0 0 25 6 57 0 0 0 0 0 0 0 5 5 4 3 39 24 0 0 2 5 1 0 0 0 3 0 0 0 0 0 1 28 5 5
1 0 5 0 0 0 0 0 0 1 30 20 0 0 0 0 0 81 100 100 100 99 100 100 100 100 95 19 42 1 4 18 2 5 5 0 0 0 0 0 5 5 100
10 5 6 78 14 0 0 0 0 2 0 9 12 99 72 48 68 100 100 100 100 100 100 100 100 100 100 100 95 0 0 5 31 23 5 5 0 0 0 0 0 0 8
2 5 7 26 75 5 2 3 4 0 4 10 6 100 100 100 100 100 100 100 100 100 100 100 100 100 100 100 37 65 83 5 9 37 4 0 0 0 0 0 0 0 0
12 5 5 39 87 93 5 0 3 1 4 20 47 84 93 100 100 100 100 100 100 100 100 100 100 100 100 100 76 4 93 1 1 5 0 0 0 0 0 0 0 0 0
86 25 0 0 5 69 92 5 17 15 5 70 92 74 100 100 100 100 100 100 100 100 100 100 100 100 100 100 100 39 21 3 0 5 0 0 0 0 0 0 0 0 0
92 83 2 0 0 3 34 100 6 2 21 2 39 73 100 100 100 100 100 100 100 100 100 100 100 100 100 95 99 96 10 81 2 0 0 0 0 0 0 0 0 0 0
100 100 98 7 5 5 14 10 99 43 5 1 4 38 69 100 100 100 100 100 100 100 100 100 100 100 98 100 100 98 5 5 5 2 0 0 0 0 0 0 0 0 0
100 100 100 81 65 34 5 5 6 24 35 31 58 6 6 14 25 100 100 100 100 100 100 100 100 100 99 100 100 100 24 50 59 7 4 5 0 2 0 0 0 0 0
100 100 100 100 75 100 46 41 57 4 5 5 5 84 100 92 39 9 47 84 98 70 86 96 76 7 5 66 100 100 69 86 6 98 98 97 97 100 100 54 13 5 5
100 100 100 100 100 100 99 88 91 96 8 3 4 5 13 88 95 100 100 58 10 77 54 54 37 5 5 0 83 55 32 100 100 39 83 100 47 48 100 100 100 100 83
100 98 100 100 100 90 100 81 52 65 86 22 3 0 3 2 2 6 84 100 100 100 85 68 9 55 4 5 3 21 5 14 87 100 74 95 70 32 6 53 98 74 50
61 100 11 47 9 46 60 37 80 78 33 26 21 5 8 0 0 0 0 6 21 92 100 86 16 9 5 8 69 94 11 5 5 6 5 5 85 100 100 48 17 51 100
77 31 35 88 45 28 12 58 92 61 63 98 88 35 5 6 5 2 0 0 0 0 1 16 5 3 11 92 86 53 68 28 47 13 75 21 10 5 84 100 98 76 41
1 5 62 20 8 12 41 100 26 38 27 28 69 67 77 98 43 0 1 3 5 1 0 0 2 5 7 7 16 26 99 58 33 11 41 5 11 13 40 79 100 100 98
19 4 0 4 10 52 48 79 27 6 4 4 5 64 11 100 100 91 23 0 1 5 5 5 0 2 6 17 45 59 39 5 28 98 8 95 64 30 97 100 17 13 68
38 58 68 29 5 41 26 69 40 5 5 5 5 5 5 5 63 99 100 61 41 0 0 0 4 17 4 5 3 0 2 6 22 5 5 19 99 89 59 35 27 99 67
100 100 100 100 100 89 72 33 6 5 5 6 8 6 5 5 5 50 63 26 90 5 13 6 2 7 0 0 2 5 5 0 9 7 58 58 44 67 25 39 14 5 5
100 100 100 86 98 71 69 55 54 5 43 27 5 10 24 5 5 5 8 6 5 5 3 5 13 4 1 0 0 0 0 0 6 21 2 38 63 34 21 8 48 8 43
100 100 94 100 100 100 100 100 100 64 55 74 52 57 63 6 0 0 0 6 39 5 10 100 100 70 5 5 5 3 5 0 3 5 0 0 1 3 5 4 5 5 5
100 100 100 100 100 100 100 100 100 92 52 98 78 50 5 49 6 4 19 46 10 10 5 54 45 83 25 97 44 26 5 1 4 2 72 4 1 2 0 2 30 5 18

GFSMA_prec_cloud_114.txt.gz
Cloud_Cover
66 10 46 100 5 77 60 94 52 93 100 100 100 100 100 100 97 72 24 5 5 5 5 4 3 0 5 2 6 7 0 0 0 0 0 0 0 3 37 67 37 40 100
2 0 6 2 5 22 98 100 76 81 100 100 100 92 16 9 16 4 5 3 2 8 33 41 11 4 5 5 0 0 0 0 0 0 0 0 0 0 100 100 11 5 56
11 0 2 98 85 19 6 2 85 100 11 65 60 5 5 5 5 0 24 99 100 100 100 100 81 90 14 2 2 0 0 0 0 0 0 0 0 2 96 98 5 5 5
0 0 12 5 99 9 0 0 0 0 39 10 5 5 0 0 5 100 100 100 100 100 100 100 100 100 100 3 0 0 0 0 0 0 0 0 0 4 75 100 78 5 34
0 0 0 2 54 57 32 0 0 0 0 6 0 1 15 83 100 100 100 100 100 100 100 100 100 100 100 38 2 0 3 3 2 0 0 0 0 5 38 100 72 83 100
0 0 1 0 0 0 0 0 0 1 5 12 8 93 100 100 100 100 100 100 100 100 100 100 100 100 100 99 98 26 20 5 0 0 0 0 0 1 7 100 100 80 100
2 2 5 20 10 0 2 0 0 94 76 99 100 100 100 82 100 100 100 100 100 100 100 100 100 100 100 100 49 2 81 0 4 70 0 0 0 0 4 9 93 93 100
100 18 2 0 2 21 5 5 90 70 56 78 55 79 95 100 100 100 100 100 100 96 100 100 100 100 100 100 96 2 0 0 75 19 0 0 0 0 0 3 5 4 25
100 100 30 2 2 5 24 6 5 6 77 100 100 100 98 100 58 100 100 100 100 100 100 100 100 100 100 100 81 5 0 0 0 0 0 0 0 0 0 0 0 0 0
100 99 100 8 5 0 1 1 1 4 9 41 71 84 70 26 100 65 99 100 100 100 100 100 100 100 100 100 53 1 0 0 0 0 0 0 0 0 0 0 0 0 0
96 100 100 50 18 6 0 0 0 5 6 92 80 54 79 36 55 93 100 100 100 100 97 100 100 100 100 100 100 62 4 0 0 0 0 0 0 0 0 0 0 0 0
83 30 94 75 8 36 92 3 0 0 32 44 40 79 100 46 100 100 92 100 100 100 99 95 100 100 100 100 100 100 96 5 5 0 0 0 0 0 0 0 0 2 4
100 100 19 100 100 57 63 6 5 5 3 0 65 99 100 100 100 100 99 100 100 100 100 100 100 100 100 100 100 100 92 97 31 20 3 0 0 0 0 0 0 0 0
100 100 99 96 100 71 100 98 21 5 5 5 5 78 14 96 100 100 100 100 100 100 100 83 19 5 4 18 64 97 38 100 100 66 98 23 13 67 8 5 5 5 5
94 96 100 100 100 75 26 99 93 10 5 5 5 16 15 6 5 20 69 62 87 43 74 15 16 5 5 5 20 61 8 100 100 83 71 87 71 26 98 74 19 92 100
43 100 100 100 100 100 16 47 57 34 7 3 4 5 5 53 97 94 73 64 37 19 27 31 36 70 26 56 75 23 5 91 100 100 50 87 16 5 31 80 99 100 94
24 100 100 94 100 100 76 100 88 92 67 98 42 5 5 5 4 3 12 40 29 7 12 5 7 5 18 9 98 100 64 71 97 99 100 15 97 37 8 5 7 62 86
8 95 65 80 76 98 100 89 96 36 7 6 17 11 8 13 4 4 0 4 5 4 6 5 5 4 5 5 96 100 100 94 41 12 59 98 90 100 100 100 93 84 99
78 5 5 14 13 66 99 96 100 98 20 6 14 29 8 5 85 1 1 4 5 5 5 5 4 5 7 5 9 90 100 79 56 71 93 94 28 94 81 100 100 99 97
7 0 3 5 9 9 28 47 100 96 88 51 33 78 6 78 23 97 6 11 5 3 2 5 5 1 0 4 2 7 2 13 5 6 7 20 91 90 100 100 99 85 95
40 2 5 26 38 96 28 81 62 47 19 72 6 5 12 6 95 60 60 96 52 8 5 0 0 2 2 8 8 3 0 0 0 0 37 92 87 7 81 100 100 100 100
100 61 0 8 100 100 100 84 46 42 37 5 5 5 5 5 5 30 100 88 90 79 96 62 20 28 1 3 0 4 4 2 14 0 0 7 8 64 100 100 93 55 46
100 100 100 100 46 100 100 100 86 68 6 5 16 5 5 5 5 5 54 71 57 100 100 100 100 100 47 19 90 27 16 4 30 4 5 0 5 0 35 24 18 50 38
100 100 100 100 100 100 99 89 100 23 55 78 48 5 5 5 11 49 5 5 5 28 44 95 100 100 100 100 100 88 38 27 7 10 4 4 4 5 11 22 56 28 6
100 100 100 100 100 100 100 100 100 100 96 100 88 52 99 100 94 61 78 7 5 0 4 5 45 78 39 18 93 100 100 100 100 79 1 4 4 47 5 5 10 1 0
100 100 100 100 100 100 100 100 100 100 100 100 100 89 37 83 100 100 97 79 82 29 62 37 88 66 94 95 77 63 54 100 100 100 83 49 6 5 32 18 9 10 5

GFSMA_prec_cloud_117.txt.gz
Cloud_Cover
4 4 5 14 88 83 90 84 100 100 99 71 15 87 63 39 72 100 100 100 100 100 100 100 100 32 2 4 5 0 0 0 0 0 0 0 100 100 56 79 100 26 60
1 5 41 15 48 21 51 89 97 100 100 98 53 61 33 90 100 100 100 100 100 100 100 100 100 20 2 0 2 0 0 0 0 0 0 0 59 100 100 73 86 16 5
9 93 47 2 0 24 33 22 29 100 61 26 9 11 75 100 100 100 100 100 100 100 100 99 100 100 0 0 0 0 0 0 0 0 0 5 5 25 100 33 100 52 5
0 2 56 0 0 0 2 5 5 5 0 0 17 37 100 100 100 55 5 35 100 100 100 100 100 100 47 5 5 4 0 0 0 0 0 5 5 41 100 98 100 98 5
3 3 5 0 0 0 0 0 0 0 10 91 100 100 100 100 16 4 51 76 73 100 100 100 100 100 88 4 1 0 0 0 0 0 0 5 5 5 7 99 100 100 5
0 0 3 71 4 3 3 0 4 67 91 100 92 29 96 16 9 87 91 5 5 56 100 100 99 90 100 45 0 3 0 0 0 0 0 0 5 4 2 76 100 100 82
5 15 12 5 5 5 33 30 100 81 81 100 99 100 100 100 71 82 99 14 100 100 100 100 98 10 98 19 24 0 0 0 0 0 0 0 0 0 0 0 18 54 100
0 3 31 22 100 78 91 5 38 8 7 22 71 46 62 33 33 16 72 96 100 100 100 100 100 100 58 23 1 0 0 0 0 0 0 0 0 0 0 0 5 5 98
5 4 5 5 5 4 5 5 3 5 69 10 7 9 30 21 39 98 84 69 82 100 100 100 100 100 100 67 4 0 0 0 0 0 0 0 0 0 0 0 0 0 3
35 8 1 4 5 5 5 4 5 5 4 5 5 6 29 5 4 18 95 99 94 100 100 100 100 100 100 100 54 5 0 0 0 0 0 0 0 0 0 0 0 0 0
97 71 11 4 0 3 0 0 0 0 2 0 11 6 46 5 5 16 91 56 99 100 100 100 100 100 100 100 100 86 5 0 1 0 0 5 5 0 0 0 0 0 5
57 37 58 7 12 2 0 0 4 5 28 5 10 5 5 5 5 64 46 59 55 84 81 100 100 46 100 98 77 100 22 5 5 5 3 0 1 5 1 0 0 3 4
83 100 42 54 56 1 0 0 0 0 2 2 3 6 88 22 5 14 100 94 72 14 42 100 12 48 100 86 96 50 5 28 5 5 90 58 5 5 0 0 3 5 22
100 100 44 94 6 52 63 2 0 1 0 0 0 2 4 3 5 49 58 7 80 48 5 18 18 100 100 100 99 5 5 5 35 8 5 5 50 10 5 24 98 97 99
87 92 100 100 100 51 95 100 26 5 5 4 5 3 0 0 0 2 3 2 5 5 5 27 5 56 100 100 100 17 6 5 15 96 94 39 97 5 5 49 92 66 70
69 96 72 100 59 70 95 100 91 57 49 41 5 5 5 3 0 2 0 0 0 0 0 2 4 10 39 52 93 85 66 53 17 50 36 100 100 74 45 5 7 57 95
98 100 42 75 99 87 29 91 84 69 71 69 100 50 5 5 7 5 5 1 0 0 0 0 5 22 5 2 5 5 55 42 85 100 63 41 100 92 68 76 31 90 100
86 72 72 92 63 34 78 31 88 98 72 62 99 50 54 97 50 38 16 27 55 99 4 5 0 0 5 4 0 0 8 4 5 8 46 82 84 34 100 36 99 96 100
5 5 25 8 5 68 75 100 99 100 94 72 100 100 100 100 100 100 100 31 5 5 3 0 0 0 0 0 0 5 4 0 0 4 53 35 100 100 100 98 100 100 100
8 26 23 49 40 97 99 75 87 83 100 100 55 100 85 82 74 92 100 100 100 68 96 37 37 9 1 1 1 1 5 4 2 5 4 10 91 100 100 89 80 100 100
99 7 15 67 100 73 85 100 100 91 99 100 100 86 28 61 60 77 55 90 100 100 100 100 93 100 96 90 94 51 3 5 15 5 22 5 8 48 29 92 32 66 100
100 100 47 100 100 94 93 14 94 93 100 100 100 100 75 5 62 17 19 43 54 91 99 100 100 83 30 29 7 100 100 100 10 5 2 0 18 0 11 40 100 95 43
100 100 100 100 100 100 70 100 92 50 71 100 88 100 100 96 5 6 12 64 94 23 67 31 19 58 55 99 95 9 12 100 100 100 58 54 48 86 80 100 100 100 100
100 100 100 100 100 100 100 100 100 98 18 94 99 6 98 100 62 100 95 60 34 68 86 47 97 34 48 8 5 14 8 5 62 20 47 47 100 100 100 100 77 41 30
100 100 100 100 100 100 100 100 75 90 71 97 99 100 100 100 96 68 92 64 63 82 94 95 100 84 5 22 5 5 5 10 72 69 34 62 31 31 99 17 10 5 6
100 100 100 100 100 100 100 100 100 100 100 100 100 100 100 100 100 90 62 68 36 100 98 100 96 68 6 33 70 31 66 37 55 66 100 59 12 77 89 63 94 18 82

GFSMA_prec_cloud_120.txt.gz
Cloud_Cover
4 5 15 15 92 64 100 100 100 93 93 92 60 83 100 88 100 84 26 6 5 5 99 99 2 0 0 0 0 3 0 0 0 55 100 76 99 100 100 5 3 4 17
2 2 5 5 28 9 63 99 97 77 78 14 46 5 3 5 6 5 22 24 100 100 100 99 16 0 5 4 5 1 0 0 2 80 87 69 64 100 100 4 0 2 14
4 0 0 1 6 72 84 100 55 22 8 3 2 0 1 5 5 5 4 5 100 100 100 100 100 1 0 0 0 0 0 0 5 32 12 43 22 100 100 92 1 0 5
0 0 0 0 3 5 5 4 4 2 0 2 4 0 5 3 3 12 17 6 6 100 100 45 49 100 78 1 0 0 0 0 0 5 5 5 13 100 100 100 2 0 0
0 0 0 0 0 0 0 1 24 53 50 52 19 18 5 4 5 81 100 100 100 100 100 83 77 58 34 1 3 2 0 0 0 1 0 0 1 99 100 87 66 0 0
2 0 0 0 0 5 4 4 16 84 50 38 5 5 3 2 5 7 100 100 100 100 100 90 11 14 5 5 4 0 0 0 0 0 0 0 0 5 100 76 42 5 0
0 5 4 5 16 4 5 4 90 81 23 9 5 5 4 4 5 67 7 96 100 100 100 100 98 9 12 4 2 0 0 0 0 0 0 0 0 0 5 5 5 8 76
4 0 0 2 4 5 5 4 5 60 19 5 5 5 5 4 6 17 7 62 100 100 83 84 52 42 5 5 1 0 0 0 0 0 0 0 0 0 0 0 3 30 69
1 0 2 2 5 5 5 5 11 5 14 5 5 4 0 3 9 5 34 5 60 94 30 49 57 61 13 5 2 0 0 0 5 0 0 0 0 0 0 5 2 0 34
0 0 0 0 1 3 5 5 5 5 5 5 1 5 5 5 98 50 20 71 100 93 72 10 92 7 22 5 4 5 5 5 4 1 0 0 1 5 5 5 5 5 0
5 0 0 0 0 0 5 0 0 0 5 5 5 61 86 8 5 5 7 9 15 40 64 58 99 5 5 19 5 5 5 5 5 1 0 2 6 93 11 8 5 5 5
43 23 1 1 0 0 0 0 0 0 0 1 4 2 4 2 0 14 86 11 18 42 5 27 100 100 13 5 5 5 5 38 5 5 5 4 5 6 48 90 39 5 38
6 5 10 5 5 5 4 0 0 0 0 0 0 0 0 0 0 1 0 3 0 3 5 5 9 100 100 15 10 5 7 45 5 95 5 5 54 100 85 100 100 71 84
100 36 19 5 5 6 12 6 5 5 5 3 4 0 0 0 0 0 1 0 0 0 3 5 5 16 100 100 93 5 5 62 5 29 52 20 5 5 5 11 66 93 10
99 100 91 7 5 5 51 19 5 5 5 5 5 7 9 3 0 0 0 0 0 0 3 5 2 3 7 37 32 100 73 94 26 6 10 90 92 5 5 33 58 14 25
81 86 100 97 100 64 38 5 12 11 5 5 5 3 6 4 3 2 0 0 0 0 0 0 0 0 0 0 0 0 3 4 80 84 19 69 100 87 46 15 10 87 88
37 100 99 99 95 100 77 13 30 5 5 5 5 52 60 54 29 28 5 4 5 5 2 5 1 3 0 0 3 1 0 0 0 5 83 100 100 100 100 100 100 100 100
13 13 7 59 89 77 100 90 57 69 9 75 67 29 5 5 9 33 40 31 5 5 5 5 5 5 2 5 5 5 5 5 4 1 6 100 100 100 100 100 100 100 100
99 25 11 18 85 58 100 100 100 93 96 95 100 68 15 16 23 23 11 1 0 2 5 13 50 32 4 7 65 72 15 4 5 58 6 5 48 77 100 100 94 96 100
100 100 100 74 37 100 88 98 100 100 100 100 100 100 94 75 73 100 46 79 58 49 8 5 5 9 14 8 0 1 25 84 66 13 41 100 79 32 6 10 83 100 71
100 100 100 100 100 13 100 91 39 96 85 100 100 100 100 100 94 90 94 94 100 100 72 18 43 27 60 13 5 1 5 34 35 100 100 100 100 100 100 100 4 18 15
100 55 100 100 100 87 25 100 79 77 33 97 100 100 100 100 100 100 100 100 100 100 100 100 66 40 7 5 5 5 21 5 5 5 45 8 58 73 100 100 100 100 98
96 100 100 96 100 100 100 12 24 92 100 95 91 100 100 100 100 99 100 100 100 100 100 38 75 70 36 12 5 5 5 59 33 5 15 68 79 35 71 100 43 38 94
100 100 83 100 100 100 100 100 96 100 90 95 99 92 87 100 92 54 91 100 100 100 100 95 51 41 44 8 5 5 0 13 33 80 58 65 39 16 9 5 19 59 38
100 100 100 100 100 100 100 100 100 100 100 100 98 7 25 33 100 100 100 100 100 100 99 90 83 93 76 54 14 5 5 5 5 5 5 63 97 100 100 41 10 5 5
100 100 100 100 100 100 100 100 100 100 100 96 100 98 100 100 100 100 100 100 100 100 99 97 98 94 96 81 100 25 68 5 53 32 24 78 33 43 68 89 99 84 44